[[{"header":{"parameterUnit":"m.s-1","parameterCategory":1,"la1":31.0,"la2":29.5877,"lo1":-88.7671,"lo2":-86.6584,"dy":0.0162,"dx":0.0185,"nx":115,"ny":88,"refTime":"2023-09-10T18:00:00:Z","depth":0,"parameterNumber":2,"parameterNumberName":"U-component_of_WINDS"},"data":[0.0,0.0,0.0,0.0,0.0,0.0,0.0,0.0,0.0,0.0,0.0,0.0,0.0,0.0,0.0,0.0,0.0,0.0,0.0,0.0,0.0,0.0,0.0,0.0,0.0,0.0,0.0,0.0,0.0,0.0,0.0,0.0,0.0,0.0,0.0,0.0,0.0,0.0,0.0,0.0,0.0,0.0,0.0,0.0,0.0,0.0,0.0,0.0,0.0,0.0,0.0,0.0,0.0,0.0,0.0,0.0,0.0,0.0,0.0,0.0,0.0,0.0,0.0,0.0,0.0,0.0,0.0,0.0,0.0,0.0,0.0,0.0,0.0,0.0,0.0,0.0,0.0,0.0,0.0,0.0,0.0,0.0,0.0,0.0,0.0,0.0,0.0,0.0,0.0,0.0,0.0,0.0,0.0,0.0,0.0,0.0,0.0,0.0,0.0,0.0,0.0,0.0,0.0,0.0,0.0,0.0,0.0,0.0,0.0,0.0,0.0,0.0,0.0,0.0,0.0,0.0,0.0,0.0,0.0,0.0,0.0,0.0,0.0,0.0,0.0,0.0,0.0,0.0,0.0,0.0,0.0,0.0,0.0,0.0,0.0,0.0,0.0,0.0,0.0,0.0,0.0,0.0,0.0,0.0,0.0,0.0,0.0,0.0,0.0,0.0,0.0,0.0,0.0,0.0,0.0,0.0,0.0,0.0,0.0,0.0,0.0,0.0,0.0,0.0,0.0,0.0,0.0,0.0,0.0,0.0,0.0,0.0,0.0,0.0,0.0,0.0,0.0,0.0,0.0,0.0,0.0,0.0,0.0,0.0,0.0,0.0,0.0,0.0,0.0,0.0,0.0,0.0,0.0,0.0,0.0,0.0,0.0,0.0,0.0,0.0,0.0,0.0,0.0,0.0,0.0,0.0,0.0,0.0,0.0,0.0,0.0,0.0,0.0,0.0,0.0,0.0,0.0,0.0,0.0,0.0,0.0,0.0,0.0,0.0,0.0,0.0,0.0,0.0,0.0,0.0,0.0,0.0,0.0,0.0,0.0,0.0,0.0,0.0,0.0,0.0,0.0,0.0,0.0,0.0,0.0,0.0,0.0,0.0,0.0,0.0,0.0,0.0,0.0,0.0,0.0,0.0,0.0,0.0,0.0,0.0,0.0,0.0,0.0,0.0,0.0,0.0,0.0,0.0,0.0,0.0,0.0,0.0,0.0,0.0,0.0,0.0,0.0,0.0,0.0,0.0,0.0,0.0,0.0,0.0,0.0,0.0,0.0,0.0,0.0,0.0,0.0,0.0,0.0,0.0,0.0,0.0,0.0,0.0,0.0,0.0,0.0,0.0,0.0,0.0,0.0,0.0,0.0,0.0,0.0,0.0,0.0,0.0,0.0,0.0,0.0,0.0,0.0,0.0,0.0,0.0,0.0,0.0,0.0,0.0,0.0,0.0,0.0,0.0,0.0,0.0,0.0,0.0,0.0,0.0,0.0,0.0,0.0,0.0,0.0,0.0,0.0,0.0,0.0,0.0,0.0,0.0,0.0,0.0,0.0,0.0,0.0,0.0,0.0,0.0,0.0,0.0,0.0,0.0,0.0,0.0,0.0,0.0,0.0,0.0,0.0,0.0,0.0,0.0,0.0,0.0,0.0,0.0,0.0,0.0,0.0,0.0,0.0,0.0,0.0,0.0,0.0,0.0,0.0,0.0,0.0,0.0,0.0,0.0,0.0,0.0,0.0,0.0,0.0,0.0,0.0,0.0,0.0,0.0,0.0,0.0,0.0,0.0,0.0,0.0,0.0,0.0,0.0,0.0,0.0,0.0,0.0,0.0,0.0,0.0,0.0,0.0,0.0,0.0,0.0,0.0,0.0,0.0,0.0,0.0,0.0,0.0,0.0,0.0,0.0,0.0,0.0,0.0,0.0,0.0,0.0,0.0,0.0,0.0,0.0,0.0,0.0,0.0,0.0,0.0,0.0,0.0,0.0,0.0,0.0,0.0,0.0,0.0,0.0,0.0,0.0,0.0,0.0,0.0,0.0,0.0,0.0,0.0,0.0,0.0,0.0,0.0,0.0,0.0,0.0,0.0,0.0,0.0,0.0,0.0,0.0,0.0,0.0,0.0,0.0,0.0,0.0,0.0,0.0,0.0,0.0,0.0,0.0,0.0,0.0,0.0,0.0,0.0,0.0,0.0,0.0,0.0,0.0,0.0,0.0,0.0,0.0,0.0,0.0,0.0,0.0,0.0,0.0,0.0,0.0,0.0,0.0,0.0,0.0,0.0,0.0,0.0,0.0,0.0,0.0,0.0,0.0,0.0,0.0,0.0,0.0,0.0,0.0,0.0,0.0,0.0,0.0,0.0,0.0,0.0,0.0,0.0,0.0,0.0,0.0,0.0,0.0,0.0,0.0,0.0,0.0,0.0,0.0,0.0,0.0,0.0,0.0,0.0,0.0,0.0,0.0,0.0,0.0,0.0,0.0,0.0,0.0,0.0,0.0,0.0,0.0,0.0,0.0,0.0,0.0,0.0,0.0,0.0,0.0,0.0,0.0,0.0,0.0,0.0,0.0,0.0,0.0,0.0,0.0,0.0,0.0,0.0,0.0,0.0,0.0,0.0,0.0,0.0,0.0,0.0,0.0,0.0,0.0,0.0,0.0,0.0,0.0,0.0,0.0,0.0,0.0,0.0,0.0,0.0,0.0,0.0,0.0,0.0,0.0,0.0,0.0,0.0,0.0,0.0,0.0,0.0,0.0,0.0,0.0,0.0,0.0,0.0,0.0,0.0,0.0,0.0,0.0,0.0,0.0,0.0,0.0,0.0,0.0,0.0,0.0,0.0,0.0,0.0,0.0,0.0,0.0,0.0,0.0,0.0,0.0,0.0,0.0,0.0,0.0,0.0,0.0,0.0,0.0,0.0,0.0,0.0,0.0,0.0,0.0,0.0,0.0,0.0,0.0,0.0,0.0,0.0,0.0,0.0,0.0,0.0,0.0,0.0,0.0,0.0,0.0,0.0,0.0,0.0,0.0,0.0,0.0,0.0,0.0,0.0,0.0,0.0,0.0,0.0,0.0,0.0,0.0,0.0,0.0,0.0,0.0,0.0,0.0,0.0,0.0,0.0,0.0,0.0,0.0,0.0,0.0,0.0,0.0,0.0,0.0,0.0,0.0,0.0,0.0,0.0,0.0,0.0,0.0,0.0,0.0,0.0,0.0,0.0,0.0,0.0,0.0,0.0,0.0,0.0,0.0,0.0,0.0,0.0,0.0,0.0,0.0,0.0,0.0,0.0,0.0,0.0,0.0,0.0,0.0,0.0,0.0,0.0,0.0,0.0,0.0,0.0,0.0,0.0,0.0,0.0,0.0,0.0,0.0,0.0,0.0,0.0,0.0,0.0,0.0,0.0,0.0,0.0,0.0,0.0,0.0,0.0,0.0,0.0,0.0,0.0,0.0,0.0,0.0,0.0,0.0,0.0,0.0,0.0,0.0,0.0,0.0,0.0,0.0,0.0,0.0,0.0,0.0,0.0,0.0,0.0,0.0,0.0,0.0,0.0,0.0,0.0,0.0,0.0,0.0,0.0,0.0,0.0,0.0,0.0,0.0,0.0,0.0,0.0,0.0,0.0,0.0,0.0,0.0,0.0,0.0,0.0,0.0,0.0,0.0,0.0,0.0,0.0,0.0,0.0,0.0,0.0,0.0,0.0,0.0,0.0,0.0,0.0,0.0,0.0,0.0,0.0,0.0,0.0,0.0,0.0,0.0,0.0,0.0,0.0,0.0,0.0,0.0,0.0,0.0,0.0,0.0,0.0,0.0,0.0,0.0,0.0,0.0,0.0,0.0,0.0,0.0,0.0,0.0,0.0,0.0,0.0,0.0,0.0,0.0,0.0,0.0,0.0,0.0,0.0,0.0,0.0,0.0,0.0,0.0,0.0,0.0,0.0,0.0,0.0,0.0,0.0,0.0,0.0,0.0,0.0,0.0,0.0,0.0,0.0,0.0,0.0,0.0,0.0,0.0,0.0,0.0,0.0,0.0,0.0,0.0,0.0,0.0,0.0,0.0,0.0,0.0,0.0,0.0,0.0,0.0,0.0,0.0,0.0,0.0,0.0,0.0,0.0,0.0,0.0,0.0,0.0,0.0,0.0,0.0,0.0,0.0,0.0,0.0,0.0,0.0,0.0,0.0,0.0,0.0,0.0,0.0,0.0,0.0,0.0,0.0,0.0,0.0,0.0,0.0,0.0,0.0,0.0,0.0,0.0,0.0,0.0,0.0,0.0,-2.9996,0.0,0.0,0.0,0.0,0.0,0.0,0.0,0.0,0.0,0.0,0.0,0.0,0.0,0.0,0.0,0.0,0.0,0.0,0.0,0.0,0.0,0.0,0.0,0.0,0.0,0.0,0.0,0.0,0.0,0.0,0.0,0.0,0.0,0.0,0.0,0.0,0.0,0.0,0.0,0.0,0.0,0.0,0.0,0.0,0.0,0.0,0.0,0.0,0.0,0.0,0.0,0.0,0.0,0.0,0.0,0.0,0.0,0.0,0.0,0.0,0.0,0.0,0.0,0.0,0.0,0.0,0.0,0.0,0.0,0.0,0.0,0.0,0.0,0.0,0.0,0.0,0.0,0.0,0.0,0.0,0.0,0.0,0.0,0.0,0.0,0.0,0.0,0.0,0.0,0.0,0.0,0.0,0.0,0.0,0.0,0.0,0.0,0.0,0.0,0.0,0.0,0.0,0.0,0.0,0.0,0.0,0.0,0.0,0.0,0.0,-3.1258,-3.1509,-3.0495,-3.002,-3.0173,0.0,0.0,0.0,0.0,0.0,0.0,0.0,0.0,0.0,0.0,0.0,0.0,0.0,0.0,0.0,0.0,0.0,0.0,0.0,0.0,0.0,0.0,0.0,0.0,0.0,0.0,0.0,0.0,0.0,0.0,0.0,0.0,0.0,0.0,0.0,0.0,0.0,0.0,0.0,0.0,0.0,0.0,0.0,0.0,0.0,0.0,0.0,0.0,0.0,0.0,0.0,0.0,0.0,0.0,0.0,0.0,0.0,0.0,0.0,0.0,0.0,0.0,0.0,0.0,0.0,0.0,0.0,0.0,0.0,0.0,0.0,0.0,0.0,0.0,0.0,0.0,0.0,0.0,0.0,0.0,0.0,0.0,0.0,0.0,0.0,0.0,0.0,0.0,0.0,0.0,0.0,0.0,0.0,0.0,0.0,0.0,0.0,0.0,0.0,0.0,0.0,0.0,0.0,0.0,0.0,0.0,0.0,0.0,0.0,0.0,0.0,0.0,-3.1175,-3.0324,-3.0012,0.0,0.0,0.0,0.0,0.0,0.0,0.0,0.0,0.0,0.0,0.0,0.0,0.0,0.0,0.0,0.0,0.0,0.0,0.0,0.0,0.0,0.0,0.0,0.0,0.0,0.0,0.0,0.0,0.0,0.0,0.0,0.0,0.0,0.0,0.0,0.0,0.0,0.0,0.0,0.0,0.0,0.0,0.0,0.0,0.0,0.0,0.0,0.0,0.0,0.0,0.0,0.0,0.0,0.0,0.0,0.0,0.0,0.0,0.0,0.0,0.0,0.0,0.0,0.0,0.0,0.0,0.0,0.0,0.0,0.0,0.0,0.0,0.0,0.0,0.0,0.0,0.0,0.0,0.0,0.0,0.0,0.0,0.0,0.0,0.0,0.0,0.0,0.0,0.0,0.0,0.0,0.0,0.0,0.0,0.0,0.0,0.0,0.0,0.0,0.0,0.0,0.0,0.0,0.0,0.0,0.0,0.0,0.0,0.0,0.0,-3.2981,-3.3354,-3.2639,0.0,-2.9555,0.0,0.0,0.0,0.0,0.0,0.0,0.0,0.0,0.0,0.0,0.0,0.0,0.0,0.0,0.0,0.0,0.0,0.0,0.0,0.0,0.0,0.0,0.0,0.0,0.0,0.0,0.0,0.0,0.0,0.0,0.0,0.0,0.0,0.0,0.0,0.0,0.0,0.0,0.0,0.0,0.0,0.0,0.0,0.0,0.0,0.0,0.0,0.0,0.0,0.0,0.0,0.0,0.0,0.0,0.0,0.0,0.0,0.0,0.0,0.0,0.0,0.0,0.0,0.0,0.0,0.0,0.0,0.0,0.0,0.0,0.0,0.0,0.0,0.0,0.0,0.0,0.0,0.0,0.0,0.0,0.0,0.0,0.0,0.0,0.0,0.0,0.0,0.0,0.0,0.0,0.0,0.0,0.0,0.0,0.0,0.0,0.0,0.0,0.0,0.0,0.0,0.0,0.0,0.0,0.0,0.0,0.0,0.0,0.0,0.0,-3.2263,-3.2783,-3.2307,-3.1616,0.0,0.0,0.0,0.0,0.0,0.0,0.0,0.0,0.0,0.0,0.0,0.0,0.0,0.0,0.0,0.0,0.0,0.0,0.0,0.0,0.0,0.0,0.0,0.0,0.0,0.0,0.0,0.0,0.0,0.0,0.0,0.0,0.0,0.0,0.0,0.0,0.0,0.0,0.0,0.0,0.0,0.0,0.0,0.0,0.0,0.0,0.0,0.0,0.0,0.0,0.0,0.0,0.0,0.0,0.0,0.0,0.0,0.0,0.0,0.0,0.0,0.0,0.0,0.0,0.0,0.0,0.0,0.0,0.0,0.0,0.0,0.0,0.0,0.0,0.0,0.0,0.0,0.0,0.0,0.0,0.0,0.0,0.0,0.0,0.0,0.0,0.0,0.0,0.0,0.0,0.0,0.0,0.0,0.0,0.0,0.0,0.0,0.0,0.0,0.0,0.0,0.0,0.0,0.0,0.0,0.0,0.0,0.0,0.0,0.0,-3.1907,-3.2067,-3.2693,-3.2299,-3.2041,-3.2059,0.0,0.0,0.0,0.0,0.0,0.0,0.0,0.0,0.0,0.0,0.0,0.0,0.0,0.0,0.0,0.0,0.0,0.0,0.0,0.0,0.0,0.0,0.0,0.0,0.0,0.0,0.0,0.0,0.0,0.0,0.0,0.0,0.0,0.0,0.0,0.0,0.0,0.0,0.0,0.0,0.0,0.0,0.0,0.0,0.0,0.0,0.0,0.0,0.0,0.0,0.0,0.0,0.0,0.0,0.0,0.0,0.0,0.0,0.0,0.0,0.0,0.0,0.0,0.0,0.0,0.0,0.0,0.0,0.0,0.0,0.0,0.0,0.0,0.0,0.0,0.0,0.0,0.0,0.0,0.0,0.0,0.0,0.0,0.0,0.0,0.0,0.0,0.0,0.0,0.0,0.0,0.0,0.0,0.0,0.0,0.0,0.0,0.0,0.0,0.0,0.0,0.0,0.0,0.0,0.0,0.0,0.0,0.0,-3.2283,-3.2535,-3.3006,-3.3763,-3.3253,-3.2946,0.0,0.0,0.0,0.0,0.0,0.0,0.0,0.0,0.0,0.0,0.0,0.0,0.0,0.0,0.0,0.0,0.0,0.0,0.0,0.0,0.0,0.0,0.0,0.0,0.0,0.0,0.0,0.0,0.0,0.0,0.0,0.0,0.0,0.0,0.0,0.0,0.0,0.0,0.0,0.0,0.0,0.0,0.0,0.0,0.0,0.0,0.0,0.0,0.0,0.0,0.0,0.0,0.0,0.0,0.0,0.0,0.0,0.0,0.0,0.0,0.0,0.0,0.0,0.0,0.0,0.0,0.0,0.0,0.0,0.0,0.0,0.0,0.0,0.0,0.0,0.0,0.0,0.0,0.0,0.0,0.0,0.0,0.0,0.0,0.0,0.0,0.0,0.0,0.0,0.0,0.0,0.0,0.0,0.0,0.0,0.0,0.0,0.0,0.0,0.0,0.0,0.0,0.0,0.0,0.0,0.0,0.0,0.0,0.0,-3.2553,-3.3462,-3.3898,-3.39,-3.3888,-3.3929,0.0,0.0,0.0,0.0,0.0,0.0,0.0,0.0,0.0,0.0,0.0,0.0,0.0,0.0,0.0,0.0,0.0,0.0,0.0,0.0,0.0,0.0,0.0,0.0,0.0,0.0,0.0,0.0,0.0,0.0,0.0,0.0,0.0,0.0,0.0,0.0,0.0,0.0,0.0,0.0,0.0,0.0,0.0,0.0,0.0,0.0,0.0,0.0,0.0,0.0,0.0,0.0,0.0,0.0,0.0,0.0,0.0,0.0,0.0,0.0,0.0,0.0,0.0,0.0,0.0,0.0,0.0,0.0,0.0,0.0,0.0,0.0,0.0,0.0,0.0,0.0,0.0,0.0,0.0,0.0,0.0,0.0,0.0,0.0,0.0,0.0,0.0,0.0,0.0,0.0,0.0,0.0,0.0,0.0,0.0,0.0,0.0,0.0,0.0,0.0,0.0,0.0,0.0,0.0,0.0,0.0,0.0,0.0,0.0,-3.3315,0.0,-3.4736,-3.4344,-3.4636,-3.4712,0.0,0.0,0.0,0.0,0.0,0.0,0.0,0.0,0.0,0.0,0.0,0.0,0.0,0.0,0.0,0.0,0.0,0.0,0.0,0.0,0.0,0.0,0.0,0.0,0.0,0.0,0.0,0.0,0.0,0.0,0.0,0.0,0.0,0.0,0.0,0.0,0.0,0.0,0.0,0.0,0.0,0.0,0.0,0.0,0.0,0.0,0.0,0.0,0.0,0.0,0.0,0.0,0.0,0.0,0.0,0.0,0.0,0.0,0.0,0.0,0.0,0.0,0.0,0.0,0.0,0.0,0.0,0.0,0.0,0.0,0.0,0.0,0.0,0.0,0.0,0.0,0.0,0.0,0.0,0.0,0.0,0.0,0.0,0.0,0.0,0.0,0.0,0.0,0.0,0.0,0.0,0.0,0.0,0.0,0.0,0.0,0.0,0.0,0.0,0.0,0.0,0.0,0.0,0.0,0.0,0.0,0.0,0.0,-3.369,-3.4639,-3.5316,-3.5487,-3.5227,-3.5453,-3.5281,0.0,0.0,0.0,0.0,0.0,0.0,0.0,0.0,0.0,0.0,0.0,0.0,0.0,0.0,0.0,0.0,0.0,0.0,0.0,0.0,0.0,0.0,0.0,0.0,0.0,0.0,0.0,0.0,0.0,0.0,0.0,0.0,0.0,0.0,0.0,0.0,0.0,0.0,0.0,0.0,0.0,0.0,0.0,0.0,0.0,0.0,0.0,0.0,0.0,0.0,0.0,0.0,0.0,0.0,0.0,0.0,0.0,0.0,0.0,0.0,0.0,0.0,0.0,0.0,0.0,0.0,0.0,0.0,0.0,0.0,0.0,0.0,0.0,0.0,0.0,0.0,0.0,0.0,0.0,0.0,0.0,0.0,0.0,0.0,0.0,0.0,0.0,0.0,0.0,0.0,0.0,0.0,0.0,0.0,0.0,0.0,0.0,0.0,0.0,0.0,0.0,0.0,0.0,0.0,0.0,0.0,0.0,0.0,0.0,-3.4527,-3.5233,-3.5564,-3.5423,-3.515,-3.4984,0.0,0.0,0.0,0.0,0.0,0.0,0.0,0.0,0.0,0.0,0.0,0.0,0.0,0.0,0.0,0.0,0.0,0.0,0.0,0.0,0.0,0.0,0.0,0.0,0.0,0.0,0.0,0.0,0.0,0.0,0.0,0.0,0.0,0.0,0.0,0.0,0.0,0.0,0.0,0.0,0.0,0.0,0.0,0.0,0.0,0.0,0.0,0.0,0.0,0.0,0.0,0.0,0.0,0.0,0.0,0.0,0.0,0.0,0.0,0.0,0.0,0.0,0.0,0.0,0.0,0.0,0.0,0.0,0.0,0.0,0.0,0.0,0.0,0.0,0.0,0.0,0.0,0.0,0.0,0.0,0.0,0.0,0.0,0.0,0.0,0.0,0.0,0.0,0.0,0.0,0.0,0.0,0.0,0.0,0.0,0.0,0.0,0.0,0.0,0.0,0.0,0.0,0.0,0.0,0.0,0.0,0.0,0.0,0.0,-3.6244,-3.6791,-3.6976,-3.6647,-3.6335,-3.5829,-3.5143,0.0,0.0,0.0,0.0,0.0,0.0,0.0,0.0,0.0,0.0,0.0,0.0,0.0,0.0,0.0,0.0,0.0,0.0,0.0,0.0,0.0,0.0,0.0,0.0,0.0,0.0,0.0,0.0,0.0,0.0,0.0,0.0,0.0,0.0,0.0,0.0,0.0,0.0,0.0,0.0,0.0,0.0,0.0,0.0,0.0,0.0,0.0,0.0,0.0,0.0,0.0,0.0,0.0,0.0,0.0,0.0,0.0,0.0,0.0,0.0,0.0,0.0,0.0,0.0,0.0,0.0,0.0,0.0,0.0,0.0,0.0,0.0,0.0,0.0,0.0,0.0,0.0,0.0,0.0,0.0,0.0,0.0,0.0,0.0,0.0,0.0,0.0,0.0,0.0,0.0,0.0,0.0,0.0,0.0,0.0,0.0,0.0,0.0,0.0,0.0,0.0,0.0,0.0,0.0,0.0,0.0,0.0,0.0,-3.9304,-3.9688,-3.9536,-3.874,-3.8641,-3.7572,0.0,0.0,0.0,0.0,0.0,0.0,0.0,0.0,0.0,0.0,0.0,0.0,0.0,0.0,0.0,0.0,0.0,0.0,0.0,0.0,0.0,0.0,0.0,0.0,0.0,0.0,0.0,0.0,0.0,0.0,0.0,0.0,0.0,0.0,0.0,0.0,0.0,0.0,0.0,0.0,0.0,0.0,0.0,0.0,0.0,0.0,0.0,0.0,0.0,0.0,0.0,0.0,0.0,0.0,0.0,0.0,0.0,0.0,0.0,0.0,0.0,0.0,0.0,0.0,0.0,0.0,0.0,0.0,0.0,0.0,0.0,0.0,0.0,0.0,0.0,0.0,0.0,0.0,0.0,0.0,0.0,0.0,0.0,0.0,0.0,0.0,0.0,0.0,0.0,0.0,0.0,0.0,0.0,0.0,0.0,0.0,0.0,0.0,0.0,0.0,0.0,0.0,0.0,0.0,0.0,0.0,0.0,0.0,0.0,-4.0644,-4.1813,-4.1815,-4.0461,-3.8783,-3.7628,0.0,0.0,0.0,0.0,0.0,0.0,0.0,0.0,0.0,0.0,0.0,0.0,0.0,0.0,0.0,0.0,0.0,0.0,0.0,0.0,0.0,0.0,0.0,0.0,0.0,0.0,0.0,0.0,0.0,0.0,0.0,0.0,0.0,0.0,0.0,0.0,0.0,0.0,0.0,0.0,0.0,0.0,0.0,0.0,0.0,0.0,0.0,0.0,0.0,0.0,0.0,0.0,0.0,0.0,0.0,0.0,0.0,0.0,0.0,0.0,0.0,0.0,0.0,0.0,0.0,0.0,0.0,0.0,0.0,0.0,0.0,0.0,0.0,0.0,0.0,0.0,0.0,0.0,0.0,0.0,0.0,0.0,0.0,0.0,0.0,0.0,0.0,0.0,0.0,0.0,0.0,0.0,0.0,0.0,0.0,0.0,0.0,0.0,0.0,0.0,0.0,0.0,0.0,0.0,0.0,0.0,0.0,0.0,-4.0052,-4.0869,-4.3144,-4.3693,-4.2338,-4.0359,-3.8784,0.0,0.0,0.0,0.0,0.0,0.0,0.0,0.0,0.0,0.0,0.0,0.0,0.0,0.0,0.0,0.0,0.0,0.0,0.0,0.0,0.0,0.0,0.0,0.0,0.0,0.0,0.0,0.0,0.0,0.0,0.0,0.0,0.0,0.0,0.0,0.0,0.0,0.0,0.0,0.0,0.0,0.0,0.0,0.0,0.0,0.0,0.0,0.0,0.0,0.0,0.0,0.0,0.0,0.0,0.0,0.0,0.0,0.0,0.0,0.0,0.0,0.0,0.0,0.0,0.0,0.0,0.0,0.0,0.0,0.0,0.0,0.0,0.0,0.0,0.0,0.0,0.0,0.0,0.0,0.0,0.0,0.0,0.0,0.0,0.0,0.0,0.0,0.0,0.0,0.0,0.0,0.0,0.0,0.0,0.0,0.0,0.0,0.0,0.0,0.0,0.0,0.0,0.0,0.0,0.0,0.0,0.0,0.0,-4.0807,-4.0533,-4.3762,-4.501,-4.4,-4.2363,-4.0398,0.0,0.0,0.0,0.0,0.0,0.0,0.0,0.0,0.0,0.0,0.0,0.0,0.0,0.0,0.0,0.0,0.0,0.0,0.0,0.0,0.0,0.0,0.0,0.0,0.0,0.0,0.0,0.0,0.0,0.0,0.0,0.0,0.0,0.0,0.0,0.0,0.0,0.0,0.0,0.0,0.0,0.0,0.0,0.0,0.0,0.0,0.0,0.0,0.0,0.0,0.0,0.0,0.0,0.0,0.0,0.0,0.0,0.0,0.0,0.0,0.0,0.0,0.0,0.0,0.0,0.0,0.0,0.0,0.0,0.0,0.0,0.0,0.0,0.0,0.0,0.0,0.0,0.0,0.0,0.0,0.0,0.0,0.0,0.0,0.0,0.0,0.0,0.0,0.0,0.0,0.0,0.0,0.0,0.0,0.0,0.0,0.0,0.0,0.0,0.0,0.0,0.0,0.0,0.0,0.0,0.0,0.0,0.0,-4.0513,-4.1143,-4.3478,-4.4523,-4.4085,-4.1812,-4.0289,0.0,0.0,0.0,0.0,0.0,0.0,0.0,0.0,0.0,0.0,0.0,0.0,0.0,0.0,0.0,0.0,0.0,0.0,0.0,0.0,0.0,0.0,0.0,0.0,0.0,0.0,0.0,0.0,0.0,0.0,0.0,0.0,0.0,0.0,0.0,0.0,0.0,0.0,0.0,0.0,0.0,0.0,0.0,0.0,0.0,0.0,0.0,0.0,-4.1512,0.0,0.0,0.0,0.0,0.0,0.0,0.0,0.0,0.0,0.0,0.0,0.0,0.0,0.0,0.0,0.0,0.0,0.0,0.0,0.0,0.0,0.0,0.0,0.0,0.0,0.0,0.0,0.0,0.0,0.0,0.0,0.0,0.0,0.0,0.0,0.0,0.0,0.0,0.0,0.0,0.0,0.0,0.0,0.0,0.0,0.0,0.0,0.0,0.0,0.0,0.0,0.0,0.0,0.0,0.0,0.0,0.0,0.0,0.0,-4.0369,-4.0875,-4.2856,-4.3808,-4.3494,-4.1757,-4.0592,0.0,0.0,0.0,0.0,0.0,0.0,0.0,0.0,0.0,0.0,0.0,0.0,0.0,0.0,0.0,0.0,0.0,0.0,0.0,0.0,0.0,0.0,0.0,0.0,0.0,0.0,0.0,0.0,0.0,0.0,0.0,0.0,0.0,0.0,0.0,0.0,0.0,0.0,0.0,0.0,0.0,0.0,0.0,0.0,0.0,0.0,0.0,0.0,0.0,0.0,0.0,0.0,0.0,0.0,0.0,0.0,0.0,0.0,0.0,0.0,0.0,0.0,0.0,0.0,0.0,0.0,0.0,0.0,0.0,0.0,0.0,0.0,0.0,0.0,0.0,0.0,0.0,0.0,0.0,0.0,0.0,0.0,0.0,0.0,0.0,0.0,0.0,0.0,0.0,0.0,0.0,0.0,0.0,0.0,0.0,0.0,0.0,0.0,0.0,0.0,0.0,0.0,0.0,0.0,0.0,0.0,0.0,-3.9319,-4.0217,-4.0467,-4.2186,-4.305,-4.2912,-4.207,-4.1189,-4.0267,0.0,0.0,0.0,0.0,0.0,0.0,0.0,0.0,0.0,0.0,0.0,0.0,0.0,0.0,0.0,0.0,0.0,0.0,0.0,0.0,0.0,0.0,0.0,0.0,0.0,0.0,0.0,0.0,0.0,0.0,0.0,0.0,0.0,0.0,0.0,0.0,0.0,0.0,-3.7363,-3.8833,0.0,0.0,0.0,0.0,0.0,0.0,0.0,0.0,-4.1964,0.0,0.0,0.0,0.0,0.0,0.0,0.0,0.0,0.0,0.0,0.0,0.0,0.0,0.0,0.0,0.0,0.0,0.0,0.0,0.0,0.0,0.0,0.0,0.0,0.0,0.0,0.0,0.0,0.0,0.0,0.0,0.0,0.0,0.0,0.0,0.0,0.0,0.0,0.0,0.0,0.0,0.0,0.0,0.0,0.0,0.0,0.0,0.0,0.0,0.0,0.0,0.0,0.0,0.0,0.0,0.0,-3.8327,-3.9023,-3.9876,-4.0859,-4.1848,-4.2582,-4.2957,-4.2749,-4.1956,-4.0482,0.0,0.0,0.0,0.0,0.0,0.0,0.0,0.0,0.0,0.0,0.0,0.0,0.0,0.0,0.0,0.0,0.0,0.0,0.0,0.0,0.0,0.0,0.0,0.0,0.0,0.0,0.0,0.0,0.0,0.0,0.0,0.0,0.0,0.0,0.0,0.0,0.0,0.0,0.0,-4.0077,-4.082,0.0,0.0,0.0,0.0,0.0,0.0,0.0,0.0,-4.3304,0.0,0.0,0.0,0.0,0.0,0.0,0.0,0.0,0.0,0.0,0.0,0.0,0.0,0.0,0.0,0.0,0.0,0.0,0.0,0.0,0.0,0.0,0.0,0.0,0.0,0.0,0.0,0.0,0.0,0.0,0.0,0.0,0.0,0.0,0.0,0.0,0.0,0.0,0.0,0.0,0.0,0.0,0.0,0.0,0.0,0.0,0.0,0.0,0.0,0.0,0.0,0.0,0.0,0.0,0.0,-3.849,-3.923,-4.0059,-4.0957,-4.1405,-4.1878,-4.24,-4.1929,-4.1116,0.0,0.0,0.0,0.0,0.0,0.0,0.0,0.0,0.0,0.0,0.0,0.0,0.0,0.0,0.0,0.0,0.0,0.0,0.0,0.0,0.0,0.0,0.0,0.0,0.0,0.0,0.0,0.0,0.0,0.0,0.0,0.0,0.0,0.0,0.0,0.0,0.0,0.0,0.0,0.0,-4.1863,-4.27,-4.3144,0.0,0.0,0.0,0.0,0.0,0.0,-4.3721,-4.3453,0.0,0.0,0.0,0.0,0.0,0.0,0.0,0.0,0.0,0.0,0.0,0.0,0.0,0.0,0.0,0.0,0.0,0.0,0.0,0.0,0.0,0.0,0.0,0.0,0.0,0.0,0.0,0.0,0.0,0.0,0.0,0.0,0.0,0.0,0.0,0.0,0.0,0.0,0.0,0.0,0.0,0.0,0.0,0.0,0.0,0.0,0.0,0.0,0.0,0.0,0.0,0.0,0.0,0.0,0.0,-3.8532,-3.9471,-4.0303,-4.0974,-4.105,-4.1351,-4.1897,-4.1042,-4.0214,0.0,0.0,0.0,0.0,0.0,0.0,0.0,0.0,0.0,0.0,0.0,0.0,0.0,0.0,0.0,0.0,0.0,0.0,0.0,0.0,0.0,0.0,0.0,0.0,0.0,0.0,0.0,0.0,0.0,0.0,0.0,0.0,0.0,0.0,0.0,0.0,0.0,0.0,0.0,0.0,0.0,-4.4398,-4.4758,-4.4524,0.0,0.0,0.0,0.0,-4.4321,-4.4066,0.0,0.0,0.0,0.0,0.0,0.0,0.0,0.0,0.0,0.0,0.0,0.0,0.0,0.0,0.0,0.0,0.0,0.0,0.0,0.0,0.0,0.0,0.0,0.0,0.0,0.0,0.0,0.0,0.0,0.0,0.0,0.0,0.0,0.0,0.0,0.0,0.0,0.0,0.0,0.0,0.0,0.0,0.0,0.0,0.0,0.0,0.0,0.0,0.0,0.0,0.0,0.0,0.0,0.0,0.0,0.0,-3.8583,-3.9392,-4.0204,-4.0939,-4.1015,-4.1367,-4.2041,-4.1286,-4.0427,0.0,0.0,0.0,0.0,0.0,0.0,0.0,0.0,0.0,0.0,0.0,0.0,0.0,0.0,0.0,0.0,0.0,0.0,0.0,0.0,0.0,0.0,0.0,0.0,0.0,0.0,0.0,0.0,0.0,0.0,0.0,0.0,0.0,0.0,0.0,0.0,0.0,0.0,0.0,0.0,0.0,-4.4762,-4.4656,-4.4838,-4.4485,0.0,0.0,-4.5466,-4.5752,-4.6473,0.0,0.0,0.0,0.0,0.0,0.0,0.0,0.0,0.0,0.0,0.0,0.0,0.0,0.0,0.0,0.0,0.0,0.0,0.0,0.0,0.0,0.0,0.0,0.0,0.0,0.0,0.0,0.0,0.0,0.0,0.0,0.0,0.0,0.0,0.0,0.0,0.0,0.0,0.0,0.0,0.0,0.0,0.0,0.0,0.0,0.0,0.0,0.0,0.0,0.0,0.0,0.0,0.0,0.0,0.0,-3.8156,-3.855,-3.9719,-4.0508,-4.0889,-4.1013,-4.119,-4.1464,-4.0623,-3.9742,0.0,0.0,0.0,0.0,0.0,0.0,0.0,0.0,0.0,0.0,0.0,0.0,0.0,0.0,0.0,0.0,0.0,0.0,0.0,0.0,0.0,0.0,0.0,0.0,0.0,0.0,0.0,0.0,0.0,0.0,0.0,0.0,0.0,0.0,0.0,0.0,0.0,0.0,0.0,0.0,0.0,0.0,-4.5219,-4.5736,0.0,0.0,0.0,-4.5538,-4.5249,0.0,0.0,0.0,0.0,0.0,0.0,0.0,0.0,0.0,0.0,0.0,0.0,0.0,0.0,0.0,0.0,0.0,0.0,0.0,0.0,0.0,0.0,0.0,0.0,0.0,0.0,0.0,0.0,0.0,0.0,0.0,0.0,0.0,0.0,0.0,0.0,0.0,0.0,0.0,0.0,0.0,0.0,0.0,0.0,0.0,0.0,0.0,0.0,0.0,0.0,0.0,0.0,0.0,0.0,0.0,0.0,0.0,-3.8568,-3.9952,-4.0721,-4.0836,-4.1019,-4.1071,-4.1025,-4.0332,0.0,0.0,0.0,0.0,0.0,0.0,0.0,0.0,0.0,0.0,0.0,0.0,0.0,0.0,0.0,0.0,0.0,0.0,0.0,0.0,0.0,0.0,0.0,0.0,0.0,0.0,0.0,-3.8609,0.0,0.0,0.0,0.0,0.0,0.0,0.0,0.0,0.0,0.0,0.0,0.0,0.0,0.0,-4.6428,-4.551,-4.624,-4.658,0.0,0.0,-4.5626,-4.5397,-4.668,-4.7216,0.0,0.0,0.0,0.0,0.0,0.0,0.0,0.0,0.0,0.0,0.0,0.0,0.0,0.0,0.0,0.0,0.0,0.0,0.0,0.0,0.0,0.0,0.0,0.0,0.0,0.0,0.0,0.0,0.0,0.0,0.0,0.0,0.0,0.0,0.0,0.0,0.0,0.0,0.0,0.0,0.0,0.0,0.0,0.0,0.0,0.0,0.0,0.0,0.0,0.0,0.0,0.0,0.0,0.0,-3.8319,-3.8725,-3.989,-4.0641,-4.0889,-4.1027,-4.1108,-4.1094,-4.0954,-4.0103,0.0,0.0,0.0,0.0,0.0,0.0,0.0,0.0,0.0,0.0,0.0,0.0,0.0,0.0,0.0,0.0,0.0,0.0,0.0,0.0,0.0,0.0,0.0,0.0,0.0,0.0,0.0,0.0,0.0,0.0,0.0,0.0,0.0,0.0,0.0,0.0,0.0,0.0,0.0,0.0,0.0,-4.5588,-4.5108,-4.5884,-4.6599,0.0,-4.6467,-4.6539,-4.7363,-4.8458,-4.8724,-4.7198,0.0,0.0,0.0,0.0,0.0,0.0,0.0,0.0,0.0,0.0,0.0,0.0,0.0,0.0,0.0,0.0,0.0,0.0,0.0,0.0,0.0,0.0,0.0,0.0,0.0,0.0,0.0,0.0,0.0,0.0,0.0,0.0,0.0,0.0,0.0,0.0,0.0,0.0,0.0,0.0,0.0,0.0,0.0,0.0,0.0,0.0,0.0,0.0,0.0,0.0,0.0,0.0,0.0,-3.8288,-3.859,-3.9814,-4.0545,-4.077,-4.0909,-4.1005,-4.1107,-4.0996,-4.0071,0.0,0.0,0.0,0.0,0.0,0.0,0.0,0.0,0.0,0.0,0.0,0.0,0.0,0.0,0.0,0.0,0.0,0.0,0.0,0.0,0.0,0.0,0.0,0.0,0.0,0.0,0.0,0.0,-3.8507,-3.8553,-3.9611,0.0,0.0,0.0,0.0,0.0,0.0,0.0,0.0,0.0,0.0,-4.547,-4.5392,-4.6118,0.0,0.0,-4.642,-4.6433,-4.661,-4.7415,-4.7597,-4.6468,-4.6327,0.0,0.0,0.0,0.0,0.0,0.0,0.0,0.0,0.0,0.0,0.0,0.0,0.0,0.0,0.0,0.0,0.0,0.0,0.0,0.0,0.0,0.0,0.0,0.0,0.0,0.0,0.0,0.0,0.0,0.0,0.0,0.0,0.0,0.0,0.0,0.0,0.0,0.0,0.0,0.0,0.0,0.0,0.0,0.0,0.0,0.0,0.0,0.0,0.0,0.0,0.0,0.0,-3.8303,-3.8551,-3.9755,-4.0501,-4.0686,-4.0839,-4.0961,-4.1044,-4.1014,-4.0201,0.0,0.0,0.0,0.0,0.0,0.0,0.0,0.0,0.0,0.0,0.0,0.0,0.0,0.0,0.0,0.0,0.0,0.0,0.0,0.0,0.0,0.0,0.0,0.0,0.0,0.0,0.0,0.0,-3.9389,-3.9651,-4.1127,0.0,0.0,0.0,0.0,0.0,0.0,0.0,0.0,0.0,0.0,-4.5264,-4.524,-4.5779,-4.6065,-4.5972,-4.5888,-4.5913,-4.6044,-4.6521,-4.6533,-4.5581,0.0,0.0,0.0,0.0,0.0,0.0,0.0,0.0,0.0,0.0,0.0,0.0,0.0,0.0,0.0,0.0,0.0,0.0,0.0,0.0,0.0,0.0,0.0,0.0,0.0,0.0,0.0,0.0,0.0,0.0,-3.408,0.0,0.0,0.0,0.0,0.0,0.0,0.0,0.0,0.0,0.0,0.0,0.0,0.0,0.0,0.0,0.0,0.0,0.0,0.0,0.0,0.0,0.0,-3.8352,-3.8688,-3.9803,-4.0487,-4.0694,-4.0825,-4.0933,-4.0998,-4.1042,-4.0645,-3.9672,0.0,0.0,0.0,0.0,0.0,0.0,0.0,0.0,0.0,0.0,0.0,0.0,0.0,0.0,0.0,0.0,0.0,0.0,0.0,0.0,0.0,0.0,0.0,0.0,0.0,0.0,-4.2116,-4.1033,-4.047,0.0,0.0,0.0,0.0,0.0,0.0,0.0,0.0,0.0,0.0,-4.4184,-4.4847,-4.4489,-4.4573,-4.4861,-4.5262,-4.4944,-4.5004,-4.6006,-4.6238,-4.5905,0.0,0.0,0.0,0.0,0.0,0.0,0.0,0.0,0.0,0.0,0.0,0.0,0.0,0.0,0.0,0.0,0.0,0.0,0.0,0.0,0.0,0.0,0.0,0.0,0.0,0.0,0.0,-3.8697,-3.7607,0.0,0.0,0.0,0.0,0.0,0.0,0.0,0.0,0.0,0.0,0.0,-3.7649,-3.7723,0.0,0.0,0.0,0.0,0.0,0.0,0.0,0.0,0.0,0.0,0.0,0.0,-3.8303,-3.865,-3.964,-4.0262,-4.0561,-4.0756,-4.0854,-4.0926,-4.1003,-4.0584,-3.9652,0.0,0.0,0.0,0.0,0.0,0.0,0.0,0.0,0.0,0.0,0.0,0.0,0.0,0.0,0.0,0.0,0.0,0.0,0.0,0.0,0.0,0.0,0.0,0.0,0.0,-4.1595,0.0,0.0,0.0,0.0,0.0,0.0,0.0,0.0,0.0,0.0,0.0,-4.2707,-4.3464,-4.3729,-4.401,-4.4352,-4.452,-4.4698,0.0,0.0,0.0,0.0,0.0,0.0,0.0,0.0,0.0,0.0,0.0,0.0,0.0,0.0,-4.3829,-4.3987,-4.394,-4.3937,-4.4139,0.0,0.0,0.0,0.0,0.0,0.0,0.0,0.0,0.0,0.0,0.0,0.0,0.0,0.0,-3.9618,0.0,-3.7954,0.0,0.0,0.0,0.0,0.0,0.0,0.0,0.0,-3.8594,-3.9049,-3.9179,-3.9161,-3.8735,0.0,-3.7251,-3.64,0.0,0.0,0.0,0.0,0.0,0.0,0.0,0.0,-3.8245,-3.8582,-3.9206,-3.9833,-4.0396,-4.0305,-4.0428,-4.0766,-4.0849,-4.0485,-3.9612,-3.9178,-3.8607,0.0,0.0,0.0,0.0,0.0,0.0,0.0,0.0,0.0,0.0,0.0,0.0,0.0,0.0,0.0,0.0,0.0,0.0,0.0,0.0,0.0,0.0,0.0,-4.176,0.0,0.0,0.0,0.0,0.0,0.0,0.0,0.0,0.0,-4.2658,-4.2532,-4.2712,-4.3569,-4.3588,-4.365,-4.3975,0.0,0.0,0.0,0.0,0.0,0.0,0.0,-4.3959,-4.3543,-4.3664,-4.378,-4.3756,-4.3673,-4.3553,-4.3553,0.0,0.0,-4.3713,-4.3689,-4.3693,-4.388,-4.3728,-4.3541,-4.3565,-4.3465,-4.3395,0.0,0.0,0.0,0.0,0.0,0.0,0.0,0.0,-4.0801,-4.004,0.0,-3.9129,0.0,0.0,0.0,0.0,0.0,-3.7644,0.0,0.0,-4.07,-4.1471,-4.0801,-4.0748,-4.0359,-3.9615,-3.9164,-3.8307,-3.7025,-3.6365,0.0,0.0,0.0,0.0,0.0,0.0,-3.8214,-3.8453,-3.8653,-3.9223,-4.0177,-3.9596,-3.9675,-4.0558,-4.0655,-4.0343,-3.9693,-4.0153,-3.9762,-3.8273,-3.9412,0.0,0.0,0.0,0.0,0.0,0.0,0.0,0.0,0.0,0.0,0.0,0.0,0.0,0.0,0.0,0.0,0.0,0.0,0.0,0.0,-4.1795,0.0,0.0,0.0,0.0,0.0,0.0,0.0,0.0,0.0,0.0,-4.2791,-4.2764,-4.2926,-4.3312,0.0,0.0,0.0,0.0,-4.3303,-4.294,-4.2843,-4.2938,-4.3196,-4.3329,-4.3239,-4.2745,0.0,0.0,-4.3636,-4.3399,-4.3214,-4.3232,-4.2646,-4.2634,-4.4036,-4.3631,-4.3392,-4.3994,-4.3487,-4.3079,-4.3061,-4.2955,-4.2745,-4.2023,0.0,0.0,0.0,0.0,-4.1161,-4.1445,-4.1936,-4.1611,-4.0965,-4.014,-4.0057,0.0,0.0,0.0,0.0,0.0,0.0,-3.8784,-3.9877,-4.0584,-4.0781,-4.0588,-4.0591,-4.0165,-3.937,-3.8708,-3.8175,-3.7777,-3.7217,-3.6816,-3.6585,0.0,0.0,0.0,0.0,-3.7751,-3.7852,-3.8771,-3.9247,-3.9157,-3.9658,-4.0082,-4.0465,-4.048,-4.0393,-4.0249,-4.0414,-4.0246,-3.969,-3.999,0.0,0.0,0.0,0.0,0.0,0.0,0.0,0.0,0.0,0.0,0.0,0.0,0.0,0.0,0.0,0.0,0.0,0.0,0.0,-4.2485,-4.1268,-4.1088,0.0,0.0,0.0,0.0,0.0,0.0,0.0,0.0,0.0,-4.276,-4.2542,-4.2499,0.0,0.0,-4.2745,-4.2596,-4.2312,-4.2166,-4.2176,-4.1758,0.0,-4.2023,-4.2031,-4.1947,-4.1811,-4.1933,-4.2066,-4.198,-4.1963,-4.194,-4.1967,-4.1765,-4.1722,-4.1894,-4.1904,-4.2015,-4.254,-4.2105,-4.1805,-4.221,-4.1921,-4.1527,-4.192,-4.1541,-4.1386,-4.1441,-4.1564,-4.136,-4.1623,-4.2214,-4.2122,-4.1595,-4.0835,-4.0974,-4.0088,-3.8472,-3.8225,0.0,0.0,0.0,-3.9159,-3.9752,-4.0018,-3.9978,-3.9655,-3.9647,-3.9447,-3.9033,-3.8587,-3.8244,-3.7988,-3.7574,-3.7085,-3.6582,0.0,0.0,-3.6993,-3.7469,-3.7759,-3.7838,-3.8215,-3.8618,-3.902,-3.9716,-4.0148,-4.0236,-4.0238,-4.0283,-4.0367,-4.0307,-4.0229,-4.0139,-3.9993,-3.9526,0.0,0.0,0.0,0.0,0.0,0.0,0.0,0.0,0.0,0.0,0.0,-3.908,-3.9209,0.0,0.0,0.0,-4.0799,-4.1536,-4.1898,-4.1056,0.0,0.0,0.0,0.0,0.0,0.0,0.0,-4.2123,-4.1637,-4.1454,-4.1929,-4.1532,-4.1479,-4.2295,-4.2071,-4.1811,-4.1787,0.0,-4.1198,-4.1316,-4.0974,-4.0825,-4.1171,-4.1274,-4.1304,-4.1415,-4.1384,-4.1278,-4.1194,-4.1211,-4.121,-4.1062,-4.0836,-4.0541,-4.0252,-4.0037,-4.0254,-4.1216,-4.1118,-4.0971,-4.1379,-4.1029,-4.0743,-4.1827,-4.1495,-4.1195,-4.1354,-4.1795,-4.1538,-4.174,-4.2277,-4.2231,-4.1861,-4.132,-4.1715,-4.1097,-3.966,-3.9255,0.0,-3.8816,-3.9455,-3.9283,-3.8577,-3.9187,-3.902,-3.8185,-3.8231,-3.8276,-3.8249,-3.8394,-3.8157,-3.7586,-3.7395,-3.6995,-3.6339,-3.693,-3.7087,-3.6836,-3.7398,-3.7871,-3.815,-3.7216,-3.7567,-3.9233,-3.9584,-3.977,-3.9837,-3.991,-4.0008,-4.012,-3.9958,-3.9862,-3.9838,-3.9621,-3.9452,-3.9305,0.0,0.0,0.0,0.0,0.0,0.0,0.0,0.0,0.0,0.0,0.0,0.0,0.0,0.0,0.0,-3.9132,0.0,-4.0428,-4.0869,0.0,0.0,0.0,-4.1346,-4.0342,-4.0348,-4.056,-4.0917,0.0,0.0,-4.0596,-3.9975,-4.0037,-4.1579,-4.1325,-4.0967,-4.0828,-4.046,-4.0223,-4.0129,-4.0134,-4.0175,-4.0285,-4.0611,-4.0851,-4.0978,-4.1187,-4.0925,-4.0598,-4.0545,-4.0482,-4.0047,-3.9619,-3.9111,-3.8803,-3.8245,-3.8277,-3.9812,-4.0162,-4.0256,-4.0353,-4.0286,-4.0056,-4.1059,-4.0978,-4.0792,-4.0933,-4.1209,-4.1449,-4.1464,-4.1333,-4.1418,-4.1331,-4.1163,-4.1288,-4.0556,-3.9284,-3.8545,-3.8127,-3.7993,-3.8156,-3.8163,-3.8074,-3.8221,-3.7874,-3.7097,-3.7103,-3.6581,-3.5672,-3.566,-3.5723,-3.58,-3.5759,-3.5984,-3.6426,-3.6626,-3.6673,-3.6623,-3.6304,-3.647,-3.7076,-3.645,-3.649,-3.7277,-3.8041,-3.8459,-3.8483,-3.9127,-3.9495,-3.958,-3.9532,-3.9464,-3.9371,-3.9452,-3.9203,-3.8606,-3.864,0.0,0.0,0.0,0.0,0.0,0.0,0.0,0.0,0.0,-3.8547,-3.8886,0.0,-4.0656,0.0,-3.8569,-3.8384,-3.956,-3.8968,0.0,0.0,-4.0183,-3.9757,-3.8947,-3.8886,-3.8918,-3.8925,-3.8735,-3.8859,-3.9422,-3.8835,-3.8525,-3.8928,-3.968,-3.9968,-3.9337,-3.8803,-3.8347,-3.7928,-3.7465,-3.7396,-3.8288,-3.9027,-3.9439,-3.9435,-3.9212,-3.8808,-3.8149,-3.7939,-3.7705,-3.7245,-3.703,-3.6819,-3.6646,-3.6826,-3.7141,-3.7406,-3.7969,-3.8691,-3.9221,-3.9124,-3.8804,-3.9931,-3.9515,-3.9545,-3.9497,-3.9453,-4.0573,-4.096,-4.0802,-4.0457,-4.0289,-4.0229,-3.9727,-3.9047,-3.8242,-3.7831,-3.7412,-3.7062,-3.7364,-3.7179,-3.6575,-3.6494,-3.6044,-3.5215,-3.5013,-3.4561,-3.3912,-3.402,-3.4172,-3.4384,-3.4401,-3.4644,-3.5118,-3.558,-3.5776,-3.5766,-3.6028,-3.6246,-3.6345,-3.5977,-3.5805,-3.5828,-3.673,-3.7294,-3.7539,-3.7688,-3.7924,-3.8196,-3.819,-3.8147,-3.8118,-3.8479,-3.8484,-3.8077,-3.8129,-3.8015,0.0,0.0,0.0,0.0,0.0,0.0,0.0,0.0,0.0,0.0,0.0,-3.9807,-3.98,-3.821,-3.7784,-3.9309,-3.8621,-3.8284,-3.8661,-3.862,-3.806,-3.6968,-3.6929,-3.7011,-3.7141,-3.6625,-3.6484,-3.7033,-3.6348,-3.5808,-3.5891,-3.6564,-3.7172,-3.7469,-3.7026,-3.6427,-3.6109,-3.5824,-3.5831,-3.6506,-3.703,-3.7388,-3.7371,-3.7273,-3.6977,-3.6458,-3.6282,-3.6099,-3.5677,-3.5625,-3.5597,-3.5391,-3.5772,-3.6086,-3.5922,-3.6289,-3.7125,-3.808,-3.7876,-3.7454,-3.8629,-3.7807,-3.7997,-3.7759,-3.737,-3.9117,-4.0005,-4.0117,-3.934,-3.8996,-3.8914,-3.7806,-3.7153,-3.6903,-3.6912,-3.6554,-3.5998,-3.6596,-3.6074,-3.4688,-3.4543,-3.4028,-3.3181,-3.2751,-3.258,-3.263,-3.2849,-3.3026,-3.3136,-3.3157,-3.3229,-3.3368,-3.424,-3.4644,-3.4597,-3.585,-3.6141,-3.5414,-3.5427,-3.515,-3.4527,-3.54,-3.6109,-3.6524,-3.6061,-3.5996,-3.6457,-3.6593,-3.6616,-3.6618,-3.727,-3.7648,-3.7613,-3.7542,-3.7505,0.0,-3.7206,0.0,0.0,0.0,0.0,0.0,0.0,0.0,0.0,-3.8267,-3.8595,-3.9093,-3.7603,-3.7192,-3.856,-3.8184,-3.7495,-3.6671,-3.6563,-3.6005,-3.4659,-3.4571,-3.4745,-3.5045,-3.4149,-3.3675,-3.405,-3.3228,-3.265,-3.2747,-3.2766,-3.3333,-3.4769,-3.4724,-3.4488,-3.4447,-3.4679,-3.4722,-3.4743,-3.4924,-3.5221,-3.5379,-3.5525,-3.5461,-3.5221,-3.5149,-3.5018,-3.4698,-3.4679,-3.471,-3.4516,-3.4845,-3.5081,-3.4911,-3.5222,-3.5865,-3.6782,-3.6732,-3.6308,-3.7328,-3.7236,-3.7085,-3.6933,-3.6821,-3.699,-3.7399,-3.7944,-3.7964,-3.792,-3.7748,-3.6736,-3.6117,-3.5835,-3.5276,-3.4833,-3.4512,-3.4626,-3.4251,-3.3461,-3.3299,-3.2822,-3.2103,-3.191,-3.1546,-3.1135,-3.118,-3.1383,-3.1698,-3.1807,-3.2235,-3.2998,-3.3414,-3.3605,-3.3651,0.0,0.0,0.0,-3.3547,-3.363,-3.2935,-3.3659,-3.419,-3.4402,-3.4846,0.0,-3.5415,-3.597,-3.6221,-3.6113,-3.7041,0.0,0.0,0.0,0.0,0.0,0.0,0.0,0.0,0.0,0.0,0.0,-3.6095,-3.5547,-3.5889,-3.637,-3.6547,-3.6227,-3.555,-3.4909,-3.4422,-3.3755,-3.3559,-3.399,-3.3228,-3.2532,-3.2246,-3.1997,-3.1638,-3.1211,-3.1377,-3.1461,-3.1221,-3.0643,-3.0156,-2.9879,-2.9273,-2.9247,-3.0095,-3.1513,-3.2185,-3.1882,-3.2456,-3.2796,-3.2429,-3.2958,-3.3548,-3.4129,-3.4246,-3.4191,-3.4036,-3.3882,-3.3622,-3.3175,-3.3091,-3.3205,-3.34,-3.3885,-3.4301,-3.4416,-3.4884,-3.5401,-3.571,-3.5675,-3.5524,-3.5887,0.0,-3.5484,-3.5417,0.0,-3.5202,-3.5103,-3.5186,-3.6158,-3.6307,-3.586,-3.4972,-3.4685,-3.4781,-3.3616,-3.3234,-3.3483,-3.3063,-3.2659,-3.2361,-3.1951,-3.1574,-3.1204,-3.0851,-3.0521,-3.0213,-3.0248,-3.0344,-3.0543,-3.0631,-3.0899,-3.1391,-3.1994,-3.2383,-3.25,-3.2554,-3.2559,-3.2539,-3.2791,-3.2721,-3.2404,-3.3143,-3.3741,-3.4146,0.0,0.0,0.0,0.0,0.0,0.0,0.0,0.0,0.0,0.0,0.0,-3.6343,-3.6118,-3.6105,-3.6293,-3.5338,-3.5069,-3.5855,-3.4695,-3.4224,-3.489,-3.5053,-3.4986,-3.4706,-3.4055,-3.342,-3.3033,-3.2376,-3.2055,-3.2318,-3.1802,-3.1325,-3.0909,-3.0672,-3.0314,-2.9792,-2.9571,-2.9306,-2.892,-2.8361,-2.7974,-2.7751,-2.7533,-2.7375,-2.7584,-2.8956,-2.9978,-2.9961,-3.021,-3.0468,-3.0404,-3.073,-3.1466,-3.2189,-3.2441,-3.2496,-3.2566,-3.2761,-3.2718,-3.2156,-3.2041,-3.2257,-3.2664,-3.2966,-3.3249,-3.3698,-3.4072,-3.4309,-3.4383,-3.4522,-3.4547,-3.4481,-3.3933,-3.3908,-3.3882,-3.3857,-3.3704,-3.3303,-3.2867,0.0,0.0,0.0,-3.3129,-3.3145,-3.3557,-3.2216,-3.1991,-3.2594,-3.1919,-3.1542,-3.1414,-3.0846,-3.0526,-3.0343,-2.9797,-2.957,-2.957,-2.9627,-2.9639,-2.9639,-2.9587,-2.955,-2.9642,-3.0326,-3.0874,-3.1083,-3.101,-3.1416,-3.2303,-3.1914,-3.1673,-3.176,-3.2371,-3.3014,-3.3706,-3.3535,-3.3781,-3.4441,-3.4008,-3.3731,-3.3748,-3.4435,-3.4789,-3.4727,-3.5372,-3.5638,-3.5406,-3.5165,-3.5101,-3.5243,-3.4266,-3.3825,-3.4164,-3.3345,-3.3192,-3.4149,-3.3864,-3.3606,-3.3456,-3.262,-3.2101,-3.2179,-3.1634,-3.1206,-3.1087,-3.0915,-3.0526,-2.9894,-2.9745,-2.9392,-2.8733,-2.8078,-2.7453,-2.6922,-2.6451,-2.6064,-2.6032,-2.6209,-2.6348,-2.6216,-2.7243,-2.8253,-2.8387,-2.8475,-2.8421,-2.8456,-2.8702,-2.926,-3.0363,-3.0731,-3.0967,-3.142,-3.1946,-3.2081,-3.1716,-3.1624,-3.1925,-3.2326,-3.2427,-3.2494,-3.3156,-3.3293,-3.3293,-3.3314,-3.352,-3.3637,-3.3303,-3.3319,-3.3066,-3.2991,-3.2949,-3.2711,-3.2482,-3.2289,-3.2181,-3.2136,-3.2152,-3.1911,-3.1863,-3.1943,-3.1702,-3.167,-3.1774,-3.1654,-3.1302,0.0,-3.0536,-3.0083,-2.9487,-2.9153,-2.8997,-2.9013,-2.902,-2.902,-2.898,-2.8678,-2.8547,-2.8581,-2.8509,-2.8725,-2.9175,-2.9277,-2.9423,-2.9563,-2.9551,-2.9536,-2.9536,-2.9601,-3.0009,-3.0728,-3.0662,-3.0925,-3.1712,-3.2114,-3.2319,-3.2319,-3.301,-3.344,-3.3541,-3.3545,-3.3549,-3.3467,-3.309,-3.2948,-3.3186,-3.2631,-3.24,-3.2679,-3.2432,-3.2432,-3.2643,-3.2448,-3.2054,-3.1486,-3.0785,-3.0202,-2.9831,-2.95,-2.9553,-3.0031,-2.9457,-2.8893,-2.8675,-2.8451,-2.7841,-2.6511,-2.6544,-2.6405,-2.5434,-2.5101,-2.4909,-2.4593,-2.4872,-2.4818,-2.526,-2.6215,-2.6876,-2.6826,-2.7124,-2.7263,-2.7153,-2.7132,-2.7942,-2.9136,-2.9778,-3.0391,-3.1245,-3.1746,-3.1903,-3.1853,-3.1809,-3.21,-3.2431,-3.2711,-3.2833,-3.3156,-3.3224,-3.3203,-3.3161,-3.3105,-3.2913,-3.2722,-3.2749,-3.2614,-3.2369,-3.1971,-3.1138,-3.0737,-3.0619,-3.0103,-3.0592,-3.167,-3.1198,-3.111,-3.1292,-3.0449,-3.0211,-3.0509,-3.0066,-2.9697,-2.9406,-2.9343,-2.9147,-2.8795,-2.8327,-2.8093,-2.8062,-2.7727,-2.7556,-2.7548,-2.7469,-2.7438,-2.7478,-2.7665,-2.7751,-2.763,-2.7857,-2.7768,-2.7419,-2.841,-2.8925,-2.8942,-2.9367,-2.9758,-3.0078,-3.0412,-3.0765,-3.112,-3.0914,-3.0818,-3.0801,-3.1137,-3.1448,-3.1767,-3.2147,-3.2397,-3.2473,-3.2164,-3.1958,-3.1941,-3.1498,-3.1244,-3.1305,-3.1186,-3.1106,-3.109,-3.1084,-3.0708,-2.9855,-2.9231,-2.8743,-2.8274,-2.8364,-2.8555,-2.8848,-2.8839,-2.8766,-2.857,-2.817,-2.7538,-2.653,-2.6179,-2.5801,-2.5031,-2.4721,-2.456,-2.4345,-2.4392,-2.4536,-2.4736,-2.5406,-2.5896,-2.5896,-2.6174,-2.6408,-2.6395,-2.6513,-2.7183,-2.8395,-2.8836,-2.9304,-3.0042,-3.0561,-3.0682,-3.0425,-3.0727,-3.1228,-3.1655,-3.1925,-3.2311,-3.2911,-3.2709,-3.2536,-3.2463,-3.2278,-3.2187,-3.2096,-3.1974,-3.1946,-3.1537,-3.0846,-2.9694,-2.924,-2.9244,-2.8606,-2.9308,-3.0776,-3.026,-3.0179,-3.0405,-2.92,-2.89,-2.9184,-2.8611,-2.8271,-2.8165,-2.8132,-2.8025,-2.7904,-2.7349,-2.7119,-2.7072,-2.6603,-2.6334,-2.6378,-2.6401,-2.6404,-2.6387,-2.6791,-2.68,-2.6351,-2.6605,-2.644,-2.5963,-2.7284,-2.807,-2.8161,-2.8827,-2.9216,-2.9381,-2.9924,-3.033,-3.039,-2.9747,-2.9351,-2.9368,-2.9349,-2.948,-2.984,-3.0417,-3.0784,-3.0898,-3.0676,-3.0561,-3.0613,-3.0404,-3.0294,-3.036,-3.0177,-2.9883,-2.9493,-2.959,-2.9411,-2.8751,-2.8254,-2.7791,-2.7565,-2.7886,-2.8157,-2.8078,-2.8744,-2.902,-2.8756,-2.8436,-2.7937,-2.7229,-2.6405,-2.5824,-2.5424,-2.494,-2.4649,-2.4635,-2.4607,-2.4635,-2.4778,-2.492,-2.5131,-2.5369,-2.5578,-2.5867,-2.6206,-2.6313,-2.6827,-2.7876,-2.8234,-2.8545,-2.8954,-2.9405,-2.9519,-2.9267,-2.9701,-3.0383,-3.0806,-3.1214,-3.1723,-3.2329,-3.2044,-3.1626,-3.1503,-3.159,-3.1736,-3.1236,-3.0698,-3.0571,-3.0142,-2.9552,-2.8929,-2.8796,-2.8885,-2.8203,-2.8134,-2.8724,-2.8601,-2.8647,-2.8654,-2.8466,-2.8458,-2.8479,-2.8107,-2.778,-2.748,-2.723,-2.6933,-2.6626,-2.6397,-2.6321,-2.6283,-2.6176,-2.6069,-2.6038,-2.5759,-2.5488,-2.5282,-2.5302,-2.5431,-2.5525,-2.5697,-2.5594,-2.5304,-2.5583,-2.5856,-2.6151,-2.6308,-2.6677,-2.7356,-2.7437,-2.78,-2.8414,-2.8237,-2.8069,-2.8065,-2.7948,-2.7859,-2.789,-2.7872,-2.7811,-2.7806,-2.7559,-2.7751,-2.8731,-2.9135,-2.9521,-3.0112,-2.9724,-2.8963,-2.7786,-2.7718,-2.803,-2.8251,-2.7997,-2.7577,-2.7513,-2.7864,-2.8149,-2.833,-2.9024,-2.9268,-2.8711,-2.8976,-2.8757,-2.7442,-2.6932,-2.6722,-2.6137,-2.5445,-2.499,-2.4935,-2.4778,-2.4706,-2.4806,-2.492,-2.509,-2.5258,-2.5508,-2.5784,-2.6056,-2.6218,-2.665,-2.7426,-2.811,-2.8376,-2.8621,-2.9062,-2.9552,-2.8773,-2.9544,-3.0142,-3.0349,-3.0898,-3.1428,-3.1399,-3.122,-3.0941,-3.074,-3.1093,-3.1814,-2.9915,-2.9663,-2.9622,-2.9307,-2.8777,-2.8148,-2.7891,-2.7872,-2.7582,-2.7448,-2.7382,-2.7382,-2.7675,-2.8128,-2.789,-2.7725,-2.765,-2.6981,-2.6679,-2.663,-2.6237,-2.5978,-2.5886,-2.5447,-2.5259,-2.5213,-2.4851,-2.4655,-2.4675,-2.4655,-2.4689,-2.4742,-2.4866,-2.4966,-2.5045,-2.5182,-2.5162,-2.4985,-2.493,-2.5009,-2.515,-2.5457,-2.5713,-2.5825,-2.5931,-2.606,-2.6276,-2.6226,-2.6186,-2.6246,-2.6146,-2.6274,-2.6648,-2.6529,-2.6593,-2.6897,-2.6733,-2.6782,-2.7134,-2.7293,-2.737,-2.7561,-2.724,-2.6688,-2.5902,-2.5683,-2.5866,-2.6332,-2.6427,-2.6327,-2.6253,-2.6877,-2.7528,-2.7954,-2.8753,-2.9101,-2.8682,-2.8486,-2.8036,-2.7139,-2.6692,-2.6385,-2.6106,-2.5716,-2.5411,-2.53,-2.5103,-2.4977,-2.5033,-2.509,-2.5216,-2.5453,-2.5702,-2.5839,-2.6002,-2.6272,-2.6535,-2.6773,-2.7195,-2.7545,-2.7759,-2.7886,-2.8015,-2.782,-2.8834,-2.9358,-2.9043,-3.0013,-3.0722,-3.0477,-3.0093,-2.9794,-2.9792,-3.0428,-3.1223,-2.8759,-2.8598,-2.8492,-2.8248,-2.7938,-2.7517,-2.7258,-2.713,-2.7104,-2.6846,-2.6448,-2.637,-2.6605,-2.7056,-2.695,-2.6861,-2.67,-2.5847,-2.5479,-2.5526,-2.5081,-2.4891,-2.487,-2.4507,-2.4291,-2.4179,-2.3776,-2.3581,-2.3631,-2.3888,-2.4177,-2.4441,-2.4641,-2.4737,-2.4722,-2.4826,-2.4806,-2.4681,-2.4564,-2.4508,-2.4564,-2.4831,-2.4989,-2.4962,-2.5072,-2.5107,-2.5005,-2.5005,-2.5025,-2.5068,-2.5025,-2.5203,-2.5616,-2.5508,-2.5597,-2.5908,-2.6008,-2.5968,-2.5871,-2.5857,-2.5816,-2.5653,-2.5316,-2.4878,-2.4461,-2.4227,-2.4213,-2.4369,-2.4789,-2.5066,-2.5339,-2.5986,-2.6647,-2.7039,-2.7889,-2.8381,-2.821,-2.7867,-2.7548,-2.7116,-2.6778,-2.6253,-2.6059,-2.5893,-2.5757,-2.5661,-2.5481,-2.5342,-2.5342,-2.5342,-2.5453,-2.5729,-2.5893,-2.6015,-2.6069,-2.6312,-2.6431,-2.6551,-2.6808,-2.7021,-2.6925,-2.6925,-2.6899,-2.7283,-2.8144,-2.8578,-2.8446,-2.9142,-2.9709,-2.9307,-2.897,-2.8864,-2.8935,-2.9577,-3.032,-2.7967,-2.7336,-2.6949,-2.6794,-2.6846,-2.7034,-2.706,-2.682,-2.68,-2.6428,-2.5814,-2.5555,-2.5315,-2.5136,-2.5596,-2.5847,-2.5749,-2.4959,-2.4398,-2.4109,-2.3949,-2.3641,-2.323,-2.3422,-2.3503,-2.3474,-2.34,-2.3414,-2.3595,-2.3739,-2.3973,-2.4281,-2.4421,-2.4498,-2.4498,-2.4564,-2.4508,-2.4302,-2.4281,-2.4276,-2.4187,-2.413,-2.4338,-2.4726,-2.4906,-2.4966,-2.4966,-2.4985,-2.4985,-2.4985,-2.4966,-2.4938,-2.4865,-2.4698,-2.4482,-2.4286,-2.4724,-2.5036,-2.5083,-2.5242,-2.536,-2.5334,-2.4723,-2.4214,-2.3554,-2.3539,-2.3375,-2.2909,-2.3606,-2.4312,-2.4994,-2.5501,-2.5819,-2.5948,-2.6582,-2.7056,-2.7209,-2.7292,-2.747,-2.7451,-2.7074,-2.6621,-2.629,-2.6179,-2.6098,-2.6016,-2.5839,-2.5688,-2.5702,-2.5688,-2.5743,-2.5893,-2.6111,-2.6326,-2.6445,-2.6525,-2.6618,-2.6592,-2.6645,-2.6948,-2.6791,-2.6686,-2.6633,-2.6763,-2.7478,-2.7881,-2.7882,-2.8066,-2.8393,-2.8351,-2.829,-2.8211,-2.8278,-2.8698,-2.9455,-2.5219,-2.4982,-2.4848,-2.4892,-2.5086,-2.5264,-2.5329,-2.5282,-2.5307,-2.5102,-2.4725,-2.4518,-2.4391,-2.424,-2.4042,-2.4323,-2.4837,-2.4003,-2.3629,-2.3574,-2.3224,-2.3008,-2.3008,-2.315,-2.3216,-2.3194,-2.326,-2.3341,-2.3414,-2.3538,-2.3661,-2.3775,-2.3967,-2.4009,-2.3967,-2.4051,-2.3973,-2.3767,-2.3775,-2.3754,-2.3717,-2.3689,-2.3797,-2.4015,-2.4162,-2.4317,-2.4477,-2.4323,-2.4364,-2.4681,-2.4482,-2.44,-2.4441,-2.4297,-2.4145,-2.4019,-2.3936,-2.3918,-2.3866,-2.3684,-2.3531,-2.3367,-2.3108,-2.2778,-2.2376,-2.2272,-2.224,-2.24,-2.2841,-2.3473,-2.4086,-2.4856,-2.5488,-2.5821,-2.6236,-2.6485,-2.6526,-2.655,-2.6572,-2.6483,-2.6384,-2.6392,-2.6412,-2.6326,-2.6233,-2.6206,-2.6152,-2.6098,-2.6111,-2.615,-2.6177,-2.6218,-2.6394,-2.658,-2.6484,-2.6618,-2.6659,-2.6406,-2.6379,-2.6498,-2.6431,-2.6445,-2.6418,-2.6664,-2.718,-2.7351,-2.7422,-2.7345,-2.7557,-2.7428,-2.741,-2.7684,-2.7624,-2.8324,-2.9027,-2.3383,-2.3461,-2.3539,-2.3719,-2.3974,-2.4126,-2.414,-2.4118,-2.4219,-2.4019,-2.3649,-2.3506,-2.3384,-2.3184,-2.2717,-2.2892,-2.354,-2.3048,-2.2874,-2.2942,-2.2662,-2.2578,-2.2632,-2.2791,-2.2836,-2.2836,-2.2904,-2.2971,-2.3075,-2.3187,-2.3275,-2.3363,-2.356,-2.3595,-2.3551,-2.361,-2.3545,-2.3399,-2.3282,-2.3238,-2.329,-2.3246,-2.3326,-2.348,-2.3545,-2.3726,-2.3982,-2.3839,-2.3867,-2.4114,-2.3988,-2.3946,-2.4036,-2.3988,-2.3882,-2.3754,-2.3451,-2.3172,-2.3016,-2.2618,-2.2287,-2.2091,-2.1878,-2.165,-2.1496,-2.1361,-2.1504,-2.1849,-2.243,-2.2963,-2.3372,-2.4226,-2.4972,-2.5277,-2.5478,-2.5588,-2.561,-2.5716,-2.581,-2.5924,-2.61,-2.626,-2.6431,-2.6486,-2.6474,-2.6447,-2.6406,-2.6379,-2.6379,-2.6445,-2.6525,-2.6486,-2.6633,-2.6712,-2.6698,-2.6765,-2.6618,-2.6379,-2.6204,-2.6244,-2.619,-2.619,-2.6326,-2.6613,-2.6806,-2.692,-2.6929,-2.6837,-2.6738,-2.663,-2.6902,-2.7277,-2.7597,-2.8107,-2.8698,-2.2671,-2.2817,-2.3162,-2.3248,-2.3439,-2.355,-2.3687,-2.3518,-2.3571,-2.3149,-2.261,-2.2558,-2.2309,-2.1939,-2.1883,-2.1876,-2.2017,-2.2193,-2.2151,-2.1995,-2.2236,-2.224,-2.2077,-2.231,-2.2379,-2.2287,-2.2254,-2.2356,-2.2623,-2.2723,-2.2844,-2.3046,-2.3187,-2.326,-2.3363,-2.3246,-2.3275,-2.315,-2.2867,-2.2822,-2.3001,-2.2844,-2.2912,-2.3231,-2.3179,-2.329,-2.361,-2.3573,-2.361,-2.3653,-2.3631,-2.3595,-2.3653,-2.3696,-2.3631,-2.3363,-2.315,-2.2889,-2.2535,-2.218,-2.1912,-2.1783,-2.1447,-2.1253,-2.1229,-2.1215,-2.1231,-2.1397,-2.2151,-2.2817,-2.2923,-2.3583,-2.4161,-2.4138,-2.4354,-2.4416,-2.4485,-2.4763,-2.5258,-2.5852,-2.6111,-2.6326,-2.6498,-2.6532,-2.6556,-2.6556,-2.6462,-2.6381,-2.6395,-2.6491,-2.663,-2.6712,-2.6817,-2.687,-2.6884,-2.6858,-2.6592,-2.6365,-2.6258,-2.619,-2.5988,-2.5948,-2.6042,-2.6302,-2.6395,-2.6535,-2.671,-2.6633,-2.6686,-2.6671,-2.687,-2.6974,-2.7321,-2.7722,-2.8182,-2.1108,-2.1043,-2.112,-2.1274,-2.1439,-2.1577,-2.1653,-2.1703,-2.1816,-2.1695,-2.1498,-2.141,-2.1352,-2.1391,-2.1399,-2.1447,-2.153,-2.1807,-2.1878,-2.1831,-2.1912,-2.1973,-2.1912,-2.2044,-2.2161,-2.2184,-2.2194,-2.2254,-2.2287,-2.2333,-2.2402,-2.2495,-2.2609,-2.2632,-2.2595,-2.2646,-2.2609,-2.2426,-2.2379,-2.2356,-2.2379,-2.254,-2.2715,-2.2806,-2.291,-2.3045,-2.3246,-2.3268,-2.3363,-2.3573,-2.3545,-2.3538,-2.3501,-2.3392,-2.3268,-2.3127,-2.2723,-2.2449,-2.2263,-2.1793,-2.1458,-2.1361,-2.118,-2.1082,-2.1082,-2.1131,-2.112,-2.1141,-2.2073,-2.2737,-2.2679,-2.3051,-2.3598,-2.4054,-2.4125,-2.4099,-2.4263,-2.4595,-2.5076,-2.5522,-2.5756,-2.6028,-2.6277,-2.6275,-2.5983,-2.6071,-2.6031,-2.6006,-2.6075,-2.6497,-2.6867,-2.6858,-2.6922,-2.6875,-2.6739,-2.6637,-2.6513,-2.6258,-2.6123,-2.5961,-2.5784,-2.5688,-2.5825,-2.5975,-2.6069,-2.6204,-2.6365,-2.6472,-2.6498,-2.6645,-2.6777,-2.6881,-2.6945,-2.7281,-2.7752,-2.0195,-2.0131,-2.0182,-2.0283,-2.0397,-2.0485,-2.0573,-2.0646,-2.0734,-2.0784,-2.0759,-2.0698,-2.0759,-2.097,-2.1082,-2.1131,-2.1142,-2.1399,-2.1434,-2.1434,-2.165,-2.1698,-2.1664,-2.1736,-2.1807,-2.1888,-2.1888,-2.1912,-2.1996,-2.1959,-2.1983,-2.2067,-2.2137,-2.2184,-2.2114,-2.2161,-2.2091,-2.1973,-2.1973,-2.1973,-2.1996,-2.2208,-2.2417,-2.2546,-2.2706,-2.2865,-2.3,-2.2992,-2.3127,-2.3341,-2.3363,-2.3371,-2.3349,-2.3127,-2.2994,-2.2836,-2.2463,-2.2091,-2.1902,-2.1496,-2.118,-2.1106,-2.1033,-2.0983,-2.1021,-2.1082,-2.1059,-2.1106,-2.177,-2.2419,-2.252,-2.262,-2.3103,-2.3835,-2.3645,-2.375,-2.4005,-2.4123,-2.4316,-2.4613,-2.4791,-2.5059,-2.517,-2.5354,-2.5105,-2.5218,-2.5293,-2.5319,-2.5485,-2.6097,-2.6287,-2.648,-2.6677,-2.6578,-2.6442,-2.6402,-2.6418,-2.6165,-2.5921,-2.5729,-2.5522,-2.5467,-2.5522,-2.5757,-2.5907,-2.5988,-2.6165,-2.6231,-2.6285,-2.6472,-2.6604,-2.6657,-2.6709,-2.6945,-2.7307,-1.9862,-2.0016,-2.0131,-2.0233,-2.0321,-2.0346,-2.0346,-2.0359,-2.0372,-2.0359,-2.0359,-2.0346,-2.0447,-2.061,-2.081,-2.0822,-2.0698,-2.0896,-2.0921,-2.0908,-2.1215,-2.1496,-2.1458,-2.1458,-2.1482,-2.1471,-2.1471,-2.1482,-2.164,-2.1578,-2.164,-2.1712,-2.1698,-2.1793,-2.1793,-2.1793,-2.1736,-2.1688,-2.164,-2.1664,-2.1783,-2.1973,-2.2161,-2.2394,-2.2555,-2.2752,-2.2881,-2.2902,-2.2939,-2.3082,-2.3127,-2.3105,-2.3082,-2.2949,-2.2791,-2.2623,-2.2217,-2.1864,-2.152,-2.1326,-2.1155,-2.1071,-2.1021,-2.0997,-2.0997,-2.1033,-2.1046,-2.1023,-2.1505,-2.2022,-2.2416,-2.2362,-2.2636,-2.3204,-2.3053,-2.3118,-2.3521,-2.3225,-2.3232,-2.3482,-2.35,-2.3475,-2.365,-2.3968,-2.4086,-2.4212,-2.4312,-2.4362,-2.4594,-2.5016,-2.5346,-2.5727,-2.6105,-2.6316,-2.6192,-2.6139,-2.6146,-2.6084,-2.5811,-2.5564,-2.5355,-2.5272,-2.5244,-2.5481,-2.5702,-2.5811,-2.5866,-2.5948,-2.6069,-2.6231,-2.6312,-2.6365,-2.6472,-2.663,-2.6736,-1.9734,-1.9837,-1.9888,-1.9927,-1.9952,-1.9952,-1.9952,-1.9952,-1.9965,-1.9991,-1.9991,-1.9965,-2.0118,-2.0296,-2.0372,-2.0472,-2.0573,-2.0673,-2.0698,-2.066,-2.0959,-2.1253,-2.1361,-2.1385,-2.1385,-2.1385,-2.1385,-2.1423,-2.1447,-2.1302,-2.1204,-2.1204,-2.1166,-2.1104,-2.1104,-2.1229,-2.1204,-2.1253,-2.1399,-2.1471,-2.1578,-2.1949,-2.2147,-2.2254,-2.2546,-2.2789,-2.2904,-2.2978,-2.3029,-2.3082,-2.3015,-2.2955,-2.2941,-2.2783,-2.2632,-2.2532,-2.2175,-2.1878,-2.1797,-2.1502,-2.1245,-2.1144,-2.1202,-2.0997,-2.0983,-2.1095,-2.1095,-2.1139,-2.1515,-2.2034,-2.239,-2.2173,-2.2056,-2.2017,-2.2329,-2.257,-2.2451,-2.2297,-2.2232,-2.2277,-2.2251,-2.2444,-2.2736,-2.2792,-2.2775,-2.2976,-2.3164,-2.3326,-2.3568,-2.4387,-2.4941,-2.5127,-2.5448,-2.581,-2.597,-2.5879,-2.5835,-2.5903,-2.5729,-2.5508,-2.5286,-2.509,-2.509,-2.5174,-2.5383,-2.5522,-2.5592,-2.5647,-2.5798,-2.6096,-2.6084,-2.6111,-2.6042,-2.6123,-2.615,-1.9557,-1.9447,-1.9409,-1.9421,-1.9447,-1.9421,-1.9534,-1.9773,-1.9798,-1.9798,-1.9798,-1.9798,-1.9875,-2.0042,-2.0156,-2.0195,-2.0283,-2.0397,-2.0372,-2.0308,-2.0523,-2.0934,-2.1264,-2.1385,-2.1385,-2.1385,-2.1385,-2.1375,-2.1302,-2.1155,-2.1057,-2.1008,-2.0934,-2.0871,-2.0945,-2.1082,-2.1193,-2.1229,-2.1423,-2.1568,-2.1616,-2.1926,-2.2077,-2.217,-2.2468,-2.2698,-2.2843,-2.3015,-2.3097,-2.306,-2.2947,-2.2857,-2.2806,-2.2532,-2.2394,-2.2477,-2.2314,-2.2304,-2.2404,-2.2303,-2.2283,-2.2222,-2.2057,-2.1783,-2.1636,-2.1567,-2.149,-2.12,-2.1417,-2.1742,-2.2035,-2.1883,-2.1589,-2.1432,-2.156,-2.1703,-2.1581,-2.1375,-2.1194,-2.1061,-2.097,-2.106,-2.1655,-2.1534,-2.1603,-2.176,-2.2024,-2.2196,-2.2464,-2.3596,-2.4297,-2.4216,-2.4593,-2.4988,-2.5257,-2.5231,-2.5467,-2.5558,-2.5536,-2.5342,-2.5258,-2.5033,-2.5033,-2.509,-2.5173,-2.5257,-2.5439,-2.5647,-2.5935,-2.6084,-2.5975,-2.5921,-2.5893,-2.5852,-2.5852,-1.9244,-1.8958,-1.8784,-1.8759,-1.8846,-1.8809,-1.9145,-1.9622,-1.9773,-1.9798,-1.9798,-1.9798,-1.9824,-1.9798,-2.0029,-2.0016,-1.9798,-2.0016,-1.9991,-1.9991,-2.0195,-2.0598,-2.1055,-2.1215,-2.1264,-2.1288,-2.135,-2.1302,-2.1204,-2.1155,-2.1082,-2.0934,-2.0923,-2.0947,-2.0909,-2.1155,-2.1326,-2.135,-2.1592,-2.1722,-2.1783,-2.1949,-2.2067,-2.2053,-2.2208,-2.2454,-2.2675,-2.2857,-2.2933,-2.2992,-2.2849,-2.2758,-2.2689,-2.2245,-2.2137,-2.2367,-2.2584,-2.2822,-2.3094,-2.3348,-2.3555,-2.3354,-2.3205,-2.2928,-2.2278,-2.2026,-2.1818,-2.1245,-2.1144,-2.1447,-2.1852,-2.1796,-2.1662,-2.1386,-2.0772,-2.0683,-2.076,-2.0516,-2.0075,-1.9906,-1.9664,-1.9653,-1.9901,-2.022,-2.0561,-2.0933,-2.1169,-2.1406,-2.1776,-2.2658,-2.2919,-2.268,-2.3279,-2.4127,-2.4365,-2.4538,-2.491,-2.5187,-2.519,-2.5146,-2.5272,-2.5159,-2.509,-2.5159,-2.5355,-2.5481,-2.5564,-2.5798,-2.6056,-2.6084,-2.6002,-2.5975,-2.5948,-2.5921,-2.5893,-1.8568,-1.8635,-1.8142,-1.7982,-1.8129,-1.8524,-1.8809,-1.9058,-1.9571,-1.9735,-1.9798,-1.9798,-1.9798,-1.9798,-1.9837,-1.9811,-1.9656,-1.9734,-1.9746,-1.985,-2.0195,-2.0258,-2.0446,-2.0684,-2.0883,-2.0957,-2.1142,-2.1155,-2.1033,-2.0921,-2.0847,-2.0723,-2.0699,-2.0599,-2.0687,-2.0997,-2.1082,-2.1155,-2.1544,-2.1807,-2.1841,-2.202,-2.2077,-2.203,-2.2067,-2.2161,-2.2292,-2.2385,-2.2394,-2.2417,-2.2523,-2.2477,-2.2338,-2.2114,-2.203,-2.2221,-2.2682,-2.3007,-2.3213,-2.3677,-2.3803,-2.3465,-2.3515,-2.3137,-2.2055,-2.2149,-2.1955,-2.151,-2.1437,-2.1686,-2.2221,-2.284,-2.2468,-2.1746,-2.1352,-2.0856,-2.0082,-1.9549,-1.9268,-1.9053,-1.8976,-1.8999,-1.9368,-1.9655,-1.9926,-2.0156,-2.0435,-2.0699,-2.1272,-2.193,-2.1947,-2.1858,-2.2366,-2.3227,-2.3574,-2.3867,-2.4352,-2.4734,-2.4833,-2.5034,-2.516,-2.5355,-2.5355,-2.5467,-2.5633,-2.5716,-2.5798,-2.5935,-2.6218,-2.6111,-2.6084,-2.6084,-2.6084,-2.6002,-2.5893,-1.8224,-1.8154,-1.7531,-1.7276,-1.7289,-1.7569,-1.797,-1.8484,-1.8905,-1.9265,-1.9515,-1.9578,-1.9604,-1.9604,-1.9604,-1.9591,-1.9539,-1.9591,-1.9642,-1.9734,-1.9862,-1.9759,-1.9643,-1.9875,-2.0118,-2.0359,-2.0809,-2.0847,-2.0698,-2.0761,-2.0785,-2.0661,-2.0599,-2.0662,-2.0725,-2.0947,-2.1131,-2.124,-2.1592,-2.1831,-2.1912,-2.2006,-2.2123,-2.2077,-2.2044,-2.2067,-2.2208,-2.2194,-2.2114,-2.1996,-2.1996,-2.2091,-2.2091,-2.1949,-2.1864,-2.2108,-2.2863,-2.3406,-2.3741,-2.4345,-2.4605,-2.4011,-2.4062,-2.3375,-2.2636,-2.2405,-2.2202,-2.1866,-2.1712,-2.1812,-2.2605,-2.267,-2.2541,-2.2454,-2.1931,-2.128,-2.0451,-1.9673,-1.9108,-1.8982,-1.9078,-1.9303,-1.9499,-1.9603,-1.9849,-2.0296,-2.0398,-2.0649,-2.0898,-2.1459,-2.1605,-2.1663,-2.1911,-2.2352,-2.2749,-2.3179,-2.3719,-2.4148,-2.4491,-2.4818,-2.5161,-2.5398,-2.5661,-2.5743,-2.5811,-2.6029,-2.6123,-2.6231,-2.6433,-2.6618,-2.6604,-2.6392,-2.6231,-2.6204,-2.6042,-1.7746,-1.7509,-1.6774,-1.6405,-1.637,-1.6408,-1.7014,-1.7887,-1.8144,-1.8685,-1.9139,-1.9316,-1.9368,-1.9394,-1.942,-1.9394,-1.937,-1.9338,-1.9366,-1.9474,-1.946,-1.9277,-1.9146,-1.9291,-1.9462,-1.9683,-2.0321,-2.0434,-2.041,-2.0587,-2.0699,-2.0674,-2.0574,-2.0599,-2.0812,-2.0997,-2.1093,-2.124,-2.1554,-2.1807,-2.1888,-2.1935,-2.2006,-2.1983,-2.1817,-2.1855,-2.1926,-2.1888,-2.1769,-2.1544,-2.1361,-2.1482,-2.1626,-2.1612,-2.1578,-2.1882,-2.2923,-2.3668,-2.4151,-2.5006,-2.5514,-2.5103,-2.488,-2.4107,-2.3217,-2.2859,-2.2589,-2.2176,-2.1938,-2.2094,-2.2788,-2.2854,-2.2722,-2.2633,-2.2183,-2.1756,-2.134,-2.0493,-2.0034,-1.9517,-1.9415,-1.946,-1.9746,-1.9939,-2.0195,-2.0397,-2.046,-2.0599,-2.0848,-2.1046,-2.1293,-2.1356,-2.1537,-2.1591,-2.1941,-2.2429,-2.2999,-2.3661,-2.4069,-2.4668,-2.5121,-2.5467,-2.5743,-2.5866,-2.5988,-2.6231,-2.6472,-2.6671,-2.6881,-2.7141,-2.7089,-2.6803,-2.6604,-2.6431,-2.6258,-1.6404,-1.6384,-1.5378,-1.5051,-1.5234,-1.5635,-1.6357,-1.7234,-1.7684,-1.8378,-1.9111,-1.9119,-1.921,-1.9342,-1.9394,-1.9342,-1.9216,-1.9074,-1.8973,-1.9111,-1.9146,-1.904,-1.8827,-1.9066,-1.9172,-1.9095,-1.9683,-2.0144,-2.022,-2.0372,-2.0561,-2.0548,-2.0334,-2.0322,-2.0586,-2.0684,-2.0759,-2.0932,-2.1288,-2.152,-2.1626,-2.1722,-2.1759,-2.1674,-2.1423,-2.1375,-2.1399,-2.1129,-2.0932,-2.1071,-2.0847,-2.0835,-2.0976,-2.1012,-2.1175,-2.1675,-2.2899,-2.378,-2.4062,-2.5297,-2.5712,-2.5552,-2.5399,-2.4719,-2.3719,-2.3478,-2.3048,-2.2358,-2.238,-2.2732,-2.2573,-2.3004,-2.2916,-2.2591,-2.2349,-2.2108,-2.203,-2.1754,-2.1266,-2.0636,-2.0117,-1.9656,-2.0016,-2.0283,-2.0459,-2.0598,-2.0611,-2.0736,-2.0959,-2.1057,-2.1169,-2.1158,-2.1109,-2.1099,-2.1143,-2.1661,-2.2245,-2.3097,-2.3717,-2.4587,-2.5053,-2.5494,-2.5757,-2.5961,-2.6272,-2.6566,-2.6817,-2.7052,-2.7207,-2.7361,-2.7284,-2.7181,-2.7011,-2.6841,-2.6563,-1.5521,-1.5532,-1.4775,-1.4478,-1.4557,-1.4722,-1.5443,-1.6437,-1.6873,-1.7676,-1.8569,-1.8919,-1.9066,-1.9172,-1.9184,-1.9172,-1.9101,-1.8965,-1.8849,-1.8934,-1.8881,-1.8827,-1.8614,-1.8907,-1.904,-1.9119,-1.95,-1.9798,-1.9926,-2.0283,-2.0435,-2.046,-2.0246,-2.0258,-2.0384,-2.0359,-2.0384,-2.0535,-2.0772,-2.0995,-2.1177,-2.1385,-2.1399,-2.124,-2.1044,-2.097,-2.0896,-2.0784,-2.0598,-2.0651,-2.0771,-2.0823,-2.0927,-2.1108,-2.129,-2.1651,-2.2867,-2.3835,-2.4037,-2.5186,-2.5651,-2.5279,-2.5303,-2.4815,-2.3968,-2.3614,-2.3262,-2.2653,-2.3019,-2.3458,-2.2982,-2.3581,-2.3758,-2.3369,-2.31,-2.2976,-2.2933,-2.2728,-2.2279,-2.1796,-2.151,-2.103,-2.0434,-2.0635,-2.0734,-2.0772,-2.0799,-2.0898,-2.1097,-2.1187,-2.1276,-2.1106,-2.1033,-2.0923,-2.0929,-2.1287,-2.1826,-2.2578,-2.3352,-2.4231,-2.4873,-2.5273,-2.5743,-2.6082,-2.6445,-2.6738,-2.7078,-2.7284,-2.7437,-2.7564,-2.759,-2.7564,-2.7397,-2.7218,-2.6893,-1.4814,-1.4822,-1.4312,-1.4071,-1.4025,-1.3988,-1.475,-1.581,-1.6182,-1.7143,-1.8355,-1.8732,-1.8893,-1.8936,-1.8891,-1.8907,-1.9032,-1.8826,-1.8684,-1.8747,-1.8598,-1.8518,-1.8625,-1.8721,-1.8907,-1.9251,-1.9434,-1.9525,-1.9746,-2.008,-2.0309,-2.0271,-2.0156,-2.0118,-2.0195,-1.9991,-1.9991,-2.0042,-2.0169,-2.0372,-2.0684,-2.0921,-2.1008,-2.0909,-2.0772,-2.0635,-2.0673,-2.0459,-2.0488,-2.0579,-2.077,-2.1063,-2.1227,-2.1564,-2.175,-2.1912,-2.3068,-2.3714,-2.4176,-2.4915,-2.537,-2.5022,-2.4884,-2.4497,-2.3975,-2.3454,-2.3067,-2.2838,-2.3201,-2.3689,-2.323,-2.3648,-2.3935,-2.3918,-2.367,-2.3691,-2.3528,-2.336,-2.3219,-2.2888,-2.279,-2.2334,-2.1639,-2.1313,-2.1496,-2.1503,-2.153,-2.1261,-2.1399,-2.1477,-2.1488,-2.1211,-2.1033,-2.086,-2.0906,-2.1095,-2.1642,-2.2323,-2.3024,-2.3787,-2.4455,-2.4991,-2.5453,-2.5933,-2.631,-2.663,-2.7089,-2.7463,-2.759,-2.7715,-2.7905,-2.788,-2.764,-2.7372,-2.7089,-1.4244,-1.3992,-1.3545,-1.3375,-1.3539,-1.3716,-1.4666,-1.5955,-1.6033,-1.7005,-1.8452,-1.8494,-1.859,-1.8655,-1.8416,-1.846,-1.8484,-1.8295,-1.8281,-1.8498,-1.8356,-1.8437,-1.8744,-1.8893,-1.9013,-1.9277,-1.946,-1.963,-1.9734,-1.9837,-1.9952,-1.9978,-1.9772,-1.9617,-1.9862,-1.9642,-1.9565,-1.9694,-1.9875,-2.0131,-2.0397,-2.0472,-2.0548,-2.0548,-2.0447,-2.0372,-2.0434,-2.0233,-2.0194,-2.0859,-2.0801,-2.101,-2.1423,-2.1948,-2.2175,-2.2445,-2.3002,-2.3571,-2.3787,-2.454,-2.5062,-2.4857,-2.4772,-2.4377,-2.3863,-2.3326,-2.307,-2.3292,-2.3312,-2.3098,-2.283,-2.2525,-2.2696,-2.2884,-2.2969,-2.3199,-2.3357,-2.3517,-2.3409,-2.3555,-2.3295,-2.3111,-2.2671,-2.2432,-2.226,-2.2246,-2.2188,-2.1919,-2.1795,-2.1941,-2.198,-2.178,-2.1362,-2.1148,-2.1002,-2.1186,-2.1415,-2.2037,-2.2698,-2.3358,-2.3973,-2.458,-2.516,-2.5605,-2.6068,-2.659,-2.7078,-2.7412,-2.7665,-2.784,-2.7965,-2.7915,-2.779,-2.7539,-2.731,-1.3854,-1.3313,-1.3135,-1.3113,-1.3258,-1.3406,-1.43,-1.5509,-1.5957,-1.6811,-1.7932,-1.8072,-1.8137,-1.8206,-1.8021,-1.8168,-1.835,-1.818,-1.815,-1.8298,-1.8232,-1.8356,-1.8706,-1.8866,-1.8999,-1.9277,-1.9408,-1.946,-1.9591,-1.963,-1.9746,-1.972,-1.9551,-1.9447,-1.95,-1.9316,-1.9225,-1.933,-1.9512,-1.972,-1.9849,-1.9965,-2.0093,-2.0156,-2.0042,-2.0067,-2.008,-1.9991,-2.0139,-2.0801,-2.097,-2.1433,-2.1933,-2.238,-2.2644,-2.2351,-2.3016,-2.3489,-2.3746,-2.4304,-2.4553,-2.4622,-2.4523,-2.4304,-2.3881,-2.3557,-2.3057,-2.2797,-2.2942,-2.2774,-2.2525,-2.2484,-2.2633,-2.2721,-2.2598,-2.284,-2.3183,-2.3314,-2.3416,-2.3651,-2.3837,-2.3591,-2.3358,-2.3069,-2.2736,-2.2564,-2.2578,-2.2498,-2.2482,-2.2625,-2.261,-2.254,-2.2026,-2.1556,-2.1394,-2.1364,-2.1228,-2.1703,-2.2264,-2.2942,-2.3511,-2.4121,-2.4709,-2.5384,-2.5987,-2.6525,-2.7052,-2.7452,-2.774,-2.7915,-2.8039,-2.7965,-2.789,-2.7815,-2.7514,-1.3545,-1.2925,-1.2915,-1.2954,-1.3075,-1.3214,-1.4103,-1.5339,-1.5752,-1.6569,-1.7387,-1.7607,-1.7637,-1.7798,-1.7795,-1.7894,-1.8263,-1.8275,-1.822,-1.815,-1.8205,-1.8422,-1.8718,-1.8851,-1.9025,-1.9342,-1.9316,-1.9263,-1.9198,-1.9225,-1.9265,-1.946,-1.9289,-1.9237,-1.9158,-1.8946,-1.8759,-1.8881,-1.9146,-1.9303,-1.9368,-1.9539,-1.963,-1.9682,-1.9708,-1.9796,-1.9895,-2.0049,-2.0365,-2.1144,-2.1521,-2.1958,-2.2456,-2.2782,-2.2757,-2.256,-2.2968,-2.306,-2.326,-2.3618,-2.414,-2.4176,-2.4031,-2.3783,-2.3666,-2.3632,-2.3495,-2.2719,-2.2559,-2.2367,-2.2162,-2.2515,-2.248,-2.2613,-2.2765,-2.2934,-2.31,-2.3215,-2.3318,-2.3437,-2.3667,-2.392,-2.3712,-2.349,-2.3227,-2.2933,-2.2908,-2.2975,-2.3031,-2.3084,-2.2799,-2.2596,-2.2035,-2.1527,-2.1367,-2.1273,-2.1224,-2.1448,-2.2021,-2.2542,-2.3148,-2.3708,-2.4263,-2.4992,-2.5742,-2.6324,-2.6803,-2.7321,-2.7815,-2.7865,-2.7915,-2.7989,-2.7965,-2.789,-2.7549,-1.3291,-1.2915,-1.2915,-1.2915,-1.2954,-1.3392,-1.4275,-1.5406,-1.5529,-1.6327,-1.7291,-1.7104,-1.7367,-1.774,-1.7599,-1.7603,-1.7936,-1.7936,-1.803,-1.815,-1.8325,-1.8503,-1.8718,-1.8905,-1.9037,-1.917,-1.917,-1.8972,-1.8732,-1.8575,-1.8827,-1.9129,-1.8866,-1.8825,-1.8732,-1.8545,-1.8534,-1.8696,-1.894,-1.904,-1.9078,-1.9184,-1.9289,-1.933,-1.9523,-1.9788,-2.0136,-2.038,-2.0918,-2.182,-2.1945,-2.2355,-2.2782,-2.2907,-2.2694,-2.2435,-2.2686,-2.2573,-2.2254,-2.2899,-2.3505,-2.345,-2.3271,-2.3108,-2.306,-2.3,-2.2892,-2.2762,-2.2382,-2.2311,-2.2176,-2.2163,-2.2204,-2.2461,-2.2728,-2.2832,-2.296,-2.3108,-2.3198,-2.3271,-2.345,-2.373,-2.3878,-2.3613,-2.3616,-2.3362,-2.3132,-2.3201,-2.3134,-2.3111,-2.2708,-2.2342,-2.1778,-2.1337,-2.1074,-2.1069,-2.1201,-2.1528,-2.1996,-2.2388,-2.2805,-2.3348,-2.3927,-2.4509,-2.5259,-2.5906,-2.6642,-2.7316,-2.776,-2.774,-2.774,-2.775,-2.7575,-2.7321,-2.6997,-1.3186,-1.2915,-1.2915,-1.2915,-1.292,-1.3406,-1.4237,-1.5224,-1.5794,-1.6452,-1.725,-1.6938,-1.6924,-1.7133,-1.714,-1.7283,-1.7699,-1.7661,-1.7865,-1.803,-1.822,-1.841,-1.8625,-1.8825,-1.8946,-1.8999,-1.8919,-1.8721,-1.8414,-1.8143,-1.8088,-1.8224,-1.8263,-1.8329,-1.8247,-1.8387,-1.8624,-1.8889,-1.8937,-1.8866,-1.8893,-1.9011,-1.9143,-1.9223,-1.976,-1.9832,-1.9922,-2.0421,-2.1079,-2.1631,-2.187,-2.238,-2.2847,-2.2747,-2.2401,-2.2013,-2.2372,-2.206,-2.1555,-2.2343,-2.3065,-2.2982,-2.286,-2.2739,-2.2678,-2.2739,-2.2372,-2.2135,-2.2013,-2.205,-2.1424,-2.1726,-2.2163,-2.2425,-2.2657,-2.2785,-2.2892,-2.3053,-2.312,-2.321,-2.336,-2.3552,-2.3658,-2.3695,-2.3771,-2.377,-2.355,-2.3366,-2.3321,-2.3162,-2.2777,-2.2544,-2.2072,-2.1621,-2.1357,-2.1316,-2.1319,-2.1685,-2.2081,-2.2496,-2.2902,-2.312,-2.3734,-2.425,-2.4993,-2.5945,-2.6782,-2.7464,-2.773,-2.766,-2.7519,-2.7418,-2.7137,-2.6803,-2.6578,-1.3051,-1.2803,-1.2832,-1.2856,-1.2978,-1.3392,-1.4187,-1.5111,-1.5755,-1.6528,-1.7134,-1.668,-1.6647,-1.6795,-1.667,-1.6998,-1.7451,-1.7579,-1.7783,-1.8071,-1.8343,-1.8488,-1.8666,-1.8836,-1.8958,-1.8819,-1.8494,-1.8251,-1.7886,-1.7733,-1.7595,-1.7512,-1.7512,-1.7634,-1.8064,-1.8432,-1.8885,-1.9148,-1.9191,-1.8839,-1.883,-1.8839,-1.8946,-1.9148,-1.967,-2.0113,-2.0259,-2.0794,-2.1359,-2.1815,-2.2064,-2.2284,-2.2499,-2.2481,-2.2022,-2.1849,-2.1832,-2.1865,-2.151,-2.2053,-2.2732,-2.2678,-2.2647,-2.2586,-2.2555,-2.2555,-2.2255,-2.1984,-2.1869,-2.1579,-2.1026,-2.1685,-2.2062,-2.2317,-2.2803,-2.3002,-2.3015,-2.3108,-2.3108,-2.3138,-2.33,-2.3433,-2.336,-2.3437,-2.3501,-2.3601,-2.355,-2.3434,-2.3524,-2.3298,-2.2951,-2.2749,-2.2609,-2.2182,-2.1775,-2.1983,-2.2166,-2.2093,-2.249,-2.2892,-2.3246,-2.3458,-2.3835,-2.4507,-2.5315,-2.6172,-2.7008,-2.7819,-2.7824,-2.7565,-2.7312,-2.6993,-2.6707,-2.6392,-2.6392,-1.2884,-1.2514,-1.2671,-1.2812,-1.2983,-1.3416,-1.4163,-1.5086,-1.5545,-1.6244,-1.7014,-1.6286,-1.6432,-1.6994,-1.6651,-1.6852,-1.7363,-1.7507,-1.7728,-1.8125,-1.8497,-1.8779,-1.8889,-1.8912,-1.8825,-1.8367,-1.8109,-1.7784,-1.7328,-1.7242,-1.708,-1.6981,-1.7027,-1.7312,-1.7784,-1.8621,-1.8992,-1.9033,-1.9322,-1.9156,-1.8799,-1.8806,-1.8958,-1.889,-1.9646,-2.0193,-2.0322,-2.1023,-2.1582,-2.2009,-2.2191,-2.2268,-2.2219,-2.217,-2.1789,-2.1331,-2.1868,-2.1614,-2.071,-2.1964,-2.2445,-2.2512,-2.2525,-2.242,-2.2309,-2.2266,-2.2311,-2.211,-2.1864,-2.1745,-2.1727,-2.1945,-2.2146,-2.2368,-2.2877,-2.3095,-2.3095,-2.3108,-2.3108,-2.306,-2.321,-2.333,-2.3168,-2.3108,-2.318,-2.3258,-2.3373,-2.3433,-2.3447,-2.3061,-2.2564,-2.251,-2.2397,-2.2057,-2.1797,-2.2698,-2.2997,-2.2846,-2.3013,-2.3488,-2.3823,-2.4099,-2.4503,-2.4961,-2.5536,-2.6318,-2.7284,-2.8259,-2.829,-2.8209,-2.6979,-2.6484,-2.619,-2.6082,-2.6177,-1.2635,-1.3083,-1.3001,-1.316,-1.3391,-1.3337,-1.4004,-1.5122,-1.5951,-1.6629,-1.6874,-1.636,-1.6324,-1.6669,-1.6753,-1.6815,-1.7307,-1.7507,-1.7717,-1.8118,-1.8446,-1.8452,-1.8581,-1.8677,-1.8567,-1.8283,-1.7944,-1.7625,-1.7362,-1.7096,-1.6923,-1.6839,-1.7035,-1.773,-1.8364,-1.8947,-1.9051,-2.0024,-2.0111,-1.9743,-1.9088,-1.9216,-1.9158,-1.8507,-1.9626,-2.014,-2.0008,-2.0901,-2.1488,-2.1722,-2.1807,-2.1677,-2.1592,-2.1556,-2.0951,-2.0712,-2.1128,-2.151,-2.1421,-2.2231,-2.2439,-2.2494,-2.2451,-2.242,-2.2494,-2.2389,-2.2372,-2.2351,-2.2189,-2.2092,-2.2122,-2.2497,-2.2727,-2.273,-2.3017,-2.3078,-2.3108,-2.3108,-2.309,-2.2969,-2.3,-2.3,-2.2939,-2.2818,-2.2818,-2.2687,-2.274,-2.2837,-2.2852,-2.2266,-2.176,-2.1875,-2.1813,-2.1578,-2.1726,-2.2804,-2.3257,-2.3055,-2.3524,-2.4237,-2.4532,-2.4822,-2.5218,-2.5711,-2.6034,-2.6462,-2.7826,-2.897,-2.9169,-2.8848,-2.7714,-2.664,-2.6244,-2.619,-2.6231,-1.2555,-1.3136,-1.3229,-1.3385,-1.3626,-1.3602,-1.4328,-1.5526,-1.6428,-1.692,-1.7039,-1.6701,-1.6627,-1.6768,-1.6751,-1.6976,-1.7407,-1.7518,-1.7854,-1.8228,-1.8368,-1.8475,-1.8513,-1.8476,-1.8442,-1.817,-1.7842,-1.756,-1.7462,-1.7088,-1.6979,-1.7032,-1.7215,-1.7788,-1.8433,-1.8755,-1.9114,-1.9798,-1.9709,-1.935,-1.9074,-1.9103,-1.916,-1.9126,-1.9603,-2.0181,-2.0057,-2.0402,-2.1077,-2.1054,-2.1027,-2.0954,-2.0968,-2.074,-2.0346,-2.0499,-2.0934,-2.1531,-2.2053,-2.2218,-2.2463,-2.2647,-2.2451,-2.2402,-2.2494,-2.2389,-2.2396,-2.2425,-2.2473,-2.2411,-2.2367,-2.2809,-2.2632,-2.2609,-2.2866,-2.2914,-2.2939,-2.2939,-2.2787,-2.2665,-2.2696,-2.2708,-2.2708,-2.2555,-2.2494,-2.2274,-2.2085,-2.2191,-2.2292,-2.1739,-2.1302,-2.1459,-2.178,-2.1865,-2.2222,-2.3095,-2.3366,-2.3219,-2.3972,-2.4924,-2.5373,-2.5691,-2.6082,-2.6455,-2.6893,-2.7575,-2.8841,-2.9686,-2.9875,-2.9526,-2.8654,-2.759,-2.6534,-2.6297,-2.6324,-1.2698,-1.2816,-1.3301,-1.3532,-1.3641,-1.4143,-1.5063,-1.6245,-1.6577,-1.6994,-1.7385,-1.6864,-1.6761,-1.7043,-1.6874,-1.7032,-1.749,-1.7601,-1.7975,-1.8313,-1.8354,-1.8467,-1.8563,-1.869,-1.8313,-1.7876,-1.7709,-1.7817,-1.7647,-1.7236,-1.7073,-1.7161,-1.7281,-1.776,-1.8204,-1.8531,-1.8964,-1.9369,-1.9604,-1.9244,-1.9027,-1.8852,-1.905,-1.9264,-1.9693,-2.0036,-2.0132,-2.0543,-2.0923,-2.1003,-2.0974,-2.0762,-2.0592,-2.0431,-2.0592,-2.0921,-2.1393,-2.1782,-2.2192,-2.2297,-2.2359,-2.2432,-2.2278,-2.2216,-2.2278,-2.2402,-2.2378,-2.2262,-2.2213,-2.2329,-2.2433,-2.2195,-2.1971,-2.225,-2.2598,-2.2653,-2.2678,-2.2586,-2.2389,-2.2328,-2.2432,-2.2494,-2.2555,-2.2463,-2.2389,-2.2219,-2.2079,-2.1942,-2.1923,-2.1485,-2.1207,-2.1328,-2.1707,-2.2297,-2.2816,-2.3286,-2.3487,-2.3377,-2.4645,-2.5615,-2.6068,-2.6344,-2.6667,-2.7046,-2.7783,-2.858,-2.9386,-3.0059,-3.0562,-3.0013,-2.9122,-2.8251,-2.7129,-2.6587,-2.6469,-1.2708,-1.3358,-1.3662,-1.3942,-1.4222,-1.495,-1.5487,-1.5753,-1.6023,-1.6418,-1.6853,-1.6363,-1.6452,-1.6428,-1.6581,-1.6846,-1.7145,-1.7451,-1.77,-1.79,-1.7946,-1.7895,-1.7979,-1.8112,-1.7896,-1.7934,-1.7957,-1.8135,-1.7881,-1.7439,-1.7376,-1.7464,-1.7491,-1.7802,-1.8027,-1.8217,-1.8756,-1.9226,-1.9553,-1.9388,-1.9231,-1.9216,-1.9229,-1.9192,-1.9538,-1.9734,-1.9701,-2.0113,-2.0398,-2.0431,-2.0313,-2.0129,-2.0096,-1.9758,-1.9715,-2.0483,-2.0894,-2.1313,-2.1904,-2.2185,-2.2216,-2.208,-2.1913,-2.2204,-2.234,-2.2352,-2.2309,-2.2157,-2.192,-2.1899,-2.1842,-2.1673,-2.1559,-2.1758,-2.2118,-2.2316,-2.234,-2.2278,-2.2111,-2.2049,-2.2142,-2.234,-2.2432,-2.2494,-2.2427,-2.2262,-2.2128,-2.1955,-2.1695,-2.1317,-2.1174,-2.1296,-2.1744,-2.2352,-2.271,-2.3161,-2.3373,-2.3748,-2.4807,-2.5657,-2.5922,-2.6277,-2.6953,-2.7527,-2.7999,-2.8693,-2.9469,-3.0078,-3.054,-3.0179,-2.9376,-2.8575,-2.7803,-2.7181,-2.6602,-1.2812,-1.3684,-1.397,-1.4275,-1.4716,-1.5322,-1.5608,-1.5769,-1.5973,-1.6324,-1.663,-1.6628,-1.6442,-1.6433,-1.673,-1.6952,-1.7032,-1.7312,-1.7617,-1.781,-1.739,-1.7407,-1.7488,-1.7749,-1.7799,-1.7957,-1.828,-1.8637,-1.8376,-1.8216,-1.8108,-1.7744,-1.7797,-1.7931,-1.8108,-1.8346,-1.8554,-1.8989,-1.9265,-1.9408,-1.948,-1.9487,-1.9134,-1.9083,-1.9413,-1.9339,-1.9211,-1.9705,-1.9824,-1.9922,-1.9835,-1.9704,-1.9769,-1.9594,-1.9824,-2.059,-2.1037,-2.1502,-2.1982,-2.1987,-2.1894,-2.1726,-2.1545,-2.1694,-2.1882,-2.1956,-2.2006,-2.197,-2.1647,-2.1376,-2.1282,-2.1187,-2.1219,-2.1282,-2.1588,-2.1913,-2.1956,-2.1987,-2.1882,-2.1788,-2.1913,-2.2142,-2.2297,-2.2389,-2.2537,-2.2566,-2.2374,-2.2095,-2.182,-2.1465,-2.135,-2.1428,-2.1904,-2.2408,-2.275,-2.305,-2.3295,-2.3589,-2.4025,-2.4806,-2.5406,-2.5858,-2.6213,-2.71,-2.8091,-2.8659,-2.9156,-2.9791,-3.0173,-2.9786,-2.942,-2.8728,-2.8013,-2.7449,-2.6864,-1.3004,-1.391,-1.4216,-1.4621,-1.5088,-1.542,-1.5719,-1.6075,-1.621,-1.6506,-1.6779,-1.722,-1.7021,-1.6717,-1.6963,-1.7096,-1.7056,-1.7125,-1.74,-1.7977,-1.7409,-1.7222,-1.7453,-1.7784,-1.7822,-1.803,-1.8438,-1.8984,-1.9105,-1.8783,-1.8289,-1.8027,-1.8121,-1.8177,-1.8141,-1.8532,-1.8673,-1.8649,-1.8774,-1.8848,-1.8977,-1.902,-1.9115,-1.9434,-1.9528,-1.9507,-1.9474,-1.9473,-1.9473,-1.9605,-1.9605,-1.944,-1.9572,-1.9857,-2.028,-2.0656,-2.1066,-2.1467,-2.1702,-2.1757,-2.162,-2.1451,-2.1313,-2.1132,-2.1184,-2.1463,-2.1569,-2.1494,-2.1167,-2.0901,-2.0773,-2.0592,-2.056,-2.0773,-2.1071,-2.1336,-2.1454,-2.1486,-2.1454,-2.1411,-2.1663,-2.1882,-2.2099,-2.2192,-2.2525,-2.2724,-2.2695,-2.2312,-2.216,-2.1827,-2.1647,-2.1652,-2.1944,-2.2406,-2.2863,-2.3158,-2.3284,-2.3534,-2.3664,-2.381,-2.4286,-2.4813,-2.5362,-2.6315,-2.7293,-2.8056,-2.867,-2.9398,-2.9829,-2.9494,-2.9134,-2.8762,-2.8227,-2.7682,-2.7082,-1.3259,-1.3939,-1.4469,-1.506,-1.5661,-1.6009,-1.6028,-1.596,-1.5999,-1.6239,-1.6675,-1.6926,-1.6984,-1.6803,-1.6995,-1.7082,-1.6936,-1.6821,-1.707,-1.7324,-1.7148,-1.7074,-1.733,-1.7769,-1.7791,-1.7913,-1.838,-1.915,-1.9058,-1.8674,-1.8318,-1.8099,-1.8183,-1.8187,-1.8171,-1.8591,-1.8693,-1.8611,-1.8729,-1.8775,-1.8903,-1.9015,-1.9179,-1.9308,-1.9341,-1.9274,-1.9274,-1.9308,-1.944,-1.9583,-1.945,-1.9341,-1.9374,-1.9726,-2.0096,-2.0464,-2.0796,-2.1158,-2.138,-2.1411,-2.121,-2.0839,-2.0581,-2.0413,-2.0458,-2.0846,-2.1019,-2.0869,-2.0732,-2.0495,-2.0301,-2.0085,-2.002,-2.0302,-2.0613,-2.0796,-2.0978,-2.0978,-2.0978,-2.1158,-2.1411,-2.162,-2.1839,-2.213,-2.2451,-2.2622,-2.2689,-2.2614,-2.2745,-2.2555,-2.218,-2.2106,-2.1989,-2.2355,-2.2867,-2.2929,-2.2905,-2.2867,-2.2911,-2.3069,-2.3157,-2.3635,-2.4169,-2.5344,-2.6367,-2.7071,-2.8035,-2.9265,-2.9496,-2.914,-2.9026,-2.8756,-2.8491,-2.8008,-2.7339,-1.3366,-1.4177,-1.4678,-1.5119,-1.5517,-1.5836,-1.5826,-1.57,-1.5671,-1.5907,-1.6412,-1.6818,-1.6931,-1.6729,-1.6961,-1.694,-1.6746,-1.6492,-1.6838,-1.7068,-1.6901,-1.6841,-1.7184,-1.7615,-1.7532,-1.7631,-1.8543,-1.911,-1.8913,-1.8711,-1.8438,-1.8213,-1.8223,-1.8256,-1.8319,-1.8629,-1.8841,-1.8954,-1.9042,-1.9041,-1.8996,-1.9085,-1.9108,-1.9164,-1.9164,-1.9098,-1.9131,-1.9175,-1.9241,-1.9341,-1.9274,-1.944,-1.9506,-1.9704,-2.0031,-2.0356,-2.0635,-2.0775,-2.0999,-2.0967,-2.0807,-2.0458,-1.9966,-1.9819,-2.0083,-2.0406,-2.0171,-2.0076,-2.0343,-2.0193,-2.0007,-1.9802,-1.9976,-2.0269,-2.056,-2.0839,-2.085,-2.0797,-2.083,-2.0882,-2.1158,-2.1526,-2.1796,-2.2118,-2.2451,-2.2757,-2.2775,-2.2787,-2.2939,-2.309,-2.2775,-2.2506,-2.234,-2.2407,-2.28,-2.2627,-2.2238,-2.2204,-2.2197,-2.1835,-2.1757,-2.2341,-2.3059,-2.3907,-2.4873,-2.5976,-2.702,-2.8339,-2.8948,-2.8693,-2.8761,-2.883,-2.8507,-2.8068,-2.7299,-1.3334,-1.4428,-1.4813,-1.5,-1.5088,-1.5303,-1.5381,-1.5371,-1.542,-1.5594,-1.5972,-1.6812,-1.6784,-1.6694,-1.6826,-1.6779,-1.6587,-1.6143,-1.6499,-1.6741,-1.6509,-1.6666,-1.6951,-1.7234,-1.7393,-1.7789,-1.8502,-1.876,-1.8764,-1.8593,-1.8449,-1.8361,-1.8405,-1.8472,-1.8549,-1.865,-1.8818,-1.8908,-1.9008,-1.9098,-1.9088,-1.9098,-1.9098,-1.9098,-1.9098,-1.9098,-1.9098,-1.9098,-1.9098,-1.9175,-1.9208,-1.9407,-1.9572,-1.9704,-1.99,-2.0194,-2.0313,-2.0485,-2.0646,-2.0474,-2.041,-2.0202,-1.9637,-1.9509,-1.976,-1.9684,-1.9455,-1.9499,-1.9792,-1.9944,-1.9738,-1.9705,-1.9922,-2.0238,-2.0562,-2.0733,-2.068,-2.0824,-2.0957,-2.0934,-2.1188,-2.1548,-2.1875,-2.2219,-2.2414,-2.272,-2.2891,-2.2921,-2.2951,-2.3103,-2.3032,-2.279,-2.259,-2.2688,-2.2726,-2.2359,-2.1875,-2.1565,-2.1454,-2.0732,-2.0421,-2.1229,-2.1765,-2.2024,-2.3065,-2.4597,-2.5897,-2.7174,-2.76,-2.8125,-2.8494,-2.8565,-2.8027,-2.758,-2.6974,-1.336,-1.4282,-1.4617,-1.4981,-1.5264,-1.5381,-1.5274,-1.5145,-1.5411,-1.5458,-1.561,-1.6338,-1.6619,-1.6236,-1.6325,-1.6237,-1.5984,-1.5684,-1.5871,-1.6168,-1.6306,-1.6618,-1.6958,-1.7254,-1.771,-1.8075,-1.8365,-1.8422,-1.8583,-1.8506,-1.8438,-1.8414,-1.8303,-1.8337,-1.8347,-1.8482,-1.8617,-1.8751,-1.8975,-1.9098,-1.9108,-1.9108,-1.9098,-1.9098,-1.9098,-1.9098,-1.9098,-1.9098,-1.9175,-1.9241,-1.9252,-1.9341,-1.9473,-1.9539,-1.9671,-1.9769,-1.9857,-1.9857,-1.9889,-1.9791,-1.9758,-1.965,-1.92,-1.9062,-1.9157,-1.9093,-1.8956,-1.8923,-1.9241,-1.9682,-1.9661,-1.9628,-1.98,-2.026,-2.0643,-2.0587,-2.0499,-2.1273,-2.1888,-2.1751,-2.1699,-2.1971,-2.2145,-2.2293,-2.2229,-2.2516,-2.2807,-2.2856,-2.3,-2.312,-2.3296,-2.3024,-2.2794,-2.2408,-2.2168,-2.1994,-2.1592,-2.1212,-2.083,-2.0331,-2.0149,-2.0388,-2.0792,-2.1057,-2.2093,-2.3595,-2.4848,-2.6094,-2.6854,-2.7461,-2.811,-2.8247,-2.7609,-2.7017,-2.6336]},{"header":{"parameterUnit":"m.s-1","parameterCategory":1,"la1":31.0,"la2":29.5877,"lo1":-88.7671,"lo2":-86.6584,"dy":0.0162,"dx":0.0185,"nx":115,"ny":88,"refTime":"2023-09-10T18:00:00:Z","depth":0,"parameterNumber":3,"parameterNumberName":"V-component_of_WINDS"},"data":[0.0,0.0,0.0,0.0,0.0,0.0,0.0,0.0,0.0,0.0,0.0,0.0,0.0,0.0,0.0,0.0,0.0,0.0,0.0,0.0,0.0,0.0,0.0,0.0,0.0,0.0,0.0,0.0,0.0,0.0,0.0,0.0,0.0,0.0,0.0,0.0,0.0,0.0,0.0,0.0,0.0,0.0,0.0,0.0,0.0,0.0,0.0,0.0,0.0,0.0,0.0,0.0,0.0,0.0,0.0,0.0,0.0,0.0,0.0,0.0,0.0,0.0,0.0,0.0,0.0,0.0,0.0,0.0,0.0,0.0,0.0,0.0,0.0,0.0,0.0,0.0,0.0,0.0,0.0,0.0,0.0,0.0,0.0,0.0,0.0,0.0,0.0,0.0,0.0,0.0,0.0,0.0,0.0,0.0,0.0,0.0,0.0,0.0,0.0,0.0,0.0,0.0,0.0,0.0,0.0,0.0,0.0,0.0,0.0,0.0,0.0,0.0,0.0,0.0,0.0,0.0,0.0,0.0,0.0,0.0,0.0,0.0,0.0,0.0,0.0,0.0,0.0,0.0,0.0,0.0,0.0,0.0,0.0,0.0,0.0,0.0,0.0,0.0,0.0,0.0,0.0,0.0,0.0,0.0,0.0,0.0,0.0,0.0,0.0,0.0,0.0,0.0,0.0,0.0,0.0,0.0,0.0,0.0,0.0,0.0,0.0,0.0,0.0,0.0,0.0,0.0,0.0,0.0,0.0,0.0,0.0,0.0,0.0,0.0,0.0,0.0,0.0,0.0,0.0,0.0,0.0,0.0,0.0,0.0,0.0,0.0,0.0,0.0,0.0,0.0,0.0,0.0,0.0,0.0,0.0,0.0,0.0,0.0,0.0,0.0,0.0,0.0,0.0,0.0,0.0,0.0,0.0,0.0,0.0,0.0,0.0,0.0,0.0,0.0,0.0,0.0,0.0,0.0,0.0,0.0,0.0,0.0,0.0,0.0,0.0,0.0,0.0,0.0,0.0,0.0,0.0,0.0,0.0,0.0,0.0,0.0,0.0,0.0,0.0,0.0,0.0,0.0,0.0,0.0,0.0,0.0,0.0,0.0,0.0,0.0,0.0,0.0,0.0,0.0,0.0,0.0,0.0,0.0,0.0,0.0,0.0,0.0,0.0,0.0,0.0,0.0,0.0,0.0,0.0,0.0,0.0,0.0,0.0,0.0,0.0,0.0,0.0,0.0,0.0,0.0,0.0,0.0,0.0,0.0,0.0,0.0,0.0,0.0,0.0,0.0,0.0,0.0,0.0,0.0,0.0,0.0,0.0,0.0,0.0,0.0,0.0,0.0,0.0,0.0,0.0,0.0,0.0,0.0,0.0,0.0,0.0,0.0,0.0,0.0,0.0,0.0,0.0,0.0,0.0,0.0,0.0,0.0,0.0,0.0,0.0,0.0,0.0,0.0,0.0,0.0,0.0,0.0,0.0,0.0,0.0,0.0,0.0,0.0,0.0,0.0,0.0,0.0,0.0,0.0,0.0,0.0,0.0,0.0,0.0,0.0,0.0,0.0,0.0,0.0,0.0,0.0,0.0,0.0,0.0,0.0,0.0,0.0,0.0,0.0,0.0,0.0,0.0,0.0,0.0,0.0,0.0,0.0,0.0,0.0,0.0,0.0,0.0,0.0,0.0,0.0,0.0,0.0,0.0,0.0,0.0,0.0,0.0,0.0,0.0,0.0,0.0,0.0,0.0,0.0,0.0,0.0,0.0,0.0,0.0,0.0,0.0,0.0,0.0,0.0,0.0,0.0,0.0,0.0,0.0,0.0,0.0,0.0,0.0,0.0,0.0,0.0,0.0,0.0,0.0,0.0,0.0,0.0,0.0,0.0,0.0,0.0,0.0,0.0,0.0,0.0,0.0,0.0,0.0,0.0,0.0,0.0,0.0,0.0,0.0,0.0,0.0,0.0,0.0,0.0,0.0,0.0,0.0,0.0,0.0,0.0,0.0,0.0,0.0,0.0,0.0,0.0,0.0,0.0,0.0,0.0,0.0,0.0,0.0,0.0,0.0,0.0,0.0,0.0,0.0,0.0,0.0,0.0,0.0,0.0,0.0,0.0,0.0,0.0,0.0,0.0,0.0,0.0,0.0,0.0,0.0,0.0,0.0,0.0,0.0,0.0,0.0,0.0,0.0,0.0,0.0,0.0,0.0,0.0,0.0,0.0,0.0,0.0,0.0,0.0,0.0,0.0,0.0,0.0,0.0,0.0,0.0,0.0,0.0,0.0,0.0,0.0,0.0,0.0,0.0,0.0,0.0,0.0,0.0,0.0,0.0,0.0,0.0,0.0,0.0,0.0,0.0,0.0,0.0,0.0,0.0,0.0,0.0,0.0,0.0,0.0,0.0,0.0,0.0,0.0,0.0,0.0,0.0,0.0,0.0,0.0,0.0,0.0,0.0,0.0,0.0,0.0,0.0,0.0,0.0,0.0,0.0,0.0,0.0,0.0,0.0,0.0,0.0,0.0,0.0,0.0,0.0,0.0,0.0,0.0,0.0,0.0,0.0,0.0,0.0,0.0,0.0,0.0,0.0,0.0,0.0,0.0,0.0,0.0,0.0,0.0,0.0,0.0,0.0,0.0,0.0,0.0,0.0,0.0,0.0,0.0,0.0,0.0,0.0,0.0,0.0,0.0,0.0,0.0,0.0,0.0,0.0,0.0,0.0,0.0,0.0,0.0,0.0,0.0,0.0,0.0,0.0,0.0,0.0,0.0,0.0,0.0,0.0,0.0,0.0,0.0,0.0,0.0,0.0,0.0,0.0,0.0,0.0,0.0,0.0,0.0,0.0,0.0,0.0,0.0,0.0,0.0,0.0,0.0,0.0,0.0,0.0,0.0,0.0,0.0,0.0,0.0,0.0,0.0,0.0,0.0,0.0,0.0,0.0,0.0,0.0,0.0,0.0,0.0,0.0,0.0,0.0,0.0,0.0,0.0,0.0,0.0,0.0,0.0,0.0,0.0,0.0,0.0,0.0,0.0,0.0,0.0,0.0,0.0,0.0,0.0,0.0,0.0,0.0,0.0,0.0,0.0,0.0,0.0,0.0,0.0,0.0,0.0,0.0,0.0,0.0,0.0,0.0,0.0,0.0,0.0,0.0,0.0,0.0,0.0,0.0,0.0,0.0,0.0,0.0,0.0,0.0,0.0,0.0,0.0,0.0,0.0,0.0,0.0,0.0,0.0,0.0,0.0,0.0,0.0,0.0,0.0,0.0,0.0,0.0,0.0,0.0,0.0,0.0,0.0,0.0,0.0,0.0,0.0,0.0,0.0,0.0,0.0,0.0,0.0,0.0,0.0,0.0,0.0,0.0,0.0,0.0,0.0,0.0,0.0,0.0,0.0,0.0,0.0,0.0,0.0,0.0,0.0,0.0,0.0,0.0,0.0,0.0,0.0,0.0,0.0,0.0,0.0,0.0,0.0,0.0,0.0,0.0,0.0,0.0,0.0,0.0,0.0,0.0,0.0,0.0,0.0,0.0,0.0,0.0,0.0,0.0,0.0,0.0,0.0,0.0,0.0,0.0,0.0,0.0,0.0,0.0,0.0,0.0,0.0,0.0,0.0,0.0,0.0,0.0,0.0,0.0,0.0,0.0,0.0,0.0,0.0,0.0,0.0,0.0,0.0,0.0,0.0,0.0,0.0,0.0,0.0,0.0,0.0,0.0,0.0,0.0,0.0,0.0,0.0,0.0,0.0,0.0,0.0,0.0,0.0,0.0,0.0,0.0,0.0,0.0,0.0,0.0,0.0,0.0,0.0,0.0,0.0,0.0,0.0,0.0,0.0,0.0,0.0,0.0,0.0,0.0,0.0,0.0,0.0,0.0,0.0,0.0,0.0,0.0,0.0,0.0,0.0,0.0,0.0,0.0,0.0,0.0,0.0,0.0,0.0,0.0,0.0,0.0,0.0,0.0,0.0,0.0,0.0,0.0,0.0,0.0,0.0,0.0,0.0,0.0,0.0,0.0,0.0,0.0,0.0,0.0,0.0,0.0,0.0,0.0,0.0,0.0,0.0,0.0,0.0,0.0,0.0,0.0,0.0,0.0,0.0,0.0,0.0,0.0,0.0,0.0,0.0,0.0,0.0,0.0,0.0,0.0,0.0,0.0,0.0,0.0,0.0,0.0,0.0,0.0,0.0,0.0,0.0,0.0,0.0,0.0,0.0,0.0,0.0,0.0,0.0,0.0,0.0,0.0,0.0,0.0,0.0,0.0,0.0,0.0,0.0,1.0955,0.0,0.0,0.0,0.0,0.0,0.0,0.0,0.0,0.0,0.0,0.0,0.0,0.0,0.0,0.0,0.0,0.0,0.0,0.0,0.0,0.0,0.0,0.0,0.0,0.0,0.0,0.0,0.0,0.0,0.0,0.0,0.0,0.0,0.0,0.0,0.0,0.0,0.0,0.0,0.0,0.0,0.0,0.0,0.0,0.0,0.0,0.0,0.0,0.0,0.0,0.0,0.0,0.0,0.0,0.0,0.0,0.0,0.0,0.0,0.0,0.0,0.0,0.0,0.0,0.0,0.0,0.0,0.0,0.0,0.0,0.0,0.0,0.0,0.0,0.0,0.0,0.0,0.0,0.0,0.0,0.0,0.0,0.0,0.0,0.0,0.0,0.0,0.0,0.0,0.0,0.0,0.0,0.0,0.0,0.0,0.0,0.0,0.0,0.0,0.0,0.0,0.0,0.0,0.0,0.0,0.0,0.0,0.0,0.0,0.0,1.3632,1.3092,1.2166,1.1448,1.0982,0.0,0.0,0.0,0.0,0.0,0.0,0.0,0.0,0.0,0.0,0.0,0.0,0.0,0.0,0.0,0.0,0.0,0.0,0.0,0.0,0.0,0.0,0.0,0.0,0.0,0.0,0.0,0.0,0.0,0.0,0.0,0.0,0.0,0.0,0.0,0.0,0.0,0.0,0.0,0.0,0.0,0.0,0.0,0.0,0.0,0.0,0.0,0.0,0.0,0.0,0.0,0.0,0.0,0.0,0.0,0.0,0.0,0.0,0.0,0.0,0.0,0.0,0.0,0.0,0.0,0.0,0.0,0.0,0.0,0.0,0.0,0.0,0.0,0.0,0.0,0.0,0.0,0.0,0.0,0.0,0.0,0.0,0.0,0.0,0.0,0.0,0.0,0.0,0.0,0.0,0.0,0.0,0.0,0.0,0.0,0.0,0.0,0.0,0.0,0.0,0.0,0.0,0.0,0.0,0.0,0.0,0.0,0.0,0.0,0.0,0.0,0.0,1.2359,1.1527,1.0738,0.0,0.0,0.0,0.0,0.0,0.0,0.0,0.0,0.0,0.0,0.0,0.0,0.0,0.0,0.0,0.0,0.0,0.0,0.0,0.0,0.0,0.0,0.0,0.0,0.0,0.0,0.0,0.0,0.0,0.0,0.0,0.0,0.0,0.0,0.0,0.0,0.0,0.0,0.0,0.0,0.0,0.0,0.0,0.0,0.0,0.0,0.0,0.0,0.0,0.0,0.0,0.0,0.0,0.0,0.0,0.0,0.0,0.0,0.0,0.0,0.0,0.0,0.0,0.0,0.0,0.0,0.0,0.0,0.0,0.0,0.0,0.0,0.0,0.0,0.0,0.0,0.0,0.0,0.0,0.0,0.0,0.0,0.0,0.0,0.0,0.0,0.0,0.0,0.0,0.0,0.0,0.0,0.0,0.0,0.0,0.0,0.0,0.0,0.0,0.0,0.0,0.0,0.0,0.0,0.0,0.0,0.0,0.0,0.0,0.0,1.4127,1.3222,1.2529,0.0,1.0032,0.0,0.0,0.0,0.0,0.0,0.0,0.0,0.0,0.0,0.0,0.0,0.0,0.0,0.0,0.0,0.0,0.0,0.0,0.0,0.0,0.0,0.0,0.0,0.0,0.0,0.0,0.0,0.0,0.0,0.0,0.0,0.0,0.0,0.0,0.0,0.0,0.0,0.0,0.0,0.0,0.0,0.0,0.0,0.0,0.0,0.0,0.0,0.0,0.0,0.0,0.0,0.0,0.0,0.0,0.0,0.0,0.0,0.0,0.0,0.0,0.0,0.0,0.0,0.0,0.0,0.0,0.0,0.0,0.0,0.0,0.0,0.0,0.0,0.0,0.0,0.0,0.0,0.0,0.0,0.0,0.0,0.0,0.0,0.0,0.0,0.0,0.0,0.0,0.0,0.0,0.0,0.0,0.0,0.0,0.0,0.0,0.0,0.0,0.0,0.0,0.0,0.0,0.0,0.0,0.0,0.0,0.0,0.0,0.0,0.0,1.4112,1.2913,1.1799,1.0886,0.0,0.0,0.0,0.0,0.0,0.0,0.0,0.0,0.0,0.0,0.0,0.0,0.0,0.0,0.0,0.0,0.0,0.0,0.0,0.0,0.0,0.0,0.0,0.0,0.0,0.0,0.0,0.0,0.0,0.0,0.0,0.0,0.0,0.0,0.0,0.0,0.0,0.0,0.0,0.0,0.0,0.0,0.0,0.0,0.0,0.0,0.0,0.0,0.0,0.0,0.0,0.0,0.0,0.0,0.0,0.0,0.0,0.0,0.0,0.0,0.0,0.0,0.0,0.0,0.0,0.0,0.0,0.0,0.0,0.0,0.0,0.0,0.0,0.0,0.0,0.0,0.0,0.0,0.0,0.0,0.0,0.0,0.0,0.0,0.0,0.0,0.0,0.0,0.0,0.0,0.0,0.0,0.0,0.0,0.0,0.0,0.0,0.0,0.0,0.0,0.0,0.0,0.0,0.0,0.0,0.0,0.0,0.0,0.0,0.0,1.5176,1.4026,1.255,1.124,1.0604,1.061,0.0,0.0,0.0,0.0,0.0,0.0,0.0,0.0,0.0,0.0,0.0,0.0,0.0,0.0,0.0,0.0,0.0,0.0,0.0,0.0,0.0,0.0,0.0,0.0,0.0,0.0,0.0,0.0,0.0,0.0,0.0,0.0,0.0,0.0,0.0,0.0,0.0,0.0,0.0,0.0,0.0,0.0,0.0,0.0,0.0,0.0,0.0,0.0,0.0,0.0,0.0,0.0,0.0,0.0,0.0,0.0,0.0,0.0,0.0,0.0,0.0,0.0,0.0,0.0,0.0,0.0,0.0,0.0,0.0,0.0,0.0,0.0,0.0,0.0,0.0,0.0,0.0,0.0,0.0,0.0,0.0,0.0,0.0,0.0,0.0,0.0,0.0,0.0,0.0,0.0,0.0,0.0,0.0,0.0,0.0,0.0,0.0,0.0,0.0,0.0,0.0,0.0,0.0,0.0,0.0,0.0,0.0,0.0,1.5789,1.5171,1.3968,1.2081,1.1167,1.0665,0.0,0.0,0.0,0.0,0.0,0.0,0.0,0.0,0.0,0.0,0.0,0.0,0.0,0.0,0.0,0.0,0.0,0.0,0.0,0.0,0.0,0.0,0.0,0.0,0.0,0.0,0.0,0.0,0.0,0.0,0.0,0.0,0.0,0.0,0.0,0.0,0.0,0.0,0.0,0.0,0.0,0.0,0.0,0.0,0.0,0.0,0.0,0.0,0.0,0.0,0.0,0.0,0.0,0.0,0.0,0.0,0.0,0.0,0.0,0.0,0.0,0.0,0.0,0.0,0.0,0.0,0.0,0.0,0.0,0.0,0.0,0.0,0.0,0.0,0.0,0.0,0.0,0.0,0.0,0.0,0.0,0.0,0.0,0.0,0.0,0.0,0.0,0.0,0.0,0.0,0.0,0.0,0.0,0.0,0.0,0.0,0.0,0.0,0.0,0.0,0.0,0.0,0.0,0.0,0.0,0.0,0.0,0.0,0.0,1.6946,1.5118,1.3438,1.2046,1.1052,1.0535,0.0,0.0,0.0,0.0,0.0,0.0,0.0,0.0,0.0,0.0,0.0,0.0,0.0,0.0,0.0,0.0,0.0,0.0,0.0,0.0,0.0,0.0,0.0,0.0,0.0,0.0,0.0,0.0,0.0,0.0,0.0,0.0,0.0,0.0,0.0,0.0,0.0,0.0,0.0,0.0,0.0,0.0,0.0,0.0,0.0,0.0,0.0,0.0,0.0,0.0,0.0,0.0,0.0,0.0,0.0,0.0,0.0,0.0,0.0,0.0,0.0,0.0,0.0,0.0,0.0,0.0,0.0,0.0,0.0,0.0,0.0,0.0,0.0,0.0,0.0,0.0,0.0,0.0,0.0,0.0,0.0,0.0,0.0,0.0,0.0,0.0,0.0,0.0,0.0,0.0,0.0,0.0,0.0,0.0,0.0,0.0,0.0,0.0,0.0,0.0,0.0,0.0,0.0,0.0,0.0,0.0,0.0,0.0,0.0,1.7343,0.0,1.3334,1.2078,1.1087,1.0447,0.0,0.0,0.0,0.0,0.0,0.0,0.0,0.0,0.0,0.0,0.0,0.0,0.0,0.0,0.0,0.0,0.0,0.0,0.0,0.0,0.0,0.0,0.0,0.0,0.0,0.0,0.0,0.0,0.0,0.0,0.0,0.0,0.0,0.0,0.0,0.0,0.0,0.0,0.0,0.0,0.0,0.0,0.0,0.0,0.0,0.0,0.0,0.0,0.0,0.0,0.0,0.0,0.0,0.0,0.0,0.0,0.0,0.0,0.0,0.0,0.0,0.0,0.0,0.0,0.0,0.0,0.0,0.0,0.0,0.0,0.0,0.0,0.0,0.0,0.0,0.0,0.0,0.0,0.0,0.0,0.0,0.0,0.0,0.0,0.0,0.0,0.0,0.0,0.0,0.0,0.0,0.0,0.0,0.0,0.0,0.0,0.0,0.0,0.0,0.0,0.0,0.0,0.0,0.0,0.0,0.0,0.0,0.0,1.8626,1.6661,1.5173,1.3666,1.2216,1.1093,1.0451,0.0,0.0,0.0,0.0,0.0,0.0,0.0,0.0,0.0,0.0,0.0,0.0,0.0,0.0,0.0,0.0,0.0,0.0,0.0,0.0,0.0,0.0,0.0,0.0,0.0,0.0,0.0,0.0,0.0,0.0,0.0,0.0,0.0,0.0,0.0,0.0,0.0,0.0,0.0,0.0,0.0,0.0,0.0,0.0,0.0,0.0,0.0,0.0,0.0,0.0,0.0,0.0,0.0,0.0,0.0,0.0,0.0,0.0,0.0,0.0,0.0,0.0,0.0,0.0,0.0,0.0,0.0,0.0,0.0,0.0,0.0,0.0,0.0,0.0,0.0,0.0,0.0,0.0,0.0,0.0,0.0,0.0,0.0,0.0,0.0,0.0,0.0,0.0,0.0,0.0,0.0,0.0,0.0,0.0,0.0,0.0,0.0,0.0,0.0,0.0,0.0,0.0,0.0,0.0,0.0,0.0,0.0,0.0,0.0,1.698,1.5365,1.3518,1.1382,1.0412,0.9497,0.0,0.0,0.0,0.0,0.0,0.0,0.0,0.0,0.0,0.0,0.0,0.0,0.0,0.0,0.0,0.0,0.0,0.0,0.0,0.0,0.0,0.0,0.0,0.0,0.0,0.0,0.0,0.0,0.0,0.0,0.0,0.0,0.0,0.0,0.0,0.0,0.0,0.0,0.0,0.0,0.0,0.0,0.0,0.0,0.0,0.0,0.0,0.0,0.0,0.0,0.0,0.0,0.0,0.0,0.0,0.0,0.0,0.0,0.0,0.0,0.0,0.0,0.0,0.0,0.0,0.0,0.0,0.0,0.0,0.0,0.0,0.0,0.0,0.0,0.0,0.0,0.0,0.0,0.0,0.0,0.0,0.0,0.0,0.0,0.0,0.0,0.0,0.0,0.0,0.0,0.0,0.0,0.0,0.0,0.0,0.0,0.0,0.0,0.0,0.0,0.0,0.0,0.0,0.0,0.0,0.0,0.0,0.0,0.0,1.5338,1.3527,1.1526,0.9392,0.8097,0.7575,0.7791,0.0,0.0,0.0,0.0,0.0,0.0,0.0,0.0,0.0,0.0,0.0,0.0,0.0,0.0,0.0,0.0,0.0,0.0,0.0,0.0,0.0,0.0,0.0,0.0,0.0,0.0,0.0,0.0,0.0,0.0,0.0,0.0,0.0,0.0,0.0,0.0,0.0,0.0,0.0,0.0,0.0,0.0,0.0,0.0,0.0,0.0,0.0,0.0,0.0,0.0,0.0,0.0,0.0,0.0,0.0,0.0,0.0,0.0,0.0,0.0,0.0,0.0,0.0,0.0,0.0,0.0,0.0,0.0,0.0,0.0,0.0,0.0,0.0,0.0,0.0,0.0,0.0,0.0,0.0,0.0,0.0,0.0,0.0,0.0,0.0,0.0,0.0,0.0,0.0,0.0,0.0,0.0,0.0,0.0,0.0,0.0,0.0,0.0,0.0,0.0,0.0,0.0,0.0,0.0,0.0,0.0,0.0,0.0,1.2063,0.9712,0.7775,0.6353,0.4702,0.4905,0.0,0.0,0.0,0.0,0.0,0.0,0.0,0.0,0.0,0.0,0.0,0.0,0.0,0.0,0.0,0.0,0.0,0.0,0.0,0.0,0.0,0.0,0.0,0.0,0.0,0.0,0.0,0.0,0.0,0.0,0.0,0.0,0.0,0.0,0.0,0.0,0.0,0.0,0.0,0.0,0.0,0.0,0.0,0.0,0.0,0.0,0.0,0.0,0.0,0.0,0.0,0.0,0.0,0.0,0.0,0.0,0.0,0.0,0.0,0.0,0.0,0.0,0.0,0.0,0.0,0.0,0.0,0.0,0.0,0.0,0.0,0.0,0.0,0.0,0.0,0.0,0.0,0.0,0.0,0.0,0.0,0.0,0.0,0.0,0.0,0.0,0.0,0.0,0.0,0.0,0.0,0.0,0.0,0.0,0.0,0.0,0.0,0.0,0.0,0.0,0.0,0.0,0.0,0.0,0.0,0.0,0.0,0.0,0.0,0.8593,0.3658,0.1323,0.1943,0.284,0.3085,0.0,0.0,0.0,0.0,0.0,0.0,0.0,0.0,0.0,0.0,0.0,0.0,0.0,0.0,0.0,0.0,0.0,0.0,0.0,0.0,0.0,0.0,0.0,0.0,0.0,0.0,0.0,0.0,0.0,0.0,0.0,0.0,0.0,0.0,0.0,0.0,0.0,0.0,0.0,0.0,0.0,0.0,0.0,0.0,0.0,0.0,0.0,0.0,0.0,0.0,0.0,0.0,0.0,0.0,0.0,0.0,0.0,0.0,0.0,0.0,0.0,0.0,0.0,0.0,0.0,0.0,0.0,0.0,0.0,0.0,0.0,0.0,0.0,0.0,0.0,0.0,0.0,0.0,0.0,0.0,0.0,0.0,0.0,0.0,0.0,0.0,0.0,0.0,0.0,0.0,0.0,0.0,0.0,0.0,0.0,0.0,0.0,0.0,0.0,0.0,0.0,0.0,0.0,0.0,0.0,0.0,0.0,0.0,1.0732,0.6885,0.0141,-0.3439,-0.3472,-0.0969,0.0592,0.0,0.0,0.0,0.0,0.0,0.0,0.0,0.0,0.0,0.0,0.0,0.0,0.0,0.0,0.0,0.0,0.0,0.0,0.0,0.0,0.0,0.0,0.0,0.0,0.0,0.0,0.0,0.0,0.0,0.0,0.0,0.0,0.0,0.0,0.0,0.0,0.0,0.0,0.0,0.0,0.0,0.0,0.0,0.0,0.0,0.0,0.0,0.0,0.0,0.0,0.0,0.0,0.0,0.0,0.0,0.0,0.0,0.0,0.0,0.0,0.0,0.0,0.0,0.0,0.0,0.0,0.0,0.0,0.0,0.0,0.0,0.0,0.0,0.0,0.0,0.0,0.0,0.0,0.0,0.0,0.0,0.0,0.0,0.0,0.0,0.0,0.0,0.0,0.0,0.0,0.0,0.0,0.0,0.0,0.0,0.0,0.0,0.0,0.0,0.0,0.0,0.0,0.0,0.0,0.0,0.0,0.0,0.0,0.8674,0.6012,-0.1528,-0.6576,-0.8453,-0.5155,-0.2029,0.0,0.0,0.0,0.0,0.0,0.0,0.0,0.0,0.0,0.0,0.0,0.0,0.0,0.0,0.0,0.0,0.0,0.0,0.0,0.0,0.0,0.0,0.0,0.0,0.0,0.0,0.0,0.0,0.0,0.0,0.0,0.0,0.0,0.0,0.0,0.0,0.0,0.0,0.0,0.0,0.0,0.0,0.0,0.0,0.0,0.0,0.0,0.0,0.0,0.0,0.0,0.0,0.0,0.0,0.0,0.0,0.0,0.0,0.0,0.0,0.0,0.0,0.0,0.0,0.0,0.0,0.0,0.0,0.0,0.0,0.0,0.0,0.0,0.0,0.0,0.0,0.0,0.0,0.0,0.0,0.0,0.0,0.0,0.0,0.0,0.0,0.0,0.0,0.0,0.0,0.0,0.0,0.0,0.0,0.0,0.0,0.0,0.0,0.0,0.0,0.0,0.0,0.0,0.0,0.0,0.0,0.0,0.0,0.7554,0.369,-0.2231,-0.6257,-0.832,-0.4995,-0.3127,0.0,0.0,0.0,0.0,0.0,0.0,0.0,0.0,0.0,0.0,0.0,0.0,0.0,0.0,0.0,0.0,0.0,0.0,0.0,0.0,0.0,0.0,0.0,0.0,0.0,0.0,0.0,0.0,0.0,0.0,0.0,0.0,0.0,0.0,0.0,0.0,0.0,0.0,0.0,0.0,0.0,0.0,0.0,0.0,0.0,0.0,0.0,0.0,0.8351,0.0,0.0,0.0,0.0,0.0,0.0,0.0,0.0,0.0,0.0,0.0,0.0,0.0,0.0,0.0,0.0,0.0,0.0,0.0,0.0,0.0,0.0,0.0,0.0,0.0,0.0,0.0,0.0,0.0,0.0,0.0,0.0,0.0,0.0,0.0,0.0,0.0,0.0,0.0,0.0,0.0,0.0,0.0,0.0,0.0,0.0,0.0,0.0,0.0,0.0,0.0,0.0,0.0,0.0,0.0,0.0,0.0,0.0,0.0,0.7027,0.259,-0.2152,-0.5719,-0.7865,-0.5869,-0.449,0.0,0.0,0.0,0.0,0.0,0.0,0.0,0.0,0.0,0.0,0.0,0.0,0.0,0.0,0.0,0.0,0.0,0.0,0.0,0.0,0.0,0.0,0.0,0.0,0.0,0.0,0.0,0.0,0.0,0.0,0.0,0.0,0.0,0.0,0.0,0.0,0.0,0.0,0.0,0.0,0.0,0.0,0.0,0.0,0.0,0.0,0.0,0.0,0.0,0.0,0.0,0.0,0.0,0.0,0.0,0.0,0.0,0.0,0.0,0.0,0.0,0.0,0.0,0.0,0.0,0.0,0.0,0.0,0.0,0.0,0.0,0.0,0.0,0.0,0.0,0.0,0.0,0.0,0.0,0.0,0.0,0.0,0.0,0.0,0.0,0.0,0.0,0.0,0.0,0.0,0.0,0.0,0.0,0.0,0.0,0.0,0.0,0.0,0.0,0.0,0.0,0.0,0.0,0.0,0.0,0.0,0.0,1.0674,0.664,0.1811,-0.1842,-0.5,-0.7567,-0.6804,-0.556,-0.3833,0.0,0.0,0.0,0.0,0.0,0.0,0.0,0.0,0.0,0.0,0.0,0.0,0.0,0.0,0.0,0.0,0.0,0.0,0.0,0.0,0.0,0.0,0.0,0.0,0.0,0.0,0.0,0.0,0.0,0.0,0.0,0.0,0.0,0.0,0.0,0.0,0.0,0.0,1.8072,1.6184,0.0,0.0,0.0,0.0,0.0,0.0,0.0,0.0,0.7541,0.0,0.0,0.0,0.0,0.0,0.0,0.0,0.0,0.0,0.0,0.0,0.0,0.0,0.0,0.0,0.0,0.0,0.0,0.0,0.0,0.0,0.0,0.0,0.0,0.0,0.0,0.0,0.0,0.0,0.0,0.0,0.0,0.0,0.0,0.0,0.0,0.0,0.0,0.0,0.0,0.0,0.0,0.0,0.0,0.0,0.0,0.0,0.0,0.0,0.0,0.0,0.0,0.0,0.0,0.0,0.0,1.1718,0.9956,0.6048,-0.0089,-0.1964,-0.4241,-0.6948,-0.6246,-0.5105,-0.3631,0.0,0.0,0.0,0.0,0.0,0.0,0.0,0.0,0.0,0.0,0.0,0.0,0.0,0.0,0.0,0.0,0.0,0.0,0.0,0.0,0.0,0.0,0.0,0.0,0.0,0.0,0.0,0.0,0.0,0.0,0.0,0.0,0.0,0.0,0.0,0.0,0.0,0.0,0.0,1.6396,1.4908,0.0,0.0,0.0,0.0,0.0,0.0,0.0,0.0,0.7004,0.0,0.0,0.0,0.0,0.0,0.0,0.0,0.0,0.0,0.0,0.0,0.0,0.0,0.0,0.0,0.0,0.0,0.0,0.0,0.0,0.0,0.0,0.0,0.0,0.0,0.0,0.0,0.0,0.0,0.0,0.0,0.0,0.0,0.0,0.0,0.0,0.0,0.0,0.0,0.0,0.0,0.0,0.0,0.0,0.0,0.0,0.0,0.0,0.0,0.0,0.0,0.0,0.0,0.0,0.0,1.1584,0.9192,0.5318,-0.0134,-0.131,-0.3342,-0.6337,-0.5474,-0.4367,0.0,0.0,0.0,0.0,0.0,0.0,0.0,0.0,0.0,0.0,0.0,0.0,0.0,0.0,0.0,0.0,0.0,0.0,0.0,0.0,0.0,0.0,0.0,0.0,0.0,0.0,0.0,0.0,0.0,0.0,0.0,0.0,0.0,0.0,0.0,0.0,0.0,0.0,0.0,0.0,1.734,1.6018,1.4961,0.0,0.0,0.0,0.0,0.0,0.0,0.835,0.776,0.0,0.0,0.0,0.0,0.0,0.0,0.0,0.0,0.0,0.0,0.0,0.0,0.0,0.0,0.0,0.0,0.0,0.0,0.0,0.0,0.0,0.0,0.0,0.0,0.0,0.0,0.0,0.0,0.0,0.0,0.0,0.0,0.0,0.0,0.0,0.0,0.0,0.0,0.0,0.0,0.0,0.0,0.0,0.0,0.0,0.0,0.0,0.0,0.0,0.0,0.0,0.0,0.0,0.0,0.0,1.178,0.8751,0.4949,0.0447,-0.0582,-0.2484,-0.5423,-0.4133,-0.3077,0.0,0.0,0.0,0.0,0.0,0.0,0.0,0.0,0.0,0.0,0.0,0.0,0.0,0.0,0.0,0.0,0.0,0.0,0.0,0.0,0.0,0.0,0.0,0.0,0.0,0.0,0.0,0.0,0.0,0.0,0.0,0.0,0.0,0.0,0.0,0.0,0.0,0.0,0.0,0.0,0.0,1.7265,1.5905,1.4844,0.0,0.0,0.0,0.0,0.9522,0.9216,0.0,0.0,0.0,0.0,0.0,0.0,0.0,0.0,0.0,0.0,0.0,0.0,0.0,0.0,0.0,0.0,0.0,0.0,0.0,0.0,0.0,0.0,0.0,0.0,0.0,0.0,0.0,0.0,0.0,0.0,0.0,0.0,0.0,0.0,0.0,0.0,0.0,0.0,0.0,0.0,0.0,0.0,0.0,0.0,0.0,0.0,0.0,0.0,0.0,0.0,0.0,0.0,0.0,0.0,0.0,0.0,1.1612,0.9185,0.5695,0.1206,-0.0134,-0.1806,-0.3956,-0.1352,-0.0485,0.0,0.0,0.0,0.0,0.0,0.0,0.0,0.0,0.0,0.0,0.0,0.0,0.0,0.0,0.0,0.0,0.0,0.0,0.0,0.0,0.0,0.0,0.0,0.0,0.0,0.0,0.0,0.0,0.0,0.0,0.0,0.0,0.0,0.0,0.0,0.0,0.0,0.0,0.0,0.0,0.0,1.8199,1.653,1.5439,1.44,0.0,0.0,1.2183,1.1143,1.0729,0.0,0.0,0.0,0.0,0.0,0.0,0.0,0.0,0.0,0.0,0.0,0.0,0.0,0.0,0.0,0.0,0.0,0.0,0.0,0.0,0.0,0.0,0.0,0.0,0.0,0.0,0.0,0.0,0.0,0.0,0.0,0.0,0.0,0.0,0.0,0.0,0.0,0.0,0.0,0.0,0.0,0.0,0.0,0.0,0.0,0.0,0.0,0.0,0.0,0.0,0.0,0.0,0.0,0.0,0.0,1.4171,1.2247,0.8533,0.5198,0.2367,0.0447,-0.1303,-0.2854,-0.0355,0.0564,0.0,0.0,0.0,0.0,0.0,0.0,0.0,0.0,0.0,0.0,0.0,0.0,0.0,0.0,0.0,0.0,0.0,0.0,0.0,0.0,0.0,0.0,0.0,0.0,0.0,0.0,0.0,0.0,0.0,0.0,0.0,0.0,0.0,0.0,0.0,0.0,0.0,0.0,0.0,0.0,0.0,0.0,1.7415,1.6647,0.0,0.0,0.0,1.295,1.186,0.0,0.0,0.0,0.0,0.0,0.0,0.0,0.0,0.0,0.0,0.0,0.0,0.0,0.0,0.0,0.0,0.0,0.0,0.0,0.0,0.0,0.0,0.0,0.0,0.0,0.0,0.0,0.0,0.0,0.0,0.0,0.0,0.0,0.0,0.0,0.0,0.0,0.0,0.0,0.0,0.0,0.0,0.0,0.0,0.0,0.0,0.0,0.0,0.0,0.0,0.0,0.0,0.0,0.0,0.0,0.0,0.0,1.2764,0.8083,0.491,0.3393,0.1164,-0.0538,-0.1567,0.0176,0.0,0.0,0.0,0.0,0.0,0.0,0.0,0.0,0.0,0.0,0.0,0.0,0.0,0.0,0.0,0.0,0.0,0.0,0.0,0.0,0.0,0.0,0.0,0.0,0.0,0.0,0.0,1.5014,0.0,0.0,0.0,0.0,0.0,0.0,0.0,0.0,0.0,0.0,0.0,0.0,0.0,0.0,1.9887,1.8329,1.7808,1.7127,0.0,0.0,1.3895,1.3017,1.3,1.2596,0.0,0.0,0.0,0.0,0.0,0.0,0.0,0.0,0.0,0.0,0.0,0.0,0.0,0.0,0.0,0.0,0.0,0.0,0.0,0.0,0.0,0.0,0.0,0.0,0.0,0.0,0.0,0.0,0.0,0.0,0.0,0.0,0.0,0.0,0.0,0.0,0.0,0.0,0.0,0.0,0.0,0.0,0.0,0.0,0.0,0.0,0.0,0.0,0.0,0.0,0.0,0.0,0.0,0.0,1.39,1.2536,0.8479,0.5531,0.3892,0.1971,0.0628,-0.009,0.0447,0.105,0.0,0.0,0.0,0.0,0.0,0.0,0.0,0.0,0.0,0.0,0.0,0.0,0.0,0.0,0.0,0.0,0.0,0.0,0.0,0.0,0.0,0.0,0.0,0.0,0.0,0.0,0.0,0.0,0.0,0.0,0.0,0.0,0.0,0.0,0.0,0.0,0.0,0.0,0.0,0.0,0.0,2.0297,1.9147,1.8655,1.818,0.0,1.6284,1.5346,1.5275,1.4584,1.3742,1.2812,0.0,0.0,0.0,0.0,0.0,0.0,0.0,0.0,0.0,0.0,0.0,0.0,0.0,0.0,0.0,0.0,0.0,0.0,0.0,0.0,0.0,0.0,0.0,0.0,0.0,0.0,0.0,0.0,0.0,0.0,0.0,0.0,0.0,0.0,0.0,0.0,0.0,0.0,0.0,0.0,0.0,0.0,0.0,0.0,0.0,0.0,0.0,0.0,0.0,0.0,0.0,0.0,0.0,1.3983,1.3006,0.8918,0.6195,0.4825,0.295,0.1566,0.0718,0.1253,0.1925,0.0,0.0,0.0,0.0,0.0,0.0,0.0,0.0,0.0,0.0,0.0,0.0,0.0,0.0,0.0,0.0,0.0,0.0,0.0,0.0,0.0,0.0,0.0,0.0,0.0,0.0,0.0,0.0,1.6994,1.7417,1.7636,0.0,0.0,0.0,0.0,0.0,0.0,0.0,0.0,0.0,0.0,2.0842,2.021,2.0112,0.0,0.0,1.7993,1.713,1.5992,1.5807,1.5122,1.3105,1.2739,0.0,0.0,0.0,0.0,0.0,0.0,0.0,0.0,0.0,0.0,0.0,0.0,0.0,0.0,0.0,0.0,0.0,0.0,0.0,0.0,0.0,0.0,0.0,0.0,0.0,0.0,0.0,0.0,0.0,0.0,0.0,0.0,0.0,0.0,0.0,0.0,0.0,0.0,0.0,0.0,0.0,0.0,0.0,0.0,0.0,0.0,0.0,0.0,0.0,0.0,0.0,0.0,1.3941,1.318,0.9178,0.6596,0.5492,0.3798,0.246,0.1568,0.1836,0.2415,0.0,0.0,0.0,0.0,0.0,0.0,0.0,0.0,0.0,0.0,0.0,0.0,0.0,0.0,0.0,0.0,0.0,0.0,0.0,0.0,0.0,0.0,0.0,0.0,0.0,0.0,0.0,0.0,1.6974,1.7447,1.7776,0.0,0.0,0.0,0.0,0.0,0.0,0.0,0.0,0.0,0.0,2.1287,2.0736,2.0682,2.0329,1.916,1.854,1.7624,1.6192,1.6189,1.5796,1.4044,0.0,0.0,0.0,0.0,0.0,0.0,0.0,0.0,0.0,0.0,0.0,0.0,0.0,0.0,0.0,0.0,0.0,0.0,0.0,0.0,0.0,0.0,0.0,0.0,0.0,0.0,0.0,0.0,0.0,0.0,1.1403,0.0,0.0,0.0,0.0,0.0,0.0,0.0,0.0,0.0,0.0,0.0,0.0,0.0,0.0,0.0,0.0,0.0,0.0,0.0,0.0,0.0,0.0,1.3864,1.2898,0.9144,0.6684,0.5719,0.4516,0.3401,0.2508,0.2061,0.2175,0.2992,0.0,0.0,0.0,0.0,0.0,0.0,0.0,0.0,0.0,0.0,0.0,0.0,0.0,0.0,0.0,0.0,0.0,0.0,0.0,0.0,0.0,0.0,0.0,0.0,0.0,0.0,1.5173,1.6163,1.7178,0.0,0.0,0.0,0.0,0.0,0.0,0.0,0.0,0.0,0.0,2.1193,2.1571,2.0451,2.0079,1.9623,1.8575,1.7478,1.6547,1.6066,1.5752,1.5639,0.0,0.0,0.0,0.0,0.0,0.0,0.0,0.0,0.0,0.0,0.0,0.0,0.0,0.0,0.0,0.0,0.0,0.0,0.0,0.0,0.0,0.0,0.0,0.0,0.0,0.0,0.0,0.9156,1.0121,0.0,0.0,0.0,0.0,0.0,0.0,0.0,0.0,0.0,0.0,0.0,1.7606,1.754,0.0,0.0,0.0,0.0,0.0,0.0,0.0,0.0,0.0,0.0,0.0,0.0,1.4226,1.3073,1.0067,0.7826,0.647,0.5411,0.4429,0.3491,0.3002,0.3105,0.3905,0.0,0.0,0.0,0.0,0.0,0.0,0.0,0.0,0.0,0.0,0.0,0.0,0.0,0.0,0.0,0.0,0.0,0.0,0.0,0.0,0.0,0.0,0.0,0.0,0.0,1.6228,0.0,0.0,0.0,0.0,0.0,0.0,0.0,0.0,0.0,0.0,0.0,2.1235,2.1023,2.0741,2.0464,2.0329,2.0055,2.0135,0.0,0.0,0.0,0.0,0.0,0.0,0.0,0.0,0.0,0.0,0.0,0.0,0.0,0.0,1.8661,1.7772,1.8144,1.8707,1.9078,0.0,0.0,0.0,0.0,0.0,0.0,0.0,0.0,0.0,0.0,0.0,0.0,0.0,0.0,1.0616,0.0,1.1468,0.0,0.0,0.0,0.0,0.0,0.0,0.0,0.0,1.7843,1.8209,1.853,1.8522,1.8372,0.0,1.8168,1.7951,0.0,0.0,0.0,0.0,0.0,0.0,0.0,0.0,1.449,1.3332,1.0643,0.8558,0.7214,0.6339,0.5502,0.469,0.4293,0.421,0.4469,0.5419,0.6201,0.0,0.0,0.0,0.0,0.0,0.0,0.0,0.0,0.0,0.0,0.0,0.0,0.0,0.0,0.0,0.0,0.0,0.0,0.0,0.0,0.0,0.0,0.0,1.6608,0.0,0.0,0.0,0.0,0.0,0.0,0.0,0.0,0.0,2.0805,2.1671,2.2175,2.1782,2.1436,2.0996,2.0214,0.0,0.0,0.0,0.0,0.0,0.0,0.0,1.7261,1.6824,1.7475,1.8527,1.9941,2.0948,2.1596,2.1596,0.0,0.0,2.05,2.078,2.1311,2.1639,2.1505,2.1354,2.1307,2.1553,2.1518,0.0,0.0,0.0,0.0,0.0,0.0,0.0,0.0,1.2377,1.2194,0.0,1.2619,0.0,0.0,0.0,0.0,0.0,1.7754,0.0,0.0,1.9196,1.9393,1.9026,1.9001,1.882,1.8473,1.9102,1.8943,1.8008,1.7443,0.0,0.0,0.0,0.0,0.0,0.0,1.4573,1.3523,1.081,0.8875,0.7855,0.7249,0.6684,0.6107,0.5849,0.5401,0.4786,0.6046,0.652,0.5934,0.7795,0.0,0.0,0.0,0.0,0.0,0.0,0.0,0.0,0.0,0.0,0.0,0.0,0.0,0.0,0.0,0.0,0.0,0.0,0.0,0.0,1.6306,0.0,0.0,0.0,0.0,0.0,0.0,0.0,0.0,0.0,0.0,2.0755,2.2202,2.3065,2.2247,0.0,0.0,0.0,0.0,2.0771,1.8006,1.7473,1.7239,1.6636,1.7782,1.9138,2.0217,0.0,0.0,2.425,2.3258,2.2436,2.2445,2.3578,2.4121,2.2802,2.2351,2.2348,2.2841,2.2758,2.2485,2.2476,2.272,2.2489,1.21,0.0,0.0,0.0,0.0,1.2535,1.3516,1.4747,1.4786,1.491,1.5058,1.5276,0.0,0.0,0.0,0.0,0.0,0.0,1.8812,1.9288,1.9575,1.9616,1.9523,1.947,1.932,1.899,1.8879,1.8723,1.8425,1.7652,1.7857,1.8843,0.0,0.0,0.0,0.0,1.5061,1.3172,1.153,1.0104,0.8815,0.8159,0.7519,0.6817,0.6729,0.6533,0.6195,0.6401,0.6825,0.7491,0.8091,0.0,0.0,0.0,0.0,0.0,0.0,0.0,0.0,0.0,0.0,0.0,0.0,0.0,0.0,0.0,0.0,0.0,0.0,0.0,1.7057,1.7094,1.6914,0.0,0.0,0.0,0.0,0.0,0.0,0.0,0.0,0.0,2.2378,2.2205,2.1947,0.0,0.0,1.9989,1.9188,1.9899,2.0566,2.0856,2.0423,0.0,2.0724,2.0217,1.9895,2.0224,2.2062,2.3498,2.3691,2.4349,2.489,2.4844,2.5219,2.5442,2.5422,2.5178,2.5183,2.575,2.5676,2.5493,2.5803,2.5752,2.5386,1.6092,1.5325,1.3697,1.3465,1.421,1.485,1.5718,1.6682,1.6912,1.6964,1.681,1.734,1.7275,1.6878,1.7571,0.0,0.0,0.0,1.9684,1.9982,2.028,2.0315,2.026,2.0147,1.9937,1.9674,1.9344,1.9068,1.8837,1.8529,1.8591,1.8891,0.0,0.0,1.7893,1.6731,1.5303,1.3678,1.2141,1.0937,1.0046,0.926,0.858,0.7958,0.8049,0.7921,0.7482,0.7698,0.8093,0.8715,0.9187,1.0038,0.0,0.0,0.0,0.0,0.0,0.0,0.0,0.0,0.0,0.0,0.0,1.7145,1.6091,0.0,0.0,0.0,1.7846,1.806,1.8109,1.7745,0.0,0.0,0.0,0.0,0.0,0.0,0.0,2.083,2.2902,2.4175,2.3421,2.2726,2.258,2.3204,2.2428,2.1534,2.0891,0.0,2.1906,2.2142,2.1786,2.165,2.2122,2.1888,2.1789,2.237,2.3474,2.4436,2.4691,2.5564,2.619,2.6349,2.6267,2.6328,2.6768,2.6562,2.6517,2.7151,2.7087,2.699,2.7259,2.7221,2.684,1.9783,2.007,1.6071,1.5154,1.6358,1.7206,1.7933,1.8657,1.8858,1.8583,1.802,1.8956,1.8946,1.8284,1.9093,0.0,2.0099,2.0648,2.0723,2.0512,2.1111,2.1296,2.1112,2.0866,2.062,2.0338,2.0147,1.9758,1.9203,1.9571,1.9619,1.9271,1.8112,1.7789,1.8215,1.6699,1.5493,1.474,1.2678,1.153,1.1343,1.0514,0.987,0.9426,0.9628,0.9467,0.8803,0.9593,0.9985,0.984,1.0755,1.1499,1.1923,0.0,0.0,0.0,0.0,0.0,0.0,0.0,0.0,0.0,0.0,0.0,0.0,0.0,0.0,0.0,1.9033,0.0,1.9718,1.8787,0.0,0.0,0.0,2.2742,2.5516,2.6015,2.5902,2.5259,0.0,0.0,2.4092,2.3723,2.4415,2.6809,2.6518,2.5475,2.393,2.4131,2.4109,2.2358,2.2189,2.2155,2.2158,2.2977,2.4123,2.5235,2.5861,2.5947,2.6239,2.6393,2.6668,2.6758,2.666,2.6505,2.6919,2.6593,2.6616,2.7107,2.7217,2.7217,2.7283,2.7173,2.6955,2.1204,2.1275,2.0394,2.002,1.9988,1.9715,2.0,2.0664,2.0538,2.0494,2.0523,2.0754,2.0944,2.1053,2.1147,2.1297,2.1495,2.1643,2.1592,2.1432,2.1569,2.1428,2.1095,2.1045,2.0539,1.9723,1.9665,1.9346,1.8786,1.8864,1.8982,1.9063,1.8763,1.8585,1.851,1.7658,1.6524,1.5168,1.3992,1.2922,1.1933,1.1585,1.1346,1.1262,1.1358,1.1278,1.0977,1.1149,1.1316,1.1429,1.1359,1.2126,1.3909,1.3873,0.0,0.0,0.0,0.0,0.0,0.0,0.0,0.0,0.0,1.8129,1.6858,0.0,1.8689,0.0,2.0024,2.1994,2.377,2.388,0.0,0.0,2.5292,2.5634,2.6085,2.7482,2.7505,2.5158,2.6189,2.677,2.5969,2.5583,2.6047,2.7895,2.5646,2.3543,2.2998,2.3662,2.3846,2.3072,2.3524,2.3997,2.3867,2.4268,2.4824,2.5305,2.5648,2.587,2.5732,2.5832,2.5793,2.5359,2.5154,2.5187,2.5541,2.5726,2.6127,2.6497,2.6648,2.6841,2.7208,2.6764,2.6297,2.1624,2.1735,2.1639,2.1725,2.1926,2.1459,2.1436,2.1695,2.1511,2.1535,2.1729,2.1795,2.2092,2.247,2.2284,2.2148,2.2049,2.2229,2.2119,2.176,2.182,2.1658,2.1369,2.0986,2.0409,1.9777,1.9592,1.9285,1.8864,1.8873,1.8957,1.9068,1.9118,1.9123,1.9017,1.8258,1.724,1.6087,1.481,1.3655,1.2687,1.2468,1.2569,1.288,1.2747,1.2781,1.3012,1.315,1.3275,1.3358,1.339,1.3959,1.5191,1.5115,1.5504,0.0,0.0,0.0,0.0,0.0,0.0,0.0,0.0,0.0,0.0,0.0,2.0392,2.0061,2.206,2.3897,2.5103,2.5623,2.6435,2.7832,2.8253,2.881,2.967,3.0645,3.0577,2.8757,2.9067,2.9151,2.8353,2.7577,2.7415,2.8294,2.6565,2.5014,2.4566,2.474,2.486,2.4528,2.491,2.5206,2.509,2.5154,2.5218,2.5207,2.5318,2.5473,2.5469,2.5582,2.5571,2.5389,2.5294,2.5333,2.5654,2.5693,2.5859,2.6219,2.6245,2.642,2.7099,2.6644,2.6225,2.18,2.1938,2.1607,2.202,2.29,2.2755,2.2461,2.218,2.2088,2.2063,2.2129,2.2325,2.2656,2.306,2.2786,2.251,2.2222,2.2591,2.2433,2.1886,2.2006,2.194,2.1703,2.0965,2.0507,2.0241,1.9884,1.9551,1.9324,1.9288,1.9281,1.9314,1.9323,1.9402,1.9525,1.8563,1.7725,1.6987,1.5358,1.4201,1.3601,1.3456,1.368,1.4341,1.4023,1.4134,1.4822,1.511,1.5308,1.5355,1.582,1.6126,1.6257,1.6568,1.6747,0.0,1.7448,0.0,0.0,0.0,0.0,0.0,0.0,0.0,0.0,2.2429,2.2564,2.3143,2.4361,2.5264,2.5644,2.6304,2.7935,3.0771,3.1021,3.1785,3.3837,3.3899,3.3552,3.3039,3.2054,3.1129,3.0191,2.9205,2.8382,2.803,2.7677,2.7053,2.6619,2.6226,2.5988,2.6075,2.5896,2.5576,2.5416,2.5432,2.5355,2.5236,2.5165,2.512,2.5589,2.5655,2.5735,2.5969,2.5896,2.592,2.6306,2.5902,2.5781,2.601,2.5885,2.5998,2.6663,2.6565,2.6319,2.3043,2.293,2.3174,2.3416,2.3627,2.3907,2.3483,2.263,2.2251,2.217,2.2347,2.2402,2.2623,2.2995,2.2636,2.2567,2.2843,2.2918,2.267,2.22,2.2408,2.2243,2.1807,2.1778,2.1479,2.0902,2.0834,2.0527,2.0,1.9827,1.9802,1.9827,1.9584,1.9451,1.9331,0.0,0.0,0.0,1.5956,1.5503,1.5096,1.5251,1.5357,1.5362,1.5469,0.0,1.5583,1.5968,1.6316,1.6601,1.6444,0.0,0.0,0.0,0.0,0.0,0.0,0.0,0.0,0.0,0.0,0.0,2.1421,2.1043,2.1193,2.1531,2.2561,2.4493,2.5299,2.6726,2.9076,2.9995,3.1226,3.304,3.3228,3.3395,3.3832,3.3206,3.2548,3.19,3.124,3.0514,2.9692,2.8826,2.806,2.7439,2.7001,2.6566,2.5932,2.5977,2.5832,2.5303,2.53,2.5052,2.4437,2.4611,2.4995,2.5196,2.5399,2.5473,2.5648,2.5882,2.5741,2.5456,2.5277,2.5192,2.4998,2.5131,2.5324,2.5235,2.552,2.5839,2.5945,2.586,2.5869,2.3417,0.0,2.332,2.3386,0.0,2.3744,2.34,2.2632,2.2704,2.2687,2.2517,2.2387,2.2579,2.2967,2.2461,2.2469,2.2798,2.2617,2.2446,2.2189,2.2062,2.1853,2.1597,2.1352,2.1075,2.0764,2.0643,2.0467,2.0168,2.0035,2.0018,2.0047,1.9895,1.9748,1.948,1.8653,1.7724,1.6759,1.626,1.5915,1.5674,1.5986,1.6229,1.6424,0.0,0.0,0.0,0.0,0.0,0.0,0.0,0.0,0.0,0.0,0.0,1.9222,1.9559,2.0271,2.1431,2.1655,2.2234,2.3396,2.3237,2.2922,2.255,2.3755,2.5013,2.6153,2.7028,2.8355,3.027,3.1197,3.2055,3.303,3.3149,3.301,3.2786,3.2392,3.2085,3.1878,3.1094,3.0347,3.0013,2.8923,2.8097,2.763,2.7294,2.6843,2.6233,2.6073,2.5888,2.5307,2.5405,2.534,2.4896,2.4774,2.4917,2.5262,2.5288,2.5218,2.5159,2.5481,2.5505,2.4954,2.4753,2.4696,2.4838,2.4729,2.4547,2.4595,2.4811,2.4984,2.4981,2.5255,2.5681,2.3588,2.3213,2.325,2.3287,2.3324,2.3545,2.3265,2.2695,0.0,0.0,0.0,2.2346,2.2462,2.2794,2.2297,2.2245,2.2506,2.2246,2.2035,2.1945,2.1599,2.1375,2.1296,2.0816,2.0561,2.0561,2.041,2.0323,2.0323,2.0192,2.0073,2.0041,1.993,1.9622,1.9141,1.8085,1.737,1.7085,1.6481,1.6094,1.5922,1.6272,1.6731,1.7267,1.7597,1.8009,1.8554,1.8369,1.8267,1.8276,1.8648,1.8938,1.9052,1.9255,1.9501,1.9879,2.0303,2.1143,2.2398,2.2896,2.3575,2.4651,2.4843,2.4786,2.4471,2.6162,2.7274,2.7396,2.8357,2.935,3.0271,3.0952,3.1548,3.1912,3.1943,3.1748,3.1433,3.1413,3.145,3.1633,3.0776,3.0157,3.0031,2.893,2.8011,2.7854,2.7499,2.7284,2.6677,2.6251,2.5889,2.5392,2.5527,2.5703,2.5343,2.5005,2.5046,2.5253,2.5052,2.4854,2.4881,2.5128,2.5177,2.4947,2.4652,2.4775,2.5086,2.4602,2.399,2.4145,2.4189,2.4189,2.4259,2.4804,2.5462,2.4141,2.3986,2.4301,2.4468,2.4492,2.4874,2.4366,2.3244,2.2586,2.2138,2.1943,2.2086,2.2155,2.2211,2.2147,2.2124,2.2146,2.2113,2.1867,0.0,2.1531,2.1359,2.0984,2.1181,2.1262,2.1273,2.123,2.123,2.1152,2.0503,2.0081,1.9827,1.896,1.8124,1.7314,1.6946,1.6732,1.6683,1.6465,1.633,1.633,1.6535,1.6806,1.7121,1.7436,1.7765,1.8079,1.8635,1.8942,1.8942,1.9347,1.9502,1.9365,1.9514,1.9663,1.9763,2.0427,2.1345,2.2437,2.3168,2.4084,2.5076,2.5395,2.5395,2.5218,2.5753,2.6365,2.7011,2.7719,2.8411,2.8997,2.95,2.9942,3.0294,3.0173,2.9985,3.0086,3.0244,3.0119,2.9638,2.961,2.9262,2.8559,2.8123,2.7665,2.7134,2.6906,2.6556,2.6272,2.6044,2.5616,2.5015,2.5183,2.5147,2.4718,2.4216,2.445,2.516,2.4766,2.4665,2.5472,2.5536,2.5434,2.5622,2.5302,2.5249,2.511,2.4874,2.4517,2.4311,2.425,2.4179,2.4204,2.4609,2.5027,2.4826,2.4791,2.4969,2.4838,2.4587,2.4164,2.3692,2.3073,2.2428,2.2023,2.1817,2.1845,2.2038,2.2321,2.2021,2.205,2.237,2.2248,2.2025,2.1859,2.1911,2.1815,2.16,2.1443,2.1363,2.1339,2.1037,2.0907,2.0853,2.0372,2.0118,1.9964,1.9058,1.8194,1.7517,1.7154,1.685,1.6597,1.6651,1.6658,1.6668,1.687,1.7051,1.7278,1.7559,1.7807,1.8012,1.821,1.8335,1.8325,1.8524,1.8803,1.9182,1.9459,1.995,2.0638,2.1188,2.1811,2.2521,2.3201,2.3866,2.4458,2.4641,2.4742,2.473,2.5453,2.5996,2.6297,2.6844,2.7395,2.7906,2.8426,2.8869,2.9101,2.9219,2.9401,2.9456,2.9299,2.9146,2.9016,2.8569,2.8095,2.7739,2.7335,2.698,2.6568,2.6445,2.6312,2.6123,2.5966,2.5727,2.5227,2.5221,2.506,2.456,2.4347,2.4422,2.4792,2.452,2.448,2.4875,2.4858,2.4957,2.4748,2.4716,2.484,2.4898,2.4775,2.4625,2.4576,2.4258,2.413,2.4131,2.4378,2.4754,2.5473,2.5376,2.5411,2.5142,2.4536,2.3567,2.3103,2.3003,2.2551,2.2185,2.1902,2.1784,2.2027,2.2447,2.2004,2.2076,2.2444,2.2354,2.2187,2.2005,2.2078,2.1994,2.1801,2.1368,2.1187,2.1151,2.0737,2.0574,2.0517,2.0167,1.9807,1.957,1.8978,1.8419,1.79,1.7484,1.7129,1.686,1.6966,1.6992,1.6879,1.6981,1.7167,1.735,1.7582,1.7777,1.7946,1.7918,1.7855,1.7865,1.7897,1.8243,1.8919,1.9285,1.9944,2.0939,2.133,2.1799,2.2395,2.3067,2.3562,2.3827,2.4058,2.4145,2.4097,2.505,2.5736,2.5775,2.629,2.6779,2.7207,2.7826,2.8218,2.8324,2.8681,2.8957,2.8945,2.8685,2.8491,2.8631,2.7825,2.7272,2.7086,2.6629,2.626,2.6245,2.6272,2.6245,2.6111,2.5975,2.5798,2.5592,2.5355,2.5089,2.4706,2.4591,2.4582,2.4554,2.4382,2.438,2.435,2.4511,2.4496,2.4341,2.4429,2.4768,2.5114,2.5108,2.5064,2.5145,2.4811,2.4267,2.401,2.4185,2.4572,2.6036,2.5645,2.5766,2.5517,2.4852,2.4167,2.3685,2.3391,2.2991,2.258,2.2241,2.2145,2.2181,2.2236,2.219,2.2234,2.2301,2.2457,2.2147,2.1518,2.1708,2.1423,2.0803,2.081,2.0843,2.086,2.0775,2.069,2.0665,1.9945,1.9076,1.8201,1.8006,1.789,1.7584,1.7333,1.7345,1.7595,1.7501,1.7236,1.6821,1.672,1.6832,1.7219,1.7311,1.754,1.7885,1.8163,1.8315,1.8356,1.8498,1.8703,1.8901,1.9066,1.9293,1.9606,1.9885,2.0582,2.1847,2.2763,2.3377,2.3952,2.434,2.4249,2.3523,2.4469,2.535,2.5717,2.6337,2.6748,2.7037,2.7682,2.8088,2.7961,2.8397,2.8511,2.8214,2.8474,2.8445,2.7442,2.7287,2.7193,2.6481,2.612,2.5935,2.5934,2.6111,2.6206,2.6084,2.5975,2.5811,2.5647,2.5397,2.5118,2.4835,2.4664,2.4689,2.4912,2.4436,2.4396,2.477,2.4767,2.4578,2.4683,2.5345,2.5517,2.5635,2.5984,2.608,2.5654,2.5225,2.4667,2.4071,2.3966,2.4246,2.5663,2.5446,2.5524,2.5141,2.4469,2.3882,2.3611,2.3543,2.3402,2.3288,2.3335,2.3335,2.3017,2.2525,2.2787,2.2957,2.3047,2.2993,2.2685,2.2197,2.1967,2.1606,2.1103,2.0838,2.0729,2.0692,2.0395,2.0234,2.0116,1.9612,1.903,1.8476,1.8275,1.8139,1.803,1.7838,1.7865,1.8111,1.8154,1.8045,1.7815,1.7374,1.7344,1.7666,1.7614,1.7702,1.7975,1.8151,1.8208,1.8123,1.8265,1.8526,1.8876,1.901,1.9321,1.9767,2.0053,2.0505,2.1199,2.1661,2.2065,2.2418,2.2807,2.2945,2.2866,2.3431,2.4068,2.4771,2.552,2.6098,2.631,2.7232,2.7769,2.7591,2.8255,2.8598,2.788,2.769,2.7312,2.6553,2.6116,2.5872,2.5598,2.5493,2.5522,2.5633,2.5825,2.5921,2.5866,2.5811,2.566,2.5453,2.5202,2.5061,2.4892,2.4607,2.4582,2.4641,2.438,2.4369,2.4451,2.4455,2.4246,2.4559,2.5121,2.5352,2.4969,2.5577,2.595,2.5573,2.4752,2.3912,2.3381,2.3613,2.3958,2.5444,2.5301,2.5097,2.4664,2.4126,2.3658,2.3539,2.3688,2.3717,2.3803,2.3867,2.3953,2.3486,2.2753,2.3119,2.3401,2.3467,2.3221,2.2841,2.2435,2.1995,2.1589,2.1194,2.0747,2.0518,2.0469,2.0128,1.9875,1.9785,1.9474,1.9146,1.8839,1.861,1.8514,1.8503,1.8329,1.8356,1.8556,1.8679,1.8721,1.8679,1.829,1.8073,1.8177,1.7925,1.7909,1.8084,1.8084,1.8057,1.7963,1.8057,1.8311,1.8739,1.8918,1.9289,1.988,2.0229,2.0471,2.0625,2.0985,2.1281,2.1478,2.1814,2.2107,2.2365,2.279,2.323,2.3687,2.4735,2.5507,2.5786,2.6792,2.7294,2.7098,2.8072,2.8381,2.7721,2.7206,2.6778,2.6185,2.5691,2.4968,2.4946,2.5005,2.5146,2.5272,2.5425,2.5564,2.5564,2.5564,2.5453,2.5174,2.5005,2.485,2.4793,2.4536,2.4379,2.4276,2.4138,2.3959,2.3979,2.3979,2.4008,2.4458,2.49,2.5117,2.5001,2.5333,2.5542,2.481,2.4148,2.3478,2.3016,2.3369,2.3688,2.5853,2.5269,2.4478,2.4125,2.4067,2.3708,2.3679,2.3833,2.3972,2.3744,2.3345,2.3571,2.3197,2.2434,2.2946,2.3221,2.3184,2.2921,2.2406,2.1707,2.1564,2.1147,2.0462,2.0182,2.0118,2.0271,2.0207,2.0042,1.9798,1.9656,1.937,1.9013,1.8866,1.8798,1.8798,1.8679,1.8721,1.8987,1.9013,1.9052,1.9196,1.9237,1.8972,1.8464,1.822,1.8139,1.8139,1.8111,1.8111,1.8111,1.8139,1.8243,1.8441,1.8696,1.9042,1.9448,1.9932,2.0229,2.0357,2.1087,2.1612,2.1733,2.2163,2.2432,2.2109,2.2831,2.3222,2.2859,2.4285,2.5286,2.5713,2.6581,2.7089,2.7046,2.7466,2.7713,2.7508,2.7232,2.7053,2.6625,2.5918,2.5262,2.4731,2.4734,2.482,2.4905,2.5061,2.5188,2.5202,2.5188,2.5132,2.5005,2.4778,2.4549,2.4392,2.4305,2.4232,2.4261,2.4203,2.3894,2.407,2.4187,2.4245,2.4363,2.4796,2.5049,2.5105,2.5105,2.512,2.4754,2.4376,2.3777,2.3053,2.3187,2.3429,2.4354,2.4177,2.3838,2.3622,2.3444,2.3252,2.321,2.3319,2.3292,2.3255,2.3259,2.342,2.3298,2.3003,2.2815,2.2831,2.2909,2.2629,2.2228,2.1744,2.1374,2.0945,2.0536,2.0346,2.0271,2.0296,2.022,2.0156,2.0042,1.9926,1.981,1.9642,1.9408,1.9356,1.9408,1.9303,1.937,1.9592,1.9642,1.9668,1.9682,1.9746,1.9617,1.9317,1.9133,1.8999,1.8825,1.896,1.8907,1.8556,1.8786,1.8893,1.8839,1.9025,1.9249,1.9406,1.9907,2.0203,2.0294,2.0862,2.1327,2.1506,2.1785,2.2045,2.2037,2.2419,2.278,2.3196,2.4017,2.4952,2.5716,2.6654,2.7213,2.7032,2.7527,2.7667,2.7111,2.6841,2.6572,2.5911,2.5368,2.4936,2.4629,2.4549,2.4677,2.4706,2.4763,2.482,2.4778,2.4708,2.4679,2.4664,2.4505,2.4303,2.4321,2.4232,2.4216,2.4463,2.4492,2.4334,2.4379,2.4392,2.4421,2.4326,2.4688,2.479,2.4799,2.4622,2.4649,2.4588,2.4197,2.3854,2.3231,2.3245,2.3245,2.3847,2.377,2.3693,2.3513,2.3253,2.3095,2.3109,2.3189,2.3083,2.3094,2.3139,2.32,2.313,2.2832,2.2471,2.2349,2.2436,2.216,2.1945,2.1818,2.1318,2.1008,2.0921,2.0747,2.0698,2.0698,2.0623,2.0548,2.046,2.0334,2.0233,2.0131,1.9901,1.9798,1.985,1.9811,1.9888,2.0029,2.0195,2.0245,2.0156,2.0207,2.0144,1.9965,1.9888,1.9733,1.942,1.9565,1.95,1.9225,1.9382,1.9434,1.9291,1.9382,1.9512,1.9668,2.0029,2.0321,2.0498,2.0908,2.1288,2.152,2.1736,2.1935,2.2114,2.2217,2.2513,2.3074,2.3949,2.4733,2.534,2.6438,2.7133,2.6929,2.7382,2.744,2.6694,2.6456,2.598,2.531,2.4931,2.4649,2.4379,2.4376,2.4419,2.4447,2.4463,2.4492,2.4492,2.4392,2.4305,2.4376,2.4245,2.4157,2.4144,2.4099,2.4232,2.4492,2.465,2.458,2.4637,2.4637,2.4549,2.444,2.4402,2.4452,2.4354,2.4164,2.4128,2.4189,2.4063,2.3816,2.3414,2.317,2.3187,2.4472,2.4255,2.4089,2.3761,2.349,2.3295,2.3379,2.3466,2.3468,2.32,2.2908,2.2905,2.2603,2.2034,2.1979,2.1876,2.1873,2.1667,2.1626,2.1756,2.1426,2.1337,2.1506,2.1264,2.1191,2.1288,2.135,2.1215,2.0959,2.0822,2.066,2.0434,2.0334,2.022,2.0042,2.0207,2.0233,2.0346,2.0635,2.0684,2.0485,2.066,2.0585,2.0283,2.0372,2.0246,1.9811,1.9824,1.9811,1.9759,1.9785,1.9798,1.9759,1.9708,1.9785,2.0131,2.0346,2.061,2.0968,2.1372,2.1674,2.1831,2.2161,2.2347,2.237,2.2356,2.2422,2.2696,2.3702,2.4576,2.4798,2.602,2.6893,2.6808,2.6929,2.6821,2.6545,2.6152,2.5647,2.502,2.4778,2.4549,2.4334,2.4153,2.4069,2.4069,2.4142,2.4173,2.4187,2.4168,2.4189,2.4157,2.4041,2.3982,2.3995,2.4024,2.4261,2.4478,2.4593,2.4637,2.4878,2.4948,2.4821,2.4689,2.456,2.4582,2.4421,2.4245,2.4187,2.4173,2.3982,2.3865,2.3646,2.3417,2.3232,2.3597,2.3629,2.356,2.3421,2.3243,2.3088,2.3018,2.297,2.289,2.2762,2.2654,2.271,2.255,2.2297,2.2208,2.2161,2.2053,2.1807,2.1736,2.1783,2.1674,2.164,2.1674,2.1568,2.1447,2.1423,2.1385,2.135,2.1288,2.124,2.1166,2.1068,2.0945,2.0921,2.0932,2.0934,2.0945,2.1142,2.1191,2.1215,2.1191,2.1019,2.086,2.0761,2.0674,2.0524,2.0296,2.0271,2.0131,1.9824,1.9888,1.9926,1.9939,2.0067,2.0182,2.0372,2.0822,2.1118,2.1313,2.1793,2.2123,2.2217,2.2417,2.2509,2.2509,2.2463,2.25,2.2721,2.3774,2.4543,2.4968,2.6285,2.7027,2.6832,2.6794,2.6765,2.6537,2.6203,2.5797,2.53,2.509,2.4808,2.4343,2.3971,2.3653,2.3526,2.3542,2.357,2.3581,2.3754,2.3927,2.4024,2.3923,2.3829,2.3865,2.4037,2.4347,2.4593,2.4736,2.4907,2.5118,2.5244,2.5103,2.492,2.4793,2.465,2.4478,2.4363,2.4334,2.4203,2.4057,2.394,2.3839,2.3663,2.3442,2.3334,2.3363,2.3319,2.3231,2.3105,2.3001,2.2949,2.283,2.2777,2.2731,2.2754,2.2836,2.2754,2.2586,2.2509,2.2463,2.2426,2.2208,2.2147,2.2147,2.1935,2.1888,2.1949,2.1878,2.1807,2.1698,2.1698,2.1674,2.1616,2.1626,2.1602,2.1544,2.1471,2.1423,2.1496,2.1447,2.152,2.164,2.164,2.164,2.1616,2.1399,2.118,2.1071,2.0898,2.0724,2.0574,2.0612,2.0461,2.0156,2.0131,2.0182,2.0207,2.0372,2.0523,2.0698,2.1131,2.152,2.1712,2.2114,2.2417,2.2486,2.2555,2.2601,2.2592,2.2509,2.2583,2.2833,2.3602,2.4359,2.4901,2.6194,2.699,2.7,2.7141,2.7023,2.6718,2.6268,2.5849,2.5376,2.49,2.4518,2.4095,2.3643,2.3309,2.3159,2.3076,2.3048,2.3098,2.3293,2.3462,2.3686,2.3758,2.3722,2.3757,2.4034,2.4421,2.4721,2.4977,2.5174,2.5411,2.5467,2.5411,2.5146,2.4963,2.4878,2.4721,2.4622,2.4565,2.4363,2.4218,2.416,2.4102,2.3839,2.3633,2.3566,2.3487,2.3363,2.3275,2.3172,2.315,2.315,2.3113,2.3127,2.3113,2.3113,2.315,2.3061,2.2889,2.276,2.2723,2.2836,2.2655,2.2632,2.2618,2.2356,2.2114,2.2123,2.2123,2.21,2.2137,2.2137,2.21,2.1973,2.2006,2.1973,2.1902,2.1888,2.1793,2.1793,2.1793,2.1878,2.1926,2.1973,2.1949,2.1831,2.164,2.1447,2.1204,2.1033,2.0848,2.0648,2.0712,2.07,2.0511,2.0461,2.0486,2.0511,2.0573,2.0747,2.0959,2.1361,2.1722,2.2091,2.2278,2.244,2.2546,2.2592,2.2615,2.2615,2.2555,2.2569,2.2644,2.3315,2.3981,2.4732,2.5952,2.6797,2.7289,2.7595,2.7489,2.6938,2.6367,2.5916,2.5292,2.4441,2.3784,2.3858,2.3399,2.3108,2.2976,2.2871,2.2818,2.2884,2.2974,2.2872,2.3063,2.3402,2.3488,2.348,2.3743,2.4169,2.4806,2.509,2.5342,2.5578,2.5661,2.5688,2.5425,2.5202,2.509,2.5033,2.4948,2.4793,2.4622,2.4536,2.4478,2.4363,2.4189,2.4073,2.3674,2.3588,2.3545,2.3486,2.3465,2.3465,2.3465,2.3465,2.348,2.3458,2.3458,2.348,2.3348,2.3194,2.3127,2.3038,2.2949,2.2859,2.2836,2.2844,2.2623,2.2347,2.2217,2.2194,2.2194,2.2194,2.2194,2.2184,2.2161,2.2301,2.2394,2.2394,2.2402,2.2434,2.2434,2.237,2.2394,2.2347,2.2208,2.2137,2.2006,2.1664,2.1434,2.135,2.1071,2.0837,2.0623,2.0599,2.06,2.0511,2.0587,2.0624,2.0611,2.0785,2.0921,2.1057,2.1461,2.1736,2.1845,2.2217,2.2436,2.2477,2.2637,2.2615,2.2601,2.2523,2.2523,2.2669,2.3173,2.3837,2.4703,2.5961,2.7176,2.8181,2.8009,2.7563,2.7054,2.675,2.632,2.5458,2.4985,2.4548,2.4063,2.355,2.3075,2.2876,2.2713,2.2575,2.2661,2.2991,2.3055,2.2824,2.2964,2.3087,2.323,2.3507,2.3987,2.4797,2.5174,2.5397,2.5619,2.5811,2.5811,2.5729,2.555,2.5411,2.5369,2.5313,2.5131,2.4765,2.4806,2.4778,2.4821,2.4736,2.4708,2.3567,2.3227,2.3233,2.3248,2.3227,2.3248,2.3383,2.3565,2.3595,2.3595,2.3595,2.3595,2.353,2.3414,2.3341,2.3282,2.3179,2.3105,2.3127,2.3157,2.2994,2.2646,2.231,2.2194,2.2194,2.2194,2.2194,2.2231,2.2301,2.244,2.2532,2.2578,2.2646,2.2678,2.2609,2.2509,2.2431,2.237,2.2184,2.2044,2.1996,2.1688,2.1506,2.141,2.1182,2.0936,2.0749,2.0587,2.0524,2.0537,2.0662,2.0762,2.0761,2.1057,2.1204,2.1144,2.1738,2.211,2.2065,2.2498,2.2874,2.2961,2.3092,2.3055,2.2899,2.2776,2.2795,2.2586,2.2917,2.3469,2.4312,2.5566,2.69,2.7868,2.772,2.7284,2.7131,2.6872,2.629,2.5492,2.4881,2.4496,2.3998,2.3448,2.3065,2.2781,2.2608,2.2439,2.2366,2.2886,2.3057,2.2631,2.2684,2.2947,2.3144,2.3375,2.4009,2.4789,2.537,2.5564,2.5647,2.5866,2.5866,2.5811,2.5785,2.5702,2.555,2.5313,2.499,2.4806,2.492,2.4977,2.5005,2.502,2.502,2.3345,2.2744,2.2736,2.2706,2.266,2.2766,2.3071,2.3437,2.3565,2.3595,2.3595,2.3595,2.3573,2.3595,2.3451,2.3436,2.3595,2.3436,2.3458,2.3458,2.3282,2.2926,2.248,2.2356,2.231,2.2287,2.2254,2.2301,2.2394,2.244,2.2509,2.2646,2.2684,2.2661,2.2669,2.244,2.2278,2.2254,2.202,2.1864,2.1831,2.1664,2.1544,2.153,2.1399,2.1169,2.0961,2.0762,2.0649,2.0612,2.08,2.0899,2.0974,2.1388,2.1471,2.1459,2.2049,2.2476,2.2449,2.2944,2.3401,2.3354,2.3666,2.3691,2.3069,2.2959,2.2942,2.2436,2.2477,2.305,2.4004,2.5073,2.6337,2.7311,2.707,2.7015,2.7055,2.6798,2.6103,2.5194,2.4338,2.3894,2.356,2.326,2.2986,2.3045,2.2801,2.2606,2.255,2.2807,2.2572,2.195,2.2285,2.2896,2.3071,2.3286,2.4055,2.4806,2.5466,2.5757,2.5661,2.5771,2.5811,2.5771,2.5578,2.5481,2.5397,2.5131,2.4835,2.4806,2.4892,2.492,2.4948,2.4977,2.5005,2.3239,2.2909,2.2454,2.2206,2.2238,2.2672,2.2918,2.3017,2.3428,2.3571,2.3595,2.3595,2.3595,2.3595,2.3588,2.361,2.3739,2.3674,2.3689,2.3551,2.3282,2.3201,2.3009,2.2822,2.264,2.2572,2.2426,2.244,2.2555,2.2632,2.27,2.2814,2.2888,2.2978,2.2925,2.2615,2.2509,2.244,2.2067,2.1807,2.1746,2.1592,2.1506,2.1554,2.1544,2.1447,2.134,2.1242,2.1204,2.118,2.1095,2.1144,2.1291,2.1496,2.1554,2.1694,2.2144,2.251,2.2466,2.2914,2.3036,2.2908,2.3413,2.3239,2.2249,2.2786,2.2784,2.2372,2.2198,2.2852,2.4249,2.5873,2.6658,2.6974,2.6964,2.6634,2.6171,2.6061,2.5686,2.4942,2.4508,2.4317,2.4024,2.379,2.3538,2.3341,2.3098,2.2888,2.2812,2.2808,2.2383,2.1811,2.2075,2.2676,2.2964,2.3251,2.3983,2.468,2.5325,2.5811,2.5715,2.5578,2.5578,2.5467,2.53,2.5216,2.5131,2.499,2.4664,2.4778,2.4806,2.4806,2.4806,2.4892,2.5005,2.3014,2.2469,2.1892,2.1622,2.1686,2.2038,2.2541,2.3031,2.3294,2.358,2.3779,2.3803,2.3782,2.3782,2.3782,2.3818,2.3861,2.3818,2.3775,2.3674,2.3566,2.3653,2.3724,2.353,2.3297,2.3113,2.2709,2.27,2.2836,2.2806,2.2783,2.2896,2.2978,2.2947,2.2917,2.2661,2.2463,2.2333,2.202,2.1783,2.1674,2.1578,2.1458,2.1506,2.1568,2.1544,2.1399,2.1385,2.1496,2.1616,2.1616,2.152,2.152,2.1664,2.1722,2.1725,2.2517,2.2801,2.2876,2.3459,2.3865,2.3187,2.3749,2.3222,2.2636,2.27,2.2543,2.2106,2.2094,2.2785,2.4347,2.5344,2.616,2.6465,2.6369,2.6045,2.571,2.5697,2.5415,2.4627,2.4255,2.4051,2.3919,2.3833,2.3603,2.3194,2.3157,2.2933,2.2706,2.2663,2.247,2.2141,2.2199,2.245,2.2799,2.328,2.3927,2.4519,2.5031,2.5476,2.5605,2.5453,2.5272,2.5188,2.509,2.4863,2.4736,2.4622,2.4434,2.4232,2.4218,2.445,2.4622,2.465,2.4821,2.2867,2.211,2.1421,2.1139,2.119,2.1432,2.2174,2.3153,2.3275,2.3595,2.4008,2.4067,2.4024,2.4003,2.3982,2.4003,2.3973,2.3722,2.3598,2.3888,2.3925,2.4073,2.4177,2.4036,2.3873,2.3666,2.312,2.3046,2.312,2.3015,2.2888,2.291,2.3,2.2978,2.2812,2.2615,2.2472,2.2333,2.203,2.1807,2.1698,2.165,2.1578,2.1602,2.1769,2.1759,2.1688,2.1698,2.1817,2.2067,2.2217,2.21,2.1959,2.1945,2.2006,2.1787,2.2873,2.3259,2.3323,2.4096,2.4639,2.4136,2.445,2.3898,2.2965,2.2909,2.2737,2.2322,2.2227,2.3029,2.4014,2.4941,2.5402,2.5638,2.5462,2.5417,2.5488,2.5476,2.5018,2.4481,2.4137,2.3925,2.3689,2.3501,2.3282,2.3105,2.3075,2.2978,2.2752,2.2569,2.239,2.2357,2.24,2.2456,2.277,2.3277,2.392,2.4395,2.487,2.5213,2.5507,2.5356,2.5188,2.5033,2.4878,2.4622,2.4363,2.4173,2.394,2.3645,2.3704,2.4028,2.4218,2.4379,2.4593,2.3157,2.2812,2.1658,2.11,2.1065,2.157,2.2155,2.2767,2.3309,2.3736,2.408,2.4198,2.4151,2.4046,2.4003,2.4046,2.3996,2.366,2.364,2.408,2.4177,2.4261,2.4426,2.424,2.4156,2.4168,2.3666,2.3326,2.326,2.3127,2.2986,2.2971,2.3187,2.3223,2.2963,2.2822,2.2754,2.2595,2.2287,2.2091,2.1959,2.1864,2.1855,2.1912,2.2184,2.2231,2.2208,2.2411,2.2595,2.2546,2.27,2.2737,2.2741,2.2681,2.2609,2.2593,2.32,2.3728,2.3749,2.4216,2.4347,2.409,2.442,2.4028,2.3207,2.3478,2.33,2.2801,2.3024,2.3798,2.3273,2.4615,2.5228,2.5311,2.5316,2.532,2.5232,2.5136,2.5065,2.4702,2.4295,2.3739,2.3436,2.3179,2.3024,2.2926,2.2941,2.2828,2.2623,2.2532,2.2454,2.2491,2.2537,2.2626,2.2772,2.3331,2.3907,2.434,2.4775,2.5129,2.5328,2.5273,2.5146,2.4907,2.4607,2.429,2.4041,2.3776,2.3599,2.342,2.3509,2.3628,2.3793,2.3956,2.4234,2.2796,2.2599,2.165,2.1214,2.1231,2.1521,2.2209,2.299,2.3278,2.3779,2.4255,2.438,2.424,2.4156,2.4172,2.4156,2.4013,2.3896,2.3963,2.4343,2.4385,2.4426,2.4589,2.4364,2.4261,2.4198,2.3867,2.3646,2.3538,2.3231,2.3098,2.3075,2.329,2.3253,2.3091,2.3113,2.3091,2.2957,2.2768,2.2563,2.2365,2.2194,2.2208,2.2333,2.2518,2.2586,2.2655,2.2731,2.2926,2.3036,2.3374,2.3588,2.3706,2.3858,2.3801,2.3473,2.3939,2.4361,2.4354,2.4696,2.4609,2.4094,2.4435,2.4069,2.3399,2.3563,2.3775,2.3304,2.363,2.4292,2.3747,2.4958,2.5701,2.5897,2.5824,2.5856,2.5921,2.5633,2.5404,2.5073,2.4206,2.3562,2.3046,2.2867,2.2777,2.2768,2.2797,2.2706,2.2575,2.2571,2.2568,2.2486,2.2555,2.2684,2.289,2.3435,2.3975,2.4425,2.4878,2.5202,2.5422,2.5494,2.5132,2.4751,2.4392,2.4128,2.3747,2.3509,2.333,2.318,2.315,2.318,2.3348,2.3556,2.3897,2.2704,2.2394,2.1725,2.1462,2.1493,2.154,2.2232,2.3166,2.3218,2.3758,2.4637,2.4523,2.44,2.4292,2.4179,2.4092,2.4142,2.4205,2.424,2.4487,2.4625,2.4686,2.4605,2.4508,2.4364,2.4094,2.3946,2.3897,2.3689,2.3407,2.326,2.3268,2.3341,2.3348,2.3282,2.3458,2.3458,2.3414,2.3304,2.3127,2.2822,2.2632,2.2578,2.2669,2.2768,2.2867,2.2859,2.3024,2.3259,2.3569,2.3998,2.4391,2.4636,2.5248,2.5242,2.4712,2.5009,2.5154,2.52,2.5244,2.5149,2.4751,2.4668,2.4337,2.3975,2.4024,2.3991,2.3805,2.4078,2.4531,2.4213,2.4975,2.5723,2.6217,2.6231,2.637,2.6594,2.6404,2.5901,2.5253,2.4174,2.369,2.3511,2.3412,2.351,2.3211,2.324,2.2849,2.2747,2.2781,2.2743,2.2548,2.2555,2.2715,2.3016,2.3583,2.4141,2.4684,2.5182,2.5621,2.5771,2.5879,2.5398,2.4879,2.4481,2.4189,2.3704,2.33,2.315,2.3,2.28,2.283,2.309,2.3378,2.3704,2.3706,2.2945,2.2212,2.188,2.1825,2.1738,2.2264,2.3161,2.3274,2.3785,2.471,2.4655,2.4558,2.4312,2.3731,2.3895,2.4197,2.4169,2.4204,2.4603,2.4806,2.4746,2.4539,2.44,2.4281,2.4073,2.3925,2.376,2.3674,2.3588,2.3516,2.3494,2.3668,2.3797,2.3566,2.3775,2.3839,2.3732,2.353,2.3312,2.3105,2.3038,2.2971,2.2971,2.3061,2.3127,2.3046,2.3275,2.3644,2.4102,2.4409,2.4873,2.5418,2.6099,2.6368,2.6164,2.5885,2.5555,2.5621,2.569,2.5783,2.5628,2.5765,2.5576,2.5202,2.4796,2.4794,2.5307,2.4889,2.4393,2.4216,2.4208,2.4714,2.5415,2.6019,2.6337,2.6692,2.6993,2.6517,2.6046,2.5145,2.4783,2.4525,2.4427,2.4293,2.396,2.3587,2.325,2.3018,2.3121,2.3111,2.2951,2.2808,2.2928,2.3377,2.3894,2.4473,2.5018,2.5712,2.617,2.622,2.6244,2.5715,2.5217,2.4738,2.4205,2.3747,2.336,2.306,2.2848,2.2696,2.2757,2.2909,2.321,2.348,2.3755,2.2601,2.2298,2.2152,2.2065,2.193,2.2501,2.3321,2.3326,2.3898,2.4681,2.4312,2.4068,2.3942,2.3592,2.3946,2.4518,2.4402,2.4473,2.4728,2.4922,2.4806,2.4544,2.4421,2.4317,2.4073,2.3967,2.3925,2.3818,2.376,2.3689,2.3711,2.3876,2.3961,2.3867,2.4067,2.4114,2.403,2.3882,2.3711,2.3603,2.348,2.337,2.329,2.3414,2.3392,2.3407,2.3458,2.3895,2.4409,2.4881,2.5486,2.6138,2.6731,2.7046,2.6578,2.6652,2.655,2.6373,2.6234,2.6215,2.6231,2.6297,2.6234,2.6119,2.5991,2.5495,2.5098,2.5257,2.4908,2.4474,2.4591,2.5247,2.5795,2.611,2.6624,2.7024,2.7117,2.7056,2.6615,2.6185,2.5802,2.5379,2.4955,2.4757,2.4517,2.4318,2.4126,2.3847,2.3738,2.3671,2.3495,2.3363,2.3268,2.3813,2.4361,2.502,2.5693,2.6829,2.7101,2.6869,2.6613,2.6095,2.5439,2.4823,2.4305,2.3776,2.3343,2.2969,2.2757,2.2604,2.2696,2.2787,2.2878,2.3241,2.346,2.233,2.2313,2.2268,2.2197,2.2046,2.2624,2.362,2.3135,2.3663,2.4376,2.3903,2.3565,2.3834,2.3885,2.4128,2.4851,2.4866,2.4906,2.4982,2.4942,2.4782,2.4559,2.4457,2.4297,2.4046,2.4067,2.4109,2.4135,2.4114,2.4057,2.3925,2.4088,2.413,2.4193,2.4359,2.4503,2.4385,2.4177,2.4051,2.4024,2.3861,2.376,2.3717,2.3696,2.3749,2.3921,2.3894,2.4216,2.5143,2.5591,2.6168,2.6821,2.721,2.718,2.6886,2.6951,2.7,2.6699,2.6462,2.6517,2.6616,2.6747,2.6941,2.7045,2.7126,2.6909,2.5849,2.5443,2.517,2.4776,2.5116,2.5409,2.6071,2.6713,2.721,2.753,2.7484,2.7423,2.714,2.681,2.6742,2.622,2.5523,2.5182,2.5027,2.4944,2.4909,2.4644,2.4325,2.3868,2.3604,2.322,2.3135,2.3574,2.4311,2.5126,2.6134,2.7254,2.7838,2.7464,2.7034,2.6537,2.5824,2.5077,2.4494,2.4028,2.3437,2.2878,2.2818,2.2757,2.2665,2.2696,2.2787,2.3168,2.3021,2.2313,2.2313,2.2313,2.2268,2.1961,2.2516,2.3554,2.2648,2.2996,2.3964,2.3327,2.374,2.4362,2.4223,2.4341,2.5088,2.5088,2.5045,2.4982,2.4878,2.4722,2.4559,2.4416,2.4312,2.4208,2.4208,2.4338,2.4523,2.4594,2.4426,2.4265,2.4421,2.4477,2.4523,2.4666,2.482,2.4698,2.4462,2.4261,2.4255,2.4172,2.4088,2.403,2.3949,2.4111,2.481,2.4559,2.4874,2.6004,2.6153,2.6701,2.721,2.736,2.7106,2.6737,2.7036,2.6901,2.6404,2.6753,2.7159,2.7335,2.7488,2.76,2.7665,2.7715,2.7525,2.6947,2.609,2.5609,2.5286,2.5272,2.5599,2.6125,2.6847,2.727,2.7545,2.76,2.7524,2.7488,2.7335,2.7119,2.6989,2.6283,2.5885,2.572,2.5691,2.5655,2.5081,2.4676,2.3929,2.3441,2.2899,2.2831,2.3048,2.3867,2.5044,2.5942,2.6922,2.7585,2.785,2.7397,2.6867,2.6283,2.5536,2.4908,2.4147,2.3382,2.2884,2.2969,2.2969,2.2927,2.3138,2.3437,2.378,2.3013,2.2313,2.2313,2.2313,2.2265,2.193,2.2564,2.3555,2.3035,2.3171,2.4017,2.3856,2.4058,2.4412,2.4479,2.4569,2.516,2.5282,2.5162,2.5045,2.4906,2.4766,2.4605,2.4477,2.4359,2.4317,2.438,2.4508,2.4715,2.4914,2.4954,2.4855,2.4851,2.4826,2.4886,2.4905,2.4997,2.5066,2.4735,2.4421,2.44,2.4333,2.4229,2.4166,2.4511,2.4327,2.4329,2.45,2.5121,2.5779,2.6063,2.6731,2.741,2.729,2.6816,2.6351,2.684,2.6642,2.6324,2.6864,2.761,2.7755,2.7855,2.7955,2.8005,2.7955,2.7321,2.6733,2.6351,2.5988,2.5084,2.5494,2.6122,2.6489,2.6882,2.7335,2.7525,2.7595,2.7615,2.7539,2.7412,2.7273,2.7155,2.7019,2.6692,2.6457,2.6444,2.6294,2.5731,2.5002,2.4266,2.3653,2.3158,2.2833,2.3053,2.3987,2.5072,2.5785,2.6549,2.7169,2.772,2.7615,2.7063,2.6522,2.5769,2.4782,2.3904,2.3148,2.2859,2.3005,2.3143,2.3263,2.359,2.4028,2.4247,2.3068,2.24,2.2338,2.2324,2.2254,2.1961,2.2595,2.3605,2.3085,2.3333,2.4076,2.4156,2.4392,2.4551,2.4541,2.4791,2.5214,2.5339,2.522,2.5159,2.5131,2.4928,2.477,2.4715,2.4818,2.458,2.4655,2.4835,2.5075,2.5208,2.5304,2.5362,2.5362,2.5301,2.5092,2.5138,2.529,2.541,2.5181,2.4663,2.4596,2.4441,2.4359,2.4399,2.4784,2.5004,2.4962,2.5281,2.5853,2.6288,2.6588,2.6913,2.7293,2.7333,2.6775,2.6563,2.6602,2.6702,2.6563,2.7052,2.7885,2.8005,2.8029,2.8079,2.8103,2.8103,2.7668,2.6907,2.6648,2.6178,2.5114,2.5785,2.6234,2.6479,2.7116,2.7535,2.755,2.76,2.76,2.7575,2.7463,2.7376,2.7412,2.7321,2.7214,2.6972,2.6913,2.678,2.6414,2.5593,2.4612,2.4078,2.3618,2.3324,2.3198,2.4255,2.5165,2.5359,2.61,2.6862,2.7278,2.7225,2.7,2.6338,2.5481,2.4513,2.353,2.2628,2.2683,2.3027,2.3327,2.3725,2.4047,2.445,2.445,2.3184,2.2518,2.2453,2.2417,2.2431,2.1947,2.261,2.3737,2.2992,2.3199,2.4185,2.3976,2.4419,2.5077,2.4978,2.5102,2.5322,2.5413,2.5259,2.512,2.5285,2.5149,2.5066,2.5098,2.5383,2.4992,2.5156,2.5458,2.5629,2.5805,2.5866,2.6024,2.6157,2.597,2.5458,2.5629,2.5842,2.5957,2.5816,2.5306,2.489,2.4787,2.4818,2.4673,2.5373,2.5788,2.5663,2.6253,2.6831,2.7239,2.7343,2.7683,2.8121,2.806,2.7639,2.718,2.7677,2.7479,2.6747,2.7551,2.7966,2.8113,2.8128,2.8186,2.8299,2.8308,2.8048,2.7182,2.6879,2.6497,2.6182,2.6153,2.6393,2.6716,2.7385,2.7585,2.7585,2.76,2.76,2.7665,2.7539,2.7437,2.7549,2.76,2.7564,2.7473,2.7427,2.7195,2.6795,2.5781,2.4624,2.4034,2.355,2.3092,2.307,2.4394,2.5207,2.5317,2.5614,2.6316,2.675,2.6765,2.6449,2.6017,2.5259,2.4328,2.3149,2.198,2.2003,2.2139,2.3712,2.4321,2.4637,2.4751,2.4679,2.3454,2.4033,2.3454,2.3499,2.3728,2.2473,2.2686,2.3852,2.4387,2.4828,2.5135,2.5193,2.5379,2.5668,2.5613,2.5526,2.5478,2.5413,2.5243,2.5053,2.5273,2.5051,2.5053,2.5589,2.6029,2.5991,2.6108,2.6254,2.6545,2.6578,2.6757,2.6949,2.7195,2.7237,2.672,2.6502,2.6403,2.6876,2.6567,2.5963,2.5503,2.5675,2.5597,2.5011,2.6223,2.6667,2.6252,2.6995,2.7627,2.7866,2.7849,2.8123,2.8459,2.8412,2.7866,2.7361,2.7535,2.7906,2.7728,2.8137,2.8146,2.8152,2.8162,2.8186,2.8152,2.821,2.7875,2.754,2.7219,2.6919,2.6717,2.699,2.7205,2.733,2.7675,2.7625,2.76,2.76,2.764,2.774,2.7715,2.7715,2.7765,2.7865,2.7865,2.7644,2.7525,2.7036,2.6639,2.5389,2.4167,2.3665,2.3188,2.2739,2.2895,2.4241,2.494,2.4995,2.5226,2.5708,2.6021,2.6445,2.6285,2.605,2.5141,2.4142,2.2433,2.1,2.0758,2.1201,2.2694,2.4092,2.458,2.4637,2.4622,2.3674,2.4448,2.4176,2.4335,2.4582,2.3382,2.3381,2.4313,2.5358,2.5807,2.5682,2.5903,2.5974,2.5883,2.5917,2.577,2.5505,2.5429,2.5146,2.4973,2.5282,2.5082,2.5249,2.6022,2.6523,2.6687,2.6766,2.6976,2.741,2.7346,2.7505,2.7863,2.83,2.799,2.7522,2.7162,2.6983,2.7188,2.6696,2.6209,2.6073,2.6172,2.6251,2.6325,2.6919,2.7586,2.7168,2.7447,2.8162,2.813,2.8223,2.8448,2.8728,2.8677,2.8262,2.7958,2.7781,2.8186,2.8227,2.8247,2.8177,2.8029,2.8162,2.8226,2.8152,2.821,2.7905,2.7631,2.7567,2.7491,2.7376,2.767,2.7639,2.7733,2.78,2.7735,2.7765,2.7765,2.789,2.7989,2.7965,2.798,2.798,2.8103,2.8152,2.7878,2.7579,2.704,2.6449,2.5174,2.413,2.3728,2.3407,2.3193,2.3366,2.4126,2.4623,2.4682,2.5206,2.5809,2.6217,2.6778,2.6425,2.594,2.4914,2.35,2.1244,1.9976,1.9727,2.0246,2.1495,2.2845,2.4208,2.4523,2.4494,2.3819,2.3977,2.4626,2.4923,2.4863,2.4558,2.458,2.4778,2.5588,2.5735,2.5473,2.5844,2.5934,2.5749,2.586,2.5733,2.5448,2.5371,2.5084,2.5032,2.5437,2.5186,2.555,2.6445,2.7086,2.7072,2.7205,2.7833,2.8241,2.7852,2.7998,2.8561,2.8831,2.863,2.8234,2.7997,2.7658,2.728,2.7232,2.6793,2.6613,2.6737,2.6955,2.7259,2.7865,2.822,2.8224,2.8602,2.893,2.9041,2.9134,2.9309,2.9477,2.9589,2.9477,2.9196,2.8779,2.8387,2.8341,2.8284,2.8235,2.8201,2.8323,2.8372,2.8323,2.8226,2.807,2.7862,2.7801,2.7884,2.7951,2.7841,2.7745,2.7847,2.7968,2.7974,2.8005,2.8079,2.821,2.8259,2.8201,2.8152,2.8103,2.8177,2.821,2.7996,2.7634,2.7218,2.6477,2.5212,2.4343,2.4107,2.3898,2.3859,2.4149,2.4592,2.4858,2.5069,2.5914,2.6526,2.6876,2.7043,2.6725,2.6061,2.4689,2.2835,2.0243,1.9012,1.8683,1.9444,2.0486,2.2022,2.3479,2.415,2.4308,2.4608,2.5524,2.5695,2.5678,2.5591,2.5829,2.5648,2.5209,2.5893,2.6083,2.5828,2.6187,2.6201,2.61,2.6026,2.5879,2.5659,2.5451,2.5278,2.5329,2.5511,2.538,2.5917,2.6915,2.7689,2.8082,2.8322,2.8672,2.9037,2.8598,2.8705,2.9427,2.9547,2.9337,2.9131,2.9082,2.827,2.7714,2.7796,2.7625,2.7592,2.7959,2.8044,2.8188,2.8898,2.9119,2.907,2.9333,2.954,2.9589,2.9694,2.9842,2.9864,3.0065,3.007,2.9457,2.8758,2.8155,2.8417,2.8396,2.8372,2.8453,2.8558,2.8356,2.8275,2.829,2.8299,2.817,2.8182,2.8347,2.8465,2.8372,2.8287,2.8356,2.8374,2.8244,2.8275,2.8323,2.8429,2.8477,2.8405,2.8275,2.8201,2.8152,2.8131,2.7987,2.7695,2.7233,2.6613,2.5405,2.4682,2.4499,2.4469,2.4447,2.4675,2.5056,2.5285,2.5578,2.6486,2.7215,2.7556,2.7569,2.713,2.5838,2.3966,2.1573,1.8955,1.8162,1.7766,1.8448,1.949,2.1144,2.2615,2.342,2.4163,2.5213,2.6147,2.6482,2.6497,2.6344,2.6539,2.6235,2.5796,2.6129,2.6188,2.6041,2.6482,2.6506,2.6235,2.6325,2.6229,2.5733,2.5546,2.5336,2.5201,2.554,2.5505,2.611,2.7202,2.8006,2.853,2.8973,2.9325,2.9696,2.9726,2.9769,3.035,3.0364,2.999,2.9769,2.9646,2.9054,2.8419,2.8162,2.8372,2.8677,2.9026,2.8909,2.9107,2.9894,2.9779,2.9653,2.9913,2.9951,2.9957,3.0038,3.0124,3.0081,3.0172,3.0022,2.9406,2.8823,2.8404,2.8455,2.8525,2.8597,2.87,2.8787,2.8724,2.8581,2.8549,2.8486,2.8439,2.8662,2.8889,2.8958,2.9028,2.9005,2.8958,2.8779,2.8558,2.8549,2.8525,2.8581,2.8653,2.8558,2.8405,2.8284,2.821,2.8018,2.7743,2.7446,2.7043,2.6587,2.5867,2.5276,2.4978,2.5031,2.5107,2.5378,2.5712,2.6043,2.6487,2.7275,2.7915,2.8216,2.8095,2.7683,2.5494,2.285,2.0631,1.8575,1.7461,1.7071,1.7853,1.8742,2.0162,2.1788,2.3135,2.3872,2.5729,2.6161,2.6949,2.6998,2.6942,2.6708,2.6487,2.6296,2.6259,2.6097,2.6085,2.6707,2.6718,2.6495,2.6755,2.6578,2.6138,2.5812,2.5675,2.5203,2.581,2.5959,2.6368,2.7319,2.8315,2.8576,2.9012,2.9799,3.0207,3.0133,3.0139,3.1067,3.0763,3.0252,2.9749,3.0242,2.981,2.9062,2.8772,2.8817,2.9013,2.9218,2.9505,2.9997,3.0215,3.0182,3.0204,3.0274,3.0274,3.0189,3.0189,3.0295,3.021,3.0,2.9716,2.9432,2.8995,2.8748,2.8669,2.8677,2.8756,2.8858,2.8935,2.9019,2.8957,2.8873,2.8818,2.885,2.9067,2.9234,2.9325,2.9477,2.9499,2.9325,2.9136,2.8967,2.8928,2.8905,2.8928,2.8936,2.8748,2.8581,2.8414,2.8341,2.8128,2.7689,2.7409,2.7067,2.6763,2.6303,2.597,2.5634,2.5693,2.5889,2.6242,2.6581,2.6963,2.7494,2.8077,2.8438,2.8624,2.8481,2.8229,2.5804,2.3259,2.0761,1.8752,1.7664,1.7005,1.7504,1.8427,1.9355,2.0792,2.2517,2.3594,2.6234,2.6079,2.6035,2.6217,2.6522,2.6382,2.6348,2.6366,2.6365,2.6241,2.6175,2.6825,2.7181,2.7087,2.7197,2.7073,2.6842,2.6151,2.6223,2.636,2.666,2.6545,2.7008,2.8094,2.8749,2.9018,2.9486,3.0133,3.0352,3.0177,2.9892,3.0048,3.0112,2.9972,2.9799,3.0412,3.0281,2.9711,2.9683,2.9399,2.9247,2.9848,3.0323,3.038,3.0359,3.0401,3.0401,3.038,3.0295,3.0227,3.0312,3.0359,3.0338,3.0087,2.9864,2.9637,2.9357,2.9121,2.8959,2.8936,2.9059,2.9014,2.9054,2.9221,2.9285,2.9225,2.9198,2.9257,2.9403,2.9544,2.9607,2.9777,2.9892,2.9677,2.9438,2.9357,2.9275,2.9275,2.9275,2.9121,2.8936,2.8756,2.859,2.8389,2.8162,2.7999,2.7894,2.7678,2.747,2.712,2.6847,2.6579,2.6498,2.6701,2.7011,2.7265,2.754,2.7926,2.8419,2.8743,2.9047,2.8736,2.8236,2.6245,2.3898,2.1437,1.9313,1.7846,1.7461,1.7639,1.827,1.9259,2.0463,2.2079,2.3144,2.6662,2.6594,2.6343,2.6386,2.6607,2.6486,2.6469,2.6521,2.6539,2.6671,2.6914,2.7513,2.7764,2.7704,2.7746,2.7576,2.7328,2.6521,2.6557,2.692,2.7048,2.7017,2.7701,2.8605,2.8679,2.8984,2.9892,3.0435,3.0489,3.0384,3.0162,3.0162,3.0179,3.0159,3.0189,3.0549,3.0671,3.0555,3.0547,3.0179,2.9675,3.0174,3.0506,3.0447,3.0447,3.0489,3.0468,3.0464,3.0422,3.0359,3.0401,3.0295,3.0253,3.0124,2.9908,2.9687,2.947,2.9396,2.9236,2.9259,2.9373,2.9285,2.8984,2.9108,2.9496,2.9416,2.9008,2.9074,2.953,2.9728,2.9453,2.9497,2.9756,2.97,2.9499,2.935,2.9366,2.9428,2.9405,2.9344,2.9121,2.8826,2.8598,2.8374,2.8162,2.7915,2.7875,2.789,2.7765,2.764,2.7445,2.7363,2.7221,2.7242,2.7475,2.7694,2.7957,2.8356,2.8733,2.9107,2.9336,2.8918,2.8097,2.6727,2.4873,2.2185,2.0223,1.8757,1.7653,1.7583,1.8323,1.9218,2.0475,2.1684,2.2553,2.7113,2.7279,2.7071,2.6991,2.6942,2.6775,2.6708,2.6759,2.6843,2.7284,2.7945,2.8541,2.8422,2.8271,2.8352,2.7993,2.747,2.6735,2.6792,2.6987,2.6809,2.7263,2.7866,2.8471,2.8946,2.946,3.0192,3.0538,3.0695,3.064,3.0704,3.0938,3.0935,3.0895,3.0871,3.081,3.0708,3.063,3.0568,3.0489,3.0472,3.0489,3.0489,3.0489,3.0489,3.0489,3.0489,3.0489,3.0489,3.0464,3.0443,3.0316,3.021,3.0124,2.9995,2.9798,2.9694,2.9598,2.9486,2.9582,2.9627,2.9532,2.9113,2.9129,2.9572,2.9459,2.9048,2.9183,2.9621,2.9778,2.954,2.9491,2.9745,2.9863,2.964,2.9473,2.9534,2.9671,2.9722,2.969,2.9365,2.9053,2.8832,2.8568,2.8241,2.7995,2.7831,2.7806,2.7781,2.7655,2.751,2.7585,2.7648,2.7769,2.794,2.811,2.8316,2.8553,2.8928,2.9403,2.9643,2.9287,2.8818,2.8126,2.6013,2.3393,2.149,2.0016,1.9014,1.8048,1.8593,1.9541,2.0504,2.1548,2.2088,2.7622,2.7289,2.7133,2.6957,2.6775,2.6708,2.6792,2.7044,2.7589,2.8032,2.8528,2.9398,2.9599,2.8918,2.9002,2.8626,2.7825,2.7029,2.7146,2.7516,2.7138,2.7725,2.8433,2.9074,2.9916,3.0381,3.064,3.0811,3.0851,3.0875,3.0915,3.0952,3.0995,3.0975,3.0992,3.0912,3.0831,3.0749,3.0589,3.0489,3.0506,3.0506,3.0489,3.0489,3.0489,3.0489,3.0489,3.0489,3.0464,3.0422,3.0438,3.0359,3.0274,3.0231,3.0146,3.0081,3.0,3.0,2.9979,3.0044,3.0065,3.0043,2.9707,2.9493,2.9711,2.9613,2.9399,2.949,2.9842,3.0092,2.9989,3.0081,3.0272,3.0178,3.0035,2.9884,2.9826,3.024,3.0545,3.0283,2.9935,2.976,2.9656,2.925,2.8709,2.8434,2.8101,2.8036,2.7715,2.7615,2.7518,2.7745,2.796,2.8171,2.831,2.847,2.8654,2.8864,2.9069,2.9444,2.9663,2.9665,2.9216,2.8784,2.7221,2.481,2.307,2.1558,2.0282,1.9452,1.941,1.9963,2.0805,2.1442,2.2001]}]]